     2.11           OBSERVATION DATA    G (GPS)             RINEX VERSION / TYPE
teqc 2010Oct21 OPUS Account 20111026 17:06:12UTC            PGM / RUN BY / DATE
G 1523                                                      MARKER NAME
1187                                                        MARKER NUMBER
CSMIDDLETON NGS                                             OBSERVER / AGENCY
4613K00970 TRIMBLE NETR5 4.17                               REC # / TYPE / VERS
60125046 TRM41249.00 NONE                                   ANT # / TYPE
  -749227.3504 -5509838.3699  3113961.9366                  APPROX POSITION XYZ
        2.0040        0.0000        0.0000                  ANTENNA: DELTA H/E/N
     1     1                                                WAVELENGTH FACT L1/2
     5    L1    L2    C1    P1    P2                        # / TYPES OF OBSERV
    15                                                      LEAP SECONDS
  2011     8     3     0     0    0.0000000     GPS         TIME OF FIRST OBS
                                                            END OF HEADER
 11  8  3  0  0  0.0000000  0  8G28G09G17G04G27G02G10G12
 117293888.454 7  91397924.05844  22320284.602                    22320292.500
 115991992.527 7  90383455.52744  22072548.797                    22072557.277
 114061173.611 7  88878935.807 7  21705099.563                    21705107.266
 104614784.654 8  81518133.87546  19907510.570                    19907518.875
 117809717.464 7  91799859.07445  22418447.195                    22418456.078
 113817734.106 8  88689230.25445  21658782.180                    21658789.199
 119090419.676 6  92797829.96944  22662146.242                    22662156.781
 127566383.421 6  99402417.269 6  24275078.281                    24275088.109
 11  8  3  0  0 30.0000000  0  8G28G09G17G04G27G02G10G12
 117360778.556 7  91450046.17444  22333013.344                    22333021.766
 115993465.611 7  90384603.36944  22072829.586                    22072837.523
 114095712.942 7  88905849.572 7  21711671.344                    21711679.117
 104628559.013 8  81528867.15646  19910131.555                    19910139.680
 117821108.200 7  91808734.93645  22420615.023                    22420623.969
 113754194.929 7  88639719.25345  21646690.891                    21646697.367
 119003608.591 7  92730185.07244  22645627.398                    22645637.020
 127469466.268 6  99326897.422 6  24256635.500                    24256644.973
 11  8  3  0  1  0.0000000  0  8G28G09G17G04G27G02G10G12
 117428030.419 7  91502450.16244  22345810.781                    22345819.078
 115995568.414 7  90386241.91244  22073228.648                    22073237.680
 114130332.534 7  88932825.872 7  21718259.969                    21718267.309
 104642863.286 8  81540013.35046  19912853.641                    19912861.770
 117832965.275 6  91817974.20545  22422871.414                    22422879.922
 113691001.549 7  88590477.70845  21634665.523                    21634671.918
 118917005.648 7  92662702.36144  22629146.883                    22629156.816
 127372561.071 6  99251386.941 6  24238194.992                    24238204.605
 11  8  3  0  1 30.0000000  0  8G28G09G17G04G27G02G10G12
 117495643.192 7  91555135.39244  22358677.031                    22358685.523
 115998300.124 7  90388370.51644  22073749.313                    22073757.266
 114165031.895 7  88959864.330 7  21724862.539                    21724870.652
 104657695.892 8  81551571.23446  19915676.250                    19915684.273
 117845287.502 7  91827575.92745  22425216.195                    22425225.090
 113628154.812 7  88541506.27745  21622706.234                    21622712.980
 118830613.860 7  92595384.17944  22612707.180                    22612716.977
 127275669.137 6  99175886.806 6  24219757.242                    24219766.848
 11  8  3  0  2  0.0000000  0  8G28G09G17G04G27G02G10G12
 117563616.824 7  91608101.80144  22371612.234                    22371620.250
 116001660.552 7  90390989.01944  22074388.477                    22074396.926
 114199811.271 7  88986965.125 7  21731480.773                    21731488.859
 104673056.002 8  81563540.16046  19918599.023                    19918607.156
 117858074.417 6  91837539.73445  22427649.367                    22427658.645
 113565655.475 7  88492805.53845  21610812.898                    21610819.855
 118744437.198 7  92528233.64544  22596307.594                    22596318.082
 127178792.915 6  99100398.903 6  24201321.836                    24201331.297
 11  8  3  0  2 30.0000000  0  8G28G09G17G04G27G02G10G12
 117631949.440 7  91661347.95444  22384615.320                    22384623.875
 116005647.945 7  90394096.06644  22075147.719                    22075156.199
 114234670.365 7  89014128.046 7  21738114.609                    21738122.086
 104688941.446 8  81575918.43746  19921622.070                    19921629.906
 117871324.272 7  91847864.27845  22430171.000                    22430180.094
 113503504.128 8  88444375.96845  21598986.188                    21598992.641
 118658478.643 7  92461253.04944  22579950.734                    22579960.734
 127081933.682 6  99024924.245 6  24182890.164                    24182899.230
 11  8  3  0  3  0.0000000  0  8G28G09G17G04G27G02G10G12
 117700641.148 7  91714873.91344  22397686.852                    22397695.504
 116010261.767 7  90397691.25245  22076024.805                    22076033.781
 114269609.560 7  89041353.394 7  21744762.922                    21744770.891
 104705351.236 8  81588705.28946  19924744.961                    19924752.875
 117885036.264 7  91858548.91744  22432780.258                    22432789.074
 113441701.604 7  88396218.19345  21587225.250                    21587231.758
 118572741.581 7  92394445.04744  22563635.711                    22563644.738
 126985093.447 6  98949464.386 6  24164462.297                    24164471.660
 11  8  3  0  3 30.0000000  0  8G28G09G17G04G27G02G10G12
 117769691.414 7  91768679.25744  22410827.367                    22410835.195
 116015501.077 7  90401773.82444  22077021.500                    22077031.066
 114304629.181 7  89068641.405 7  21751427.391                    21751434.863
 104722283.798 8  81601899.50346  19927967.000                    19927974.879
 117899209.506 7  91869592.97645  22435477.133                    22435486.500
 113380248.650 7  88348332.83245  21575531.570                    21575537.746
 118487229.313 7  92327812.20144  22547362.289                    22547372.777
 126888274.580 6  98874021.195 6  24146038.617                    24146047.215
 11  8  3  0  4  0.0000000  0  8G28G09G17G04G27G02G10G12
 117839098.804 7  91822762.88544  22424035.156                    22424043.410
 116021364.669 7  90406342.83444  22078138.000                    22078147.109
 114339728.655 7  89095991.641 7  21758106.273                    21758113.859
 104739737.271 8  81615499.61146  19931288.289                    19931296.133
 117913842.417 7  91880995.22745  22438261.477                    22438271.027
 113319145.533 8  88300720.05646  21563904.000                    21563910.617
 118401944.863 7  92261356.86844  22531133.914                    22531143.609
 126791478.288 6  98798595.544 6  24127618.320                    24127627.527
 11  8  3  0  4 30.0000000  0  8G28G09G17G04G27G02G10G12
 117908863.354 7  91877124.82744  22437310.469                    22437319.121
 116027852.093 7  90411397.96445  22079372.844                    22079381.133
 114374908.463 7  89123404.484 7  21764800.883                    21764808.328
 104757710.823 8  81629504.98346  19934708.266                    19934716.430
 117928934.067 6  91892754.91945  22441133.609                    22441142.965
 113258393.826 8  88253381.09646  21552342.969                    21552349.531
 118316892.186 7  92195082.14444  22514948.375                    22514958.426
 126694706.927 6  98723189.402 6  24109204.031                    24109212.918
 11  8  3  0  5  0.0000000  0  8G28G09G17G04G27G02G10G12
 117978984.184 7  91931764.37544  22450653.758                    22450662.934
 116034962.084 7  90416938.20945  22080725.633                    22080734.496
 114410168.723 7  89150879.995 7  21771510.586                    21771518.551
 104776202.473 8  81643914.06646  19938227.117                    19938235.172
 117944483.274 7  91904871.16445  22444091.922                    22444101.676
 113197993.953 8  88206316.31145  21540849.055                    21540855.688
 118232074.223 7  92128990.32144  22498807.961                    22498818.289
 126597962.568 6  98647804.293 6  24090793.320                    24090802.805
 11  8  3  0  5 30.0000000  0  8G28G09G17G04G27G02G10G12
 118049460.186 7  91986680.68544  22464065.813                    22464073.844
 116042693.561 7  90422962.71145  22082196.961                    22082205.719
 114445509.271 7  89178418.071 7  21778235.883                    21778243.750
 104795210.822 8  81658725.77546  19941844.430                    19941852.762
 117960488.889 7  91917343.04045  22447138.234                    22447147.301
 113137946.313 7  88159525.98146  21529422.547                    21529429.531
 118147494.237 7  92063083.93744  22482713.016                    22482722.715
 126501246.664 6  98572441.327 6  24072389.383                    24072398.164
 11  8  3  0  6  0.0000000  0  8G28G09G17G04G27G02G10G12
 118120291.036 7  92041873.50244  22477544.570                    22477552.551
 116051046.008 7  90429471.10044  22083786.445                    22083794.746
 114480930.514 7  89206019.036 7  21784976.422                    21784983.961
 104814734.610 8  81673939.11846  19945559.578                    19945567.547
 117976950.120 7  91930169.93644  22450270.711                    22450279.586
 113078252.060 8  88113011.02245  21518063.438                    21518069.941
 118063156.088 7  91997365.96744  22466664.672                    22466673.480
 126404561.751 6  98497102.510 6  24053990.398                    24053999.547
 11  8  3  0  6 30.0000000  0  8G28G09G17G04G27G02G10G12
 118191475.560 7  92097341.91144  22491089.859                    22491098.121
 116060018.016 7  90436462.27244  22085493.422                    22085501.773
 114516432.571 7  89233682.961 7  21791732.484                    21791740.098
 104834771.910 8  81689552.60346  19949372.734                    19949380.457
 117993865.307 7  91943350.58045  22453489.344                    22453499.105
 113018911.533 8  88066771.69546  21506770.977                    21506777.180
 117979062.713 7  91931838.76944  22450661.430                    22450671.070
 126307909.539 6  98421789.163 6  24035598.063                    24035607.223
 11  8  3  0  7  0.0000000  0  8G28G09G17G04G27G02G10G12
 118263012.945 7  92153085.27544  22504703.313                    22504711.586
 116069608.039 7  90443935.00745  22087318.969                    22087327.203
 114552014.873 7  89261409.407 7  21798503.352                    21798510.711
 104855320.884 8  81705564.79246  19953283.266                    19953290.992
 118011232.927 7  91956883.74945  22456794.430                    22456803.867
 112959925.153 8  88020808.32446  21495546.406                    21495552.234
 117895217.195 7  91866504.67444  22434705.953                    22434715.574
 126211291.448 6  98346502.410 6  24017212.570                    24017220.734
 11  8  3  0  7 30.0000000  0  8G28G09G17G04G27G02G10G12
 118334902.622 7  92209103.14744  22518383.828                    22518391.746
 116079815.732 7  90451889.04144  22089261.195                    22089269.957
 114587678.400 7  89289199.164 7  21805289.367                    21805297.520
 104876380.400 8  81721974.81346  19957290.633                    19957298.426
 118029052.368 6  91970769.00645  22460185.422                    22460195.078
 112901294.124 7  87975121.84545  21484389.172                    21484395.445
 117811623.203 7  91801366.59644  22418798.781                    22418808.488
 126114710.199 6  98271244.364 6  23998833.328                    23998842.898
 11  8  3  0  8  0.0000000  0  8G28G09G17G04G27G02G10G12
 118407143.989 7  92265395.07044  22532130.242                    22532139.223
 116090640.056 7  90460323.55644  22091320.141                    22091329.527
 114623423.308 7  89317052.331 7  21812091.945                    21812099.648
 104897949.068 8  81738781.57246  19961395.016                    19961402.906
 118047322.458 7  91985005.41044  22463661.563                    22463671.414
 112843019.066 7  87929712.75746  21473299.406                    21473305.879
 117728284.111 7  91736427.13244  22402939.977                    22402949.406
 126018167.882 6  98196016.657 6  23980461.742                    23980471.492
 11  8  3  0  8 30.0000000  0  8G28G09G17G04G27G02G10G12
 118479735.482 7  92321959.80744  22545943.852                    22545952.879
 116102079.220 7  90469237.18345  22093497.781                    22093506.551
 114659248.909 7  89344968.378 7  21818909.438                    21818917.012
 104920024.406 8  81755983.13946  19965595.688                    19965603.477
 118066041.206 7  91999591.41044  22467223.805                    22467233.641
 112785099.868 8  87884580.95546  21462277.852                    21462284.746
 117645202.887 7  91671688.60344  22387129.555                    22387139.832
 125921665.622 7  98120820.159 6  23962097.953                    23962107.734
 11  8  3  0  9  0.0000000  0  8G28G09G17G04G27G02G10G12
 118552676.486 7  92378796.88044  22559824.508                    22559833.453
 116114131.817 7  90478628.80045  22095791.039                    22095799.973
 114695155.410 7  89372947.443 7  21825741.734                    21825749.648
 104942604.790 8  81773578.25346  19969892.633                    19969900.734
 118085207.447 7  92014526.13044  22470870.992                    22470880.730
 112727537.174 8  87839726.94846  21451323.906                    21451330.680
 117562382.939 7  91607153.66044  22371369.711                    22371379.441
 125825205.746 7  98045656.690 6  23943742.391                    23943751.152
 11  8  3  0  9 30.0000000  0  8G28G09G17G04G27G02G10G12
 118625966.414 7  92435905.87244  22573771.648                    22573779.738
 116126797.178 7  90488497.91344  22098200.969                    22098210.563
 114731143.436 7  89400990.038 7  21832590.430                    21832597.875
 104965689.085 8  81791566.02546  19974285.320                    19974293.336
 118104820.454 7  92029808.95744  22474603.523                    22474612.902
 112670332.311 7  87795151.76646  21440438.414                    21440444.836
 117479827.987 7  91542825.21244  22355659.508                    22355669.355
 125728790.455 6  97970527.971 6  23925394.773                    23925404.309
 11  8  3  0 10  0.0000000  0  8G28G09G17G04G27G02G10G12
 118699604.152 7  92493285.87044  22587783.969                    22587792.609
 116140073.942 7  90498843.42445  22100728.445                    22100736.641
 114767212.863 7  89429096.082 7  21839454.281                    21839462.379
 104989275.568 8  81809945.10746  19978773.867                    19978781.516
 118124878.373 7  92045438.46545  22478420.945                    22478430.074
 112613485.345 7  87750855.46746  21429620.508                    21429626.781
 117397541.064 7  91478705.60644  22340001.367                    22340010.434
 125632421.749 6  97895435.559 6  23907055.922                    23907065.777
 11  8  3  0 10 30.0000000  0  8G28G09G17G04G27G02G10G12
 118773588.975 7  92550936.29544  22601862.648                    22601871.367
 116153960.751 7  90509664.31244  22103369.883                    22103379.066
 114803364.136 7  89457265.885 7  21846333.555                    21846341.375
 105013362.259 8  81828713.96046  19983357.375                    19983365.207
 118145379.944 7  92061413.68445  22482321.891                    22482331.258
 112556997.172 7  87706838.75346  21418870.844                    21418877.680
 117315525.828 7  91414797.70644  22324394.227                    22324403.477
 125536101.409 6  97820380.841 6  23888727.781                    23888736.488
 11  8  3  0 11  0.0000000  0  8G28G09G17G04G27G02G10G12
 118847919.892 7  92608856.44644  22616007.609                    22616015.918
 116168456.140 7  90520959.40344  22106128.727                    22106137.469
 114839597.263 7  89485499.471 7  21853228.789                    21853236.551
 105037947.450 8  81847871.26646  19988035.742                    19988043.762
 118166323.618 7  92077733.39145  22486307.547                    22486316.969
 112500867.970 8  87663101.75945  21408190.242                    21408196.152
 117233785.024 7  91351103.65944  22308839.234                    22308849.113
 125439831.372 6  97745365.319 6  23870407.945                    23870417.090
 11  8  3  0 11 30.0000000  0  8G28G09G17G04G27G02G10G12
 118922595.954 7  92667045.51544  22630217.938                    22630226.742
 116183558.796 7  90532727.69244  22109002.680                    22109011.324
 114875912.029 7  89513796.690 7  21860138.930                    21860146.820
 105063029.390 8  81867415.64146  19992808.398                    19992816.668
 118187707.883 7  92094396.42745  22490376.477                    22490385.656
 112445098.174 8  87619644.82046  21397577.164                    21397583.953
 117152322.290 7  91287626.28044  22293337.156                    22293347.027
 125343613.848 6  97670390.684 6  23852098.359                    23852107.020
 11  8  3  0 12  0.0000000  0  8G28G09G17G04G27G02G10G12
 118997615.803 7  92725502.46244  22644494.023                    22644502.941
 116199267.251 7  90544968.02644  22111992.172                    22112000.863
 114912309.012 7  89542157.955 7  21867065.008                    21867072.895
 105088606.333 8  81887345.73446  19997675.469                    19997683.906
 118209531.460 7  92111401.77444  22494529.977                    22494538.461
 112389688.513 7  87576468.50646  21387033.406                    21387039.516
 117071140.798 7  91224368.05244  22277889.117                    22277898.141
 125247450.813 6  97595458.525 6  23833797.891                    23833807.949
 11  8  3  0 12 30.0000000  0  8G28G09G17G04G27G02G10G12
 119072979.004 7  92784226.97544  22658834.836                    22658843.813
 116215580.482 7  90557679.62045  22115096.156                    22115104.871
 114948788.316 7  89570583.377 7  21874006.672                    21874014.621
 105114676.733 8  81907660.33746  20002636.578                    20002644.258
 118231793.214 7  92128748.57744  22498765.344                    22498774.656
 112334639.750 7  87533573.41146  21376557.602                    21376563.969
 116990243.887 7  91161331.59544  22262494.781                    22262504.262
 125151344.728 6  97520570.767 6  23815509.266                    23815519.570
 11  8  3  0 13  0.0000000  0  8G28G09G17G04G27G02G10G12
 119148684.357 7  92843218.07844  22673241.430                    22673249.969
 116232496.565 7  90570860.97545  22118315.523                    22118324.238
 114985350.060 7  89599073.034 7  21880964.438                    21880972.004
 105141238.435 8  81928357.77546  20007691.133                    20007699.008
 118254491.450 7  92146435.48344  22503085.578                    22503094.609
 112279951.977 7  87490959.60346  21366150.758                    21366157.820
 116909634.732 7  91098519.34744  22247155.305                    22247164.660
 125055297.448 6  97445728.798 6  23797233.703                    23797242.047
 11  8  3  0 13 30.0000000  0  8G28G09G17G04G27G02G10G12
 119224731.200 7  92902475.26944  22687712.602                    22687721.809
 116250014.196 7  90584511.05545  22121648.805                    22121657.816
 115021994.765 7  89627627.331 7  21887937.547                    21887945.316
 105168290.165 8  81949437.05546  20012838.781                    20012846.949
 118277624.846 7  92164461.46544  22507487.586                    22507496.418
 112225625.920 8  87448627.65546  21355813.258                    21355819.418
 116829316.845 7  91035934.07144  22231870.938                    22231880.246
 124959310.995 6  97370934.200 6  23778968.094                    23778976.102
 11  8  3  0 14  0.0000000  0  8G28G09G17G04G27G02G10G12
 119301117.980 7  92961997.35444  22702248.906                    22702257.246
 116268131.907 7  90598628.74945  22125096.773                    22125105.586
 115058722.195 7  89656246.083 7  21894926.281                    21894934.754
 105195829.637 8  81970896.39646  20018079.719                    20018087.645
 118301191.525 7  92182825.08845  22511972.547                    22511981.055
 112171661.948 8  87406577.84846  21345544.219                    21345550.770
 116749293.357 7  90973578.20644  22216643.789                    22216652.621
 124863387.445 6  97296188.627 6  23760713.258                    23760722.566
 11  8  3  0 14 30.0000000  0  8G28G09G17G04G27G02G10G12
 119377844.076 7  93021783.86544  22716849.180                    22716857.734
 116286848.446 7  90613213.03145  22128658.313                    22128667.492
 115095533.043 7  89684929.849 7  21901931.523                    21901939.211
 105223855.247 8  81992734.53846  20023412.703                    20023420.848
 118325190.237 7  92201525.35344  22516539.039                    22516547.840
 112118060.677 8  87364810.65946  21335344.500                    21335350.598
 116669567.989 7  90911454.62544  22201472.078                    22201481.156
 124767528.968 7  97221493.761 6  23742471.969                    23742481.410
 11  8  3  0 15  0.0000000  0  8G28G09G17G04G27G02G10G12
 119454907.961 7  93081833.56544  22731514.063                    22731522.254
 116306161.512 7  90628262.16445  22132333.563                    22132341.945
 115132426.661 7  89713678.114 7  21908952.391                    21908959.434
 105252364.611 8  82014949.63946  20028837.664                    20028845.977
 118349618.847 7  92220560.61044  22521187.453                    22521196.301
 112064821.819 8  87323325.88146  21325213.023                    21325219.582
 116590143.028 7  90849565.12145  22186357.625                    22186367.254
 124671737.249 6  97146850.879 6  23724243.773                    23724252.461
 11  8  3  0 15 30.0000000  0  8G28G09G17G04G27G02G10G12
 119532309.459 7  93142146.34844  22746242.531                    22746251.793
 116326070.516 7  90643775.64345  22136122.086                    22136130.691
 115169404.080 7  89742491.658 7  21915989.055                    21915996.613
 105281356.694 8  82037540.88246  20034355.039                    20034362.992
 118374476.946 7  92239930.51144  22525918.164                    22525927.055
 112011946.874 8  87282124.66546  21315151.570                    21315157.832
 116511022.878 7  90787913.15144  22171302.008                    22171310.801
 124576015.073 7  97072262.204 6  23706028.594                    23706037.012
 11  8  3  0 16  0.0000000  0  8G28G09G17G04G27G02G10G12
 119610046.868 7  93202720.87944  22761036.063                    22761044.324
 116346573.211 7  90659751.74045  22140023.742                    22140032.434
 115206465.270 7  89771370.487 7  21923041.094                    21923048.910
 105310829.338 8  82060506.58646  20039963.430                    20039971.371
 118399762.304 7  92259633.36644  22530729.711                    22530738.598
 111959435.557 8  87241206.79746  21305158.758                    21305165.348
 116432209.972 7  90726500.56744  22156304.109                    22156313.203
 124480364.271 6  96997729.115 6  23687826.938                    23687835.410
 11  8  3  0 16 30.0000000  0  8G28G09G17G04G27G02G10G12
 119688119.146 7  93263556.33644  22775893.172                    22775901.762
 116367668.226 7  90676189.39145  22144037.672                    22144046.676
 115243610.389 7  89800314.714 7  21930109.664                    21930117.293
 105340780.492 8  82083845.15846  20045662.797                    20045670.723
 118425473.463 7  92279667.99244  22535622.438                    22535631.070
 111907288.495 8  87200572.75246  21295235.391                    21295242.066
 116353708.110 7  90665330.36444  22141365.977                    22141374.738
 124384787.026 6  96923253.375 6  23669639.367                    23669647.660
 11  8  3  0 17  0.0000000  0  8G28G09G17G04G27G02G10G12
 119766525.365 7  93324652.01444  22790812.828                    22790821.738
 116389353.698 7  90693087.13045  22148164.258                    22148172.926
 115280839.789 7  89829324.605 7  21937194.406                    21937202.227
 105371208.399 8  82107555.21346  20051453.188                    20051461.164
 118451608.613 7  92300033.02544  22540595.938                    22540604.438
 111855505.992 8  87160222.78946  21285381.594                    21285387.598
 116275520.421 7  90604404.96844  22126486.969                    22126496.074
 124289285.090 6  96848836.319 6  23651465.461                    23651474.254
 11  8  3  0 17 30.0000000  0  8G28G09G17G04G27G02G10G12
 119845264.518 7  93386007.11944  22805796.523                    22805805.816
 116411628.286 7  90710443.93645  22152402.938                    22152412.477
 115318153.711 7  89858400.370 7  21944294.289                    21944302.410
 105402111.047 8  82131635.20946  20057333.508                    20057341.344
 118478166.474 7  92320727.42244  22545649.359                    22545658.508
 111804088.737 8  87120157.43746  21275596.930                    21275603.332
 116197650.302 7  90543727.02145  22111668.422                    22111677.309
 124193861.010 6  96774479.946 6  23633306.531                    23633315.750
 11  8  3  0 18  0.0000000  0  8G28G09G17G04G27G02G10G12
 119924335.112 7  93447620.49844  22820843.195                    22820852.523
 116434489.880 7  90728258.13844  22156753.313                    22156762.340
 115355552.049 7  89887541.921 7  21951411.578                    21951418.926
 105433486.465 8  82156083.58746  20063304.117                    20063311.941
 118505145.209 7  92341749.77744  22550783.078                    22550792.520
 111753036.638 8  87080376.61046  21265881.680                    21265888.535
 116120100.608 7  90483298.76544  22096910.953                    22096919.867
 124098516.766 6  96700185.788 6  23615163.656                    23615172.688
 11  8  3  0 18 30.0000000  0  8G28G09G17G04G27G02G10G12
 120003736.448 7  93509491.59344  22835952.617                    22835961.605
 116457937.128 7  90746528.68344  22161215.109                    22161224.617
 115393035.757 7  89916749.981 7  21958544.383                    21958551.879
 105465333.130 8  82180899.17646  20069364.258                    20069372.574
 118532543.524 7  92363099.07944  22555997.102                    22556006.211
 111702350.669 8  87040881.08146  21256237.203                    21256243.512
 116042875.038 7  90423123.05844  22082215.680                    22082224.668
 124003255.008 6  96625955.884 6  23597035.719                    23597044.867
 11  8  3  0 19  0.0000000  0  8G28G09G17G04G27G02G10G12
 120083467.071 7  93571619.27844  22851125.414                    22851134.219
 116481967.782 7  90765253.84644  22165787.938                    22165797.016
 115430604.516 7  89946024.329 7  21965693.430                    21965701.277
 105497648.587 8  82206080.05246  20075513.945                    20075521.934
 118560359.165 7  92384773.56345  22561290.242                    22561299.883
 111652030.512 8  87001670.60746  21246661.328                    21246667.535
 115965976.564 7  90363202.23944  22067582.398                    22067591.414
 123908077.198 6  96551791.433 6  23578923.219                    23578932.988
 11  8  3  0 19 30.0000000  0  8G28G09G17G04G27G02G10G12
 120163526.058 7  93634002.83344  22866359.445                    22866368.883
 116506580.411 7  90784432.47144  22170471.875                    22170481.102
 115468258.877 7  89975365.368 7  21972859.461                    21972867.148
 105530431.171 8  82231624.93146  20081751.906                    20081759.977
 118588590.615 7  92406772.04644  22566662.398                    22566671.551
 111602076.715 8  86962745.61346  21237155.125                    21237161.879
 115889408.761 7  90303539.06444  22053012.156                    22053020.766
 123812985.974 7  96477694.444 6  23560828.250                    23560837.500
 11  8  3  0 20  0.0000000  0  8G28G09G17G04G27G02G10G12
 120243912.137 7  93696641.27944  22881656.563                    22881666.348
 116531772.989 7  90804063.02145  22175265.633                    22175275.461
 115505999.091 7  90004773.305 7  21980041.273                    21980048.758
 105563678.744 8  82257532.13246  20088078.609                    20088086.762
 118617236.193 7  92429093.24544  22572113.750                    22572122.758
 111552489.656 8  86924106.38146  21227719.344                    21227725.336
 115813174.805 7  90244136.05745  22038505.469                    22038513.969
 123717983.502 7  96403666.587 6  23542750.445                    23542758.738
 11  8  3  0 20 30.0000000  0  8G28G09G17G04G27G02G10G12
 120324623.553 7  93759533.23044  22897015.531                    22897025.137
 116557543.425 7  90824143.82044  22180169.875                    22180178.918
 115543824.956 7  90034248.004 7  21987239.148                    21987246.680
 105597389.006 8  82283799.87246  20094493.680                    20094501.492
 118646293.828 7  92451735.51744  22577643.547                    22577653.207
 111503268.902 8  86885752.57846  21218352.820                    21218359.289
 115737277.237 7  90184995.15744  22024062.273                    22024071.598
 123623071.374 7  96329709.114 6  23524689.805                    23524697.594
 11  8  3  0 21  0.0000000  0  8G28G09G17G04G27G02G10G12
 120405659.979 7  93822678.43344  22912436.547                    22912445.664
 116583890.625 7  90844674.08944  22185183.680                    22185192.773
 115581737.580 7  90063790.301 7  21994453.688                    21994461.336
 105631560.662 8  82310427.13946  20100996.430                    20101004.348
 118675762.364 7  92474697.97044  22583251.328                    22583260.578
 111454415.851 8  86847685.29946  21209056.555                    21209062.707
 115661720.054 7  90126119.50145  22009684.859                    22009692.938
 123528252.781 7  96255824.564 6  23506645.250                    23506653.930
 11  8  3  0 21 30.0000000  0  9G28G09G17G04G27G02G10G12G05
 120487019.713 7  93886075.53644  22927919.281                    22927928.250
 116610812.016 7  90865651.75244  22190306.695                    22190315.984
 115619736.666 7  90093399.969 7  22001684.281                    22001692.070
 105666191.129 8  82337411.92046  20107586.203                    20107594.445
 118705639.603 7  92497978.91244  22588936.078                    22588945.566
 111405930.057 8  86809904.18746  21199829.625                    21199835.918
 115586505.915 7  90067511.14645  21995371.570                    21995380.340
 123433529.180 6  96182014.048 6  23488620.414                    23488629.121
 129809372.21416 101150214.42916  24701908.258                    24701921.027
 11  8  3  0 22  0.0000000  0  9G28G09G17G04G27G02G10G12G05
 120568701.636 7  93949723.73044  22943462.445                    22943471.508
 116638305.890 7  90887075.50544  22195538.180                    22195547.539
 115657822.545 7  90123077.267 7  22008932.039                    22008939.824
 105701278.615 8  82364752.82446  20114263.336                    20114271.313
 118735924.045 7  92521577.12344  22594699.156                    22594708.383
 111357812.025 8  86772409.65846  21190673.219                    21190679.742
 115511638.027 7  90009172.60545  21981124.445                    21981132.996
 123338903.001 6  96108279.440 6  23470612.992                    23470621.785
 129705176.310 6 101069023.097 6  24682079.781                    24682093.855
 11  8  3  0 22 30.0000000  0  9G28G09G17G04G27G02G10G12G05
 120650704.375 6  94013621.87544  22959067.578                    22959076.332
 116666370.165 7  90908943.73745  22200878.852                    22200888.371
 115695995.428 7  90152822.367 7  22016195.867                    22016203.969
 105736820.942 8  82392448.14646  20121026.938                    20121034.930
 118766613.485 7  92545490.91044  22600539.852                    22600548.797
 111310061.855 8  86735201.75546  21181586.797                    21181592.672
 115437119.868 7  89951106.56645  21966944.063                    21966953.219
 123244376.325 6  96034622.350 6  23452625.594                    23452633.434
 129600887.365 6 100987759.252 6  24662234.523                    24662247.957
 11  8  3  0 23  0.0000000  0  9G28G09G17G04G27G02G10G12G05
 120733027.171 6  94077769.41443  22974733.188                    22974741.645
 116695003.449 7  90931255.34944  22206328.211                    22206336.816
 115734256.170 7  90182635.923 7  22023476.320                    22023484.211
 105772816.505 8  82420496.64746  20127876.523                    20127884.535
 118797706.677 7  92569719.33544  22606456.469                    22606465.902
 111262680.124 8  86698280.95046  21172570.250                    21172576.426
 115362954.951 7  89893315.79945  21952830.813                    21952839.629
 123149951.693 6  95961044.774 6  23434657.672                    23434665.082
 129496508.317 6 100906425.205 6  24642371.750                    24642385.395
 11  8  3  0 23 30.0000000  0  9G28G09G17G04G27G02G10G12G05
 120815668.382 7  94142165.09443  22990459.398                    22990468.133
 116724203.307 7  90954008.43944  22211884.461                    22211893.516
 115772604.755 7  90212517.933 7  22030774.195                    22030781.883
 105809263.096 8  82448896.58146  20134811.695                    20134820.016
 118829201.870 7  92594260.99944  22612449.375                    22612458.840
 111215666.974 8  86661647.35346  21163624.164                    21163629.770
 115289146.251 7  89835802.59245  21938785.250                    21938794.715
 123055631.393 6  95887548.489 6  23416708.570                    23416716.867
 129392041.669 6 100825022.882 6  24622492.008                    24622505.590
 11  8  3  0 24  0.0000000  0  9G28G09G17G04G27G02G10G12G05
 120898626.450 7  94206807.66043  23006245.406                    23006254.621
 116753967.702 7  90977201.42744  22217548.211                    22217557.555
 115811041.184 7  90242468.388 7  22038088.633                    22038095.770
 105846158.156 8  82477645.97846  20141832.844                    20141840.840
 118861097.052 7  92619114.32344  22618518.953                    22618528.305
 111169022.090 8  86625300.71946  21154747.938                    21154754.027
 115215696.603 7  89778569.14845  21924808.477                    21924817.273
 122961417.266 6  95814134.953 6  23398780.164                    23398788.637
 129287489.627 6 100743554.060 6  24602596.344                    24602609.703
 11  8  3  0 24 30.0000000  0  9G28G09G17G04G27G02G10G12G05
 120981900.676 7  94271696.58043  23022092.391                    23022101.660
 116784294.823 7  91000832.90844  22223319.188                    22223328.527
 115849566.218 7  90272487.871 7  22045419.492                    22045427.137
 105883500.135 8  82506743.62246  20148938.563                    20148946.465
 118893390.488 7  92644278.00044  22624664.586                    22624673.688
 111122746.440 8  86589241.79946  21145941.375                    21145947.426
 115142609.322 7  89721618.08545  21910900.414                    21910909.168
 122867312.239 7  95740806.425 6  23380872.352                    23380881.328
 129182855.118 6 100662020.942 6  24582685.219                    24582698.008
 11  8  3  0 25  0.0000000  0  9G28G09G17G04G27G02G10G12G05
 121065489.415 6  94336830.58243  23037998.070                    23038007.828
 116815182.372 7  91024901.09444  22229197.148                    22229206.266
 115888180.087 7  90302576.570 7  22052767.539                    22052775.508
 105921286.570 8  82536187.60146  20156129.242                    20156136.926
 118926079.930 7  92669750.23344  22630885.234                    22630894.633
 111076839.741 8  86553470.37646  21137205.695                    21137211.980
 115069887.695 7  89664951.93645  21897061.656                    21897070.973
 122773318.084 7  95667564.290 6  23362986.320                    23362994.406
 129078140.407 6 100580425.345 5  24562757.227                    24562771.082
 11  8  3  0 25 30.0000000  0  9G28G09G17G04G27G02G10G12G05
 121149391.301 7  94402208.59644  23053964.531                    23053974.070
 116846628.367 7  91049404.45044  22235181.688                    22235190.461
 115926883.015 7  90332734.672 7  22060132.781                    22060140.383
 105959515.603 8  82565976.45646  20163404.133                    20163411.852
 118959163.463 7  92695529.55644  22637180.398                    22637190.211
 111031302.112 8  86517986.52746  21128539.883                    21128546.766
 114997534.979 7  89608573.25645  21883293.758                    21883302.309
 122679437.022 7  95594410.274 6  23345120.805                    23345129.063
 128973348.134 6 100498769.283 5  24542816.133                    24542829.445
 11  8  3  0 26  0.0000000  0  9G28G09G17G04G27G02G10G12G05
 121233605.114 6  94467829.67143  23069989.781                    23069999.258
 116878630.767 7  91074341.34044  22241271.148                    22241279.895
 115965675.470 7  90362962.541 7  22067514.508                    22067522.176
 105998185.102 8  82596108.53346  20170762.758                    20170770.762
 118992639.535 7  92721614.75444  22643551.086                    22643560.953
 110986133.810 8  86482790.48546  21119944.945                    21119950.879
 114925554.001 7  89552484.24945  21869595.805                    21869604.332
 122585671.581 7  95521346.337 6  23327277.656                    23327286.195
 128868480.941 6 100417054.895 5  24522860.016                    24522873.461
 11  8  3  0 26 30.0000000  0  9G28G09G17G04G27G02G10G12G05
 121318129.301 6  94533692.56344  23086074.484                    23086083.953
 116911186.932 7  91099709.74944  22247466.211                    22247474.746
 116004557.484 7  90393260.191 7  22074913.070                    22074921.102
 106037292.597 8  82626581.89246  20178204.516                    20178212.590
 119026505.798 7  92748003.99444  22649995.820                    22650005.074
 110941334.508 8  86447881.95646  21111419.930                    21111425.996
 114853947.815 7  89496687.28145  21855969.484                    21855978.480
 122492023.633 7  95448373.960 6  23309457.234                    23309465.578
 128763541.323 6 100335284.045 6  24502890.484                    24502904.348
 11  8  3  0 27  0.0000000  0  9G28G09G17G04G27G02G10G12G05
 121402963.279 6  94599796.89043  23102217.695                    23102227.293
 116944295.582 7  91125508.67044  22253766.719                    22253775.758
 116043530.007 7  90423628.371 7  22082329.461                    22082337.551
 106076836.882 8  82657395.61246  20185729.797                    20185737.688
 119060761.055 7  92774696.32944  22656514.414                    22656523.484
 110896905.517 8  86413261.99146  21102965.570                    21102971.559
 114782720.347 7  89441185.40145  21842415.484                    21842424.391
 122398496.215 7  95375495.502 6  23291660.008                    23291667.891
 128658532.358 6 100253459.227 6  24482907.297                    24482921.723
 11  8  3  0 27 30.0000000  0  9G28G09G17G04G27G02G10G12G05
 121488105.054 6  94666141.02843  23118420.445                    23118428.992
 116977953.842 7  91151735.84344  22260171.375                    22260180.828
 116082592.978 7  90454067.022 7  22089762.844                    22089771.031
 106116815.139 8  82688547.48746  20193336.867                    20193345.250
 119095402.794 7  92801689.85544  22663106.242                    22663115.813
 110852846.267 8  86378930.13246  21094581.414                    21094587.098
 114711873.875 7  89385980.41945  21828933.875                    21828942.551
 122305091.219 7  95302712.449 6  23273884.891                    23273893.855
 128553456.073 6 100171581.935 6  24462912.164                    24462925.422
 11  8  3  0 28  0.0000000  0  9G28G09G17G04G27G02G10G12G05
 121573552.983 7  94732723.74243  23134679.969                    23134689.777
 117012159.565 7  91178389.62144  22266680.516                    22266690.168
 116121746.697 7  90484576.382 7  22097213.859                    22097221.969
 106157225.069 8  82720035.72846  20201026.922                    20201034.766
 119130428.854 7  92828982.82244  22669771.359                    22669781.344
 110809156.553 8  86344886.22346  21086267.336                    21086273.230
 114641411.411 7  89331074.65045  21815525.430                    21815534.008
 122211810.973 7  95230026.599 6  23256133.820                    23256142.188
 128448314.819 6 100089654.052 6  24442904.695                    24442918.047
 11  8  3  0 28 30.0000000  0  9G28G09G17G04G27G02G10G12G05
 121659306.377 6  94799544.46443  23150999.125                    23151007.949
 117046911.032 7  91205468.64044  22273293.828                    22273302.508
 116160992.027 7  90515157.133 7  22104681.773                    22104690.145
 106198065.086 8  82751859.10146  20208798.617                    20208806.398
 119165837.857 7  92856574.20844  22676510.164                    22676519.578
 110765837.019 8  86311130.77446  21078023.805                    21078029.793
 114571336.797 7  89276471.11445  21802190.438                    21802199.242
 122118657.881 7  95157439.803 6  23238408.531                    23238415.645
 128343112.054 6 100007678.220 6  24422884.969                    24422897.559
 11  8  3  0 29  0.0000000  0  9G28G09G17G04G27G02G10G12G05
 121745363.619 7  94866601.96544  23167374.578                    23167384.832
 117082206.048 7  91232971.22444  22280010.297                    22280019.262
 116200329.069 7  90545809.331 7  22112167.211                    22112175.570
 106239333.092 8  82784015.97246  20216651.461                    20216659.387
 119201627.711 7  92884462.33744  22683320.266                    22683330.680
 110722887.813 8  86277663.88546  21069850.867                    21069856.715
 114501653.018 7  89222172.13345  21788929.984                    21788938.941
 122025634.429 7  95084954.031 6  23220705.984                    23220713.996
 128237850.261 6  99925656.382 6  24402854.555                    24402866.691
 11  8  3  0 29 30.0000000  0  9G28G09G17G04G27G02G10G12G05
 121831722.996 6  94933894.87343  23183808.836                    23183818.133
 117118041.605 7  91260894.98744  22286829.570                    22286838.531
 116239757.923 7  90576533.085 7  22119670.547                    22119678.547
 106281026.186 8  82816504.08246  20224585.789                    20224593.730
 119237795.860 7  92912645.24944  22690203.477                    22690212.457
 110680308.308 8  86244485.07546  21061748.180                    21061754.230
 114432362.836 7  89168179.83445  21775743.844                    21775753.250
 121932742.626 7  95012570.870 6  23203028.984                    23203037.848
 128132531.728 6  99843590.344 6  24382812.266                    24382825.047
 11  8  3  0 30  0.0000000  0  9G28G09G17G04G27G02G10G12G05
 121918382.836 6  95001421.91743  23200299.609                    23200308.988
 117154415.813 7  91289238.49744  22293751.367                    22293759.766
 116279279.617 6  90607329.178 7  22127191.391                    22127199.629
 106323142.471 7  82849321.94446  20232599.977                    20232607.746
 119274340.384 6  92941121.43344  22697157.164                    22697166.766
 110638098.679 8  86211594.49046  21053716.227                    21053722.227
 114363469.196 7  89114496.53345  21762634.063                    21762643.313
 121839984.568 7  94940291.918 6  23185377.945                    23185385.930
 128027158.933 6  99761482.011 6  24362760.375                    24362772.453
 11  8  3  0 30 30.0000000  0  9G28G09G17G04G27G02G10G12G05
 122005342.390 6  95069182.52044  23216847.258                    23216856.574
 117191326.579 7  91318000.09544  22300775.297                    22300784.004
 116318893.891 7  90638197.429 7  22134729.992                    22134737.281
 106365680.080 8  82882468.12046  20240694.742                    20240702.660
 119311259.631 7  92969889.62544  22704183.227                    22704191.883
 110596259.138 8  86178992.27646  21045754.430                    21045760.098
 114294975.401 7  89061124.80545  21749600.102                    21749609.355
 121747363.109 7  94868119.369 6  23167753.328                    23167760.598
 127921734.733 6  99679333.577 6  24342698.414                    24342710.824
 11  8  3  0 31  0.0000000  0  9G28G09G17G04G27G02G10G12G05
 122092599.665 6  95137175.08143  23233451.875                    23233461.453
 117228770.939 7  91347177.46744  22307900.773                    22307909.859
 116358600.786 7  90669137.852 7  22142286.094                    22142293.590
 106408636.346 8  82915940.52546  20248869.055                    20248876.867
 119348551.379 7  92998948.07144  22711279.156                    22711288.543
 110554789.753 8  86146678.49046  21037862.609                    21037868.859
 114226884.437 7  89008066.97945  21736643.289                    21736651.988
 121654880.447 7  94796054.997 6  23150153.977                    23150161.469
 127816261.859 6  99597147.254 6  24322627.242                    24322639.563
 11  8  3  0 31 30.0000000  0  9G28G09G17G04G27G02G10G12G05
 122180153.777 6  95205398.96443  23250113.773                    23250122.910
 117266747.205 7  91376769.33744  22315127.430                    22315135.938
 116398401.591 7  90700151.439 7  22149859.508                    22149867.770
 106452009.359 8  82949737.65746  20257122.719                    20257130.742
 119386213.931 7  93028295.45744  22718445.961                    22718455.324
 110513690.716 8  86114653.28346  21030041.789                    21030048.020
 114159199.665 7  88955325.66245  21723762.773                    21723771.660
 121562539.254 7  94724100.887 6  23132582.297                    23132590.648
 127710743.018 6  99514925.100 6  24302546.984                    24302560.234
 11  8  3  0 32  0.0000000  0  9G28G09G17G04G27G02G10G12G05
 122268002.622 6  95273852.50343  23266830.414                    23266839.359
 117305252.410 7  91406773.34544  22322455.031                    22322463.953
 116438296.078 7  90731238.023 7  22157451.078                    22157459.684
 106495796.735 8  82983857.67346  20265455.328                    20265463.305
 119424244.673 7  93057929.73844  22725683.516                    22725692.844
 110472961.592 8  86082916.33046  21022291.383                    21022297.371
 114091923.407 7  88902902.66445  21710960.656                    21710969.867
 121470341.286 7  94652258.390 6  23115037.141                    23115045.957
 127605180.356 6  99432668.799 6  24282459.789                    24282472.035
 11  8  3  0 32 30.0000000  0  9G28G09G17G04G27G02G10G12G05
 122356144.900 6  95342534.67443  23283603.797                    23283612.637
 117344284.622 7  91437188.02344  22329882.070                    22329891.027
 116478285.015 7  90762398.213 7  22165060.922                    22165069.117
 106539996.372 8  83018298.92946  20273865.969                    20273874.184
 119462641.863 7  93087849.58644  22732989.836                    22732999.449
 110432602.607 8  86051467.79346  21014611.180                    21014617.086
 114025059.189 7  88850800.73045  21698236.898                    21698246.242
 121378289.243 7  94580529.583 7  23097520.930                    23097528.574
 127499577.215 6  99350380.960 6  24262362.789                    24262375.605
 11  8  3  0 33  0.0000000  0  9G28G09G17G04G27G02G10G12G05
 122444579.385 6  95411444.57643  23300431.641                    23300441.285
 117383841.365 7  91468011.41444  22337410.227                    22337418.988
 116518368.820 7  90793632.328 7  22172689.055                    22172696.461
 106584606.196 8  83053059.81746  20282355.055                    20282363.309
 119501403.466 7  93118053.36944  22740366.406                    22740375.203
 110392613.928 8  86020307.80646  21007001.844                    21007007.617
 113958610.084 7  88799022.26845  21685591.859                    21685601.137
 121286385.476 7  94508916.313 6  23080031.484                    23080039.625
 127393936.115 6  99268063.511 6  24242259.695                    24242272.324
 11  8  3  0 33 30.0000000  0  9G28G09G17G04G27G02G10G12G05
 122533304.538 6  95480580.96143  23317315.484                    23317325.578
 117423920.223 7  91499241.64044  22345036.859                    22345044.738
 116558548.172 7  90824940.883 7  22180334.367                    22180342.609
 106629623.929 8  83088138.55546  20290921.703                    20290929.766
 119540527.341 7  93148539.43344  22747812.047                    22747820.895
 110352995.458 8  85989436.30046  20999462.125                    20999468.270
 113892579.003 7  88747569.53645  21673026.820                    21673035.508
 121194632.696 7  94437420.710 7  23062571.680                    23062579.703
 127288259.653 6  99185718.529 6  24222150.805                    24222162.742
 11  8  3  0 34  0.0000000  0  9G28G09G17G04G27G02G10G12G05
 122622318.488 6  95549942.37243  23334254.898                    23334265.043
 117464518.045 7  91530876.26644  22352762.055                    22352771.391
 116598822.788 7  90856323.684 7  22187999.219                    22188006.328
 106675047.069 8  83123533.19646  20299565.281                    20299573.285
 119580010.738 7  93179305.66544  22755325.383                    22755333.875
 110313746.724 8  85958852.88546  20991993.563                    20991999.230
 113826968.632 7  88696444.62645  21660541.422                    21660550.270
 121103032.705 7  94366044.171 6  23045140.211                    23045148.844
 127182550.359 6  99103347.943 5  24202034.531                    24202046.434
 11  8  3  0 34 30.0000000  0  9G28G09G17G04G27G02G10G12G05
 122711620.229 6  95619528.06843  23351248.156                    23351257.395
 117505633.317 7  91562914.07344  22360586.398                    22360594.926
 116639193.916 7  90887781.685 7  22195680.648                    22195688.910
 106720873.947 8  83159242.44346  20308285.602                    20308294.172
 119619852.218 7  93210350.93044  22762906.891                    22762915.477
 110274868.415 8  85928558.14046  20984595.414                    20984601.180
 113761782.389 7  88645650.20545  21648136.664                    21648145.711
 121011588.484 7  94294788.988 7  23027738.734                    23027747.680
 127076811.677 6  99020954.448 6  24181913.078                    24181924.840
 11  8  3  0 35  0.0000000  0  9G28G09G17G04G27G02G10G12G05
 122801207.417 6  95689336.17743  23368296.156                    23368305.684
 117547262.768 7  91595352.56844  22368508.195                    22368517.250
 116679661.300 7  90919314.697 7  22203381.789                    22203389.512
 106767101.506 8  83195263.90346  20317082.750                    20317090.840
 119660049.081 7  93241673.11944  22770555.984                    22770564.816
 110236359.565 8  85898551.26846  20977267.164                    20977273.203
 113697022.591 7  88595188.07645  21635813.445                    21635822.070
 120920301.905 7  94223656.674 6  23010367.719                    23010375.512
 126971045.254 6  98938539.319 6  24161786.133                    24161798.188
 11  8  3  0 35 30.0000000  0  9G28G09G17G04G27G02G10G12G05
 122891079.310 6  95759366.08543  23385398.195                    23385408.078
 117589404.598 7  91628190.30144  22376527.664                    22376536.809
 116720225.560 7  90950923.194 7  22211100.484                    22211108.887
 106813728.210 8  83231596.38846  20325955.344                    20325963.629
 119700599.724 7  93273270.97844  22778272.672                    22778281.398
 110198220.883 8  85868832.83646  20970009.930                    20970015.629
 113632692.873 7  88545061.05845  21623571.648                    21623580.664
 120829176.037 7  94152649.524 6  22993027.000                    22993034.895
 126865254.688 6  98856105.357 6  24141654.477                    24141666.180
 11  8  3  0 36  0.0000000  0  9G28G09G17G04G27G02G10G12G05
 122981233.790 6  95829616.24443  23402554.414                    23402563.621
 117632055.377 7  91661424.63144  22384643.594                    22384652.637
 116760886.866 7  90982607.313 7  22218838.211                    22218846.273
 106860751.329 8  83268237.77846  20334903.516                    20334911.469
 119741501.501 7  93305142.43944  22786056.188                    22786065.473
 110160451.587 8  85839402.25046  20962822.453                    20962828.535
 113568795.545 7  88495270.96445  21611412.727                    21611421.789
 120738212.729 7  94081769.042 6  22975717.266                    22975725.258
 126759441.959 6  98773654.132 6  24121518.992                    24121530.598
 11  8  3  0 36 30.0000000  0  9G28G09G17G04G27G02G10G12G05
 123071669.678 6  95900085.65743  23419763.430                    23419773.188
 117675213.180 7  91695054.02844  22392856.398                    22392865.648
 116801646.090 7  91014367.703 7  22226594.922                    22226602.672
 106908168.834 8  83305186.47446  20343927.078                    20343935.305
 119782752.559 7  93337286.08544  22793905.523                    22793914.719
 110123051.927 8  85810259.68946  20955705.984                    20955711.863
 113505334.111 7  88445820.54345  21599336.234                    21599345.309
 120647414.672 7  94011017.349 6  22958438.844                    22958447.148
 126653610.288 6  98691188.164 6  24101379.188                    24101391.441
 11  8  3  0 37  0.0000000  0  9G28G09G17G04G27G02G10G12G05
 123162384.830 6  95970772.67243  23437025.930                    23437035.891
 117718875.030 7  91729076.19444  22401165.430                    22401174.285
 116842503.468 7  91046204.612 7  22234369.391                    22234377.520
 106955978.160 8  83342440.49546  20353024.953                    20353032.684
 119824350.322 7  93369699.87544  22801821.984                    22801830.961
 110086021.404 8  85781404.76546  20948658.703                    20948664.617
 113442311.017 7  88396711.67245  21587343.078                    21587352.289
 120556783.899 7  93940396.026 6  22941192.258                    22941200.273
 126547761.960 6  98608709.185 6  24081237.070                    24081249.242
 11  8  3  0 37 30.0000000  0  9G28G09G17G04G27G02G10G12G05
 123253378.134 6  96041676.42743  23454341.430                    23454351.824
 117763038.816 7  91763489.47744  22409569.352                    22409578.520
 116883459.770 7  91078118.583 7  22242163.328                    22242170.980
 107004177.285 8  83379998.25346  20362197.039                    20362205.305
 119866292.990 7  93402382.41944  22809803.180                    22809812.742
 110049360.636 8  85752837.95646  20941682.703                    20941688.887
 113379729.536 7  88347946.90545  21575434.750                    21575443.277
 120466323.402 7  93869907.333 6  22923978.781                    22923986.121
 126441900.212 7  98526219.787 6  24061091.813                    24061104.625
 11  8  3  0 38  0.0000000  0  9G28G09G17G04G27G02G10G12G05
 123344647.810 6  96112795.54643  23471709.852                    23471719.586
 117807701.901 6  91798291.81844  22418068.500                    22418077.910
 116924515.211 7  91110109.808 7  22249975.992                    22249984.258
 107052764.133 8  83417858.12946  20371442.367                    20371451.035
 119908578.354 7  93435332.01144  22817849.367                    22817859.379
 110013069.077 8  85724558.84646  20934776.297                    20934782.523
 113317592.504 7  88299528.47945  21563609.750                    21563619.297
 120376035.489 7  93799553.119 7  22906797.656                    22906805.707
 126336027.898 6  98443722.118 6  24040945.250                    24040956.555
 11  8  3  0 38 30.0000000  0  9G28G09G17G04G27G02G10G12G05
 123436192.507 6  96184128.98443  23489130.688                    23489140.047
 117852861.434 7  91833481.01344  22426661.516                    22426670.816
 116965670.300 7  91142178.697 7  22257807.734                    22257815.434
 107101736.268 8  83456018.23646  20380761.422                    20380769.418
 119951203.974 7  93468546.73744  22825960.742                    22825970.645
 109977146.578 8  85696567.31146  20927940.703                    20927946.613
 113255902.468 7  88251458.36045  21551870.234                    21551878.965
 120285922.721 7  93729335.402 7  22889648.930                    22889657.719
 126230147.432 6  98361218.103 6  24020796.953                    24020808.184
 11  8  3  0 39  0.0000000  0  9G28G09G17G04G27G02G10G12G05
 123528010.039 6  96255674.97843  23506603.305                    23506612.578
 117898514.533 7  91869054.80244  22435349.078                    22435358.367
 117006925.290 7  91174325.401 7  22265658.602                    22265666.246
 107151090.882 8  83494476.37846  20390153.813                    20390161.563
 119994167.371 7  93502024.66044  22834136.234                    22834146.633
 109941592.449 8  85668862.82046  20921174.875                    20921181.266
 113194662.289 7  88203738.77945  21540216.844                    21540226.031
 120195986.670 7  93659255.405 7  22872534.461                    22872543.555
 126124261.658 6  98278709.967 6  24000646.453                    24000659.000
 11  8  3  0 39 30.0000000  0  9G28G09G17G04G27G02G10G12G05
 123620099.013 6  96327432.51243  23524126.617                    23524136.449
 117944658.396 7  91905011.00944  22444130.555                    22444139.762
 117048280.518 7  91206550.234 7  22273528.047                    22273535.688
 107200825.907 8  83533230.94046  20399617.789                    20399625.758
 120037466.160 7  93535763.92344  22842375.508                    22842385.609
 109906406.727 8  85641445.40046  20914479.313                    20914484.934
 113133874.837 7  88156371.96845  21528649.445                    21528657.953
 120106231.007 7  93589315.946 7  22855455.445                    22855463.457
 126018372.950 6  98196199.551 6  23980496.586                    23980508.684
 11  8  3  0 40  0.0000000  0  9G28G09G17G04G27G02G10G12G05
 123712457.790 6  96399400.29143  23541702.047                    23541711.992
 117991290.732 7  91941347.82945  22453003.836                    22453013.102
 117089736.647 7  91238853.686 7  22281416.578                    22281424.750
 107250939.325 8  83572280.34946  20409153.672                    20409162.039
 120081098.377 7  93569762.98844  22850679.359                    22850688.445
 109871589.422 8  85614315.06446  20907853.883                    20907859.531
 113073542.995 7  88109360.18245  21517169.039                    21517177.684
 120016657.526 7  93519518.439 7  22838409.734                    22838417.902
 125912484.430 6  98113689.271 6  23960346.680                    23960358.258
 11  8  3  0 40 30.0000000  0  9G28G09G17G04G27G02G10G12G05
 123805084.674 6  96471576.98743  23559328.773                    23559338.766
 118038408.912 7  91978063.24044  22461970.313                    22461979.988
 117131294.311 7  91271236.263 7  22289325.211                    22289332.969
 107301428.769 8  83611622.76646  20418761.961                    20418769.773
 120125061.834 7  93604020.18344  22859044.969                    22859054.641
 109837140.539 8  85587471.80646  20901298.156                    20901303.922
 113013670.006 7  88062705.93945  21505775.367                    21505783.898
 119927268.764 7  93449864.897 7  22821399.656                    22821407.902
 125806599.368 6  98031181.680 6  23940197.203                    23940208.508
 11  8  3  0 41  0.0000000  0  9G28G09G17G04G27G02G10G12G05
 123897978.211 6  96543961.45243  23577005.555                    23577015.602
 118086010.053 6  92015154.97944  22471028.789                    22471038.500
 117172953.878 7  91303698.243 7  22297252.352                    22297260.141
 107352291.909 8  83651256.37646  20428440.563                    20428448.980
 120169354.130 6  93638533.61144  22867474.180                    22867483.352
 109803059.659 8  85560915.29446  20894812.773                    20894818.520
 112954258.140 7  88016411.01445  21494469.703                    21494478.066
 119838067.367 7  93380357.342 7  22804425.008                    22804433.820
 125700719.903 6  97948678.430 6  23920048.875                    23920060.352
 11  8  3  0 41 30.0000000  0  9G28G09G17G04G27G02G10G12G05
 123991136.291 6  96616552.07243  23594732.789                    23594743.176
 118134091.201 7  92052620.74544  22480178.523                    22480187.922
 117214715.929 7  91336240.082 7  22305199.781                    22305207.586
 107403526.209 8  83691179.20146  20438190.125                    20438198.414
 120213972.711 7  93673301.27644  22875964.219                    22875973.793
 109769346.342 8  85534645.20446  20888397.219                    20888403.262
 112895310.201 7  87970477.59245  21483252.133                    21483260.578
 119749055.658 7  93310997.607 7  22787486.734                    22787494.898
 125594848.636 6  97866181.582 6  23899900.930                    23899913.488
 11  8  3  0 42  0.0000000  0  9G28G09G17G04G27G02G10G12G05
 124084557.407 6  96689347.61543  23612510.313                    23612520.516
 118182649.863 7  92090458.59844  22489419.273                    22489428.309
 117256580.467 7  91368861.761 7  22313165.828                    22313174.438
 107455129.273 8  83731389.37446  20448010.102                    20448018.523
 120258915.499 7  93708321.56444  22884515.836                    22884526.527
 109736000.270 8  85508661.27146  20882051.859                    20882057.953
 112836828.805 7  87924907.70745  21472123.055                    21472132.129
 119660236.004 7  93241787.506 6  22770584.961                    22770593.082
 125488988.587 6  97783693.456 6  23879757.281                    23879768.125
 11  8  3  0 42 30.0000000  0  9G28G09G17G04G27G02G10G12G05
 124178240.113 6  96762347.03343  23630338.055                    23630348.016
 118231683.523 7  92128666.60044  22498749.453                    22498758.855
 117298548.707 7  91401564.272 7  22321152.539                    22321160.480
 107507099.357 8  83771885.53146  20457899.516                    20457907.789
 120304180.308 7  93743592.78844  22893130.266                    22893140.297
 109703021.607 8  85482963.63546  20875776.273                    20875782.160
 112778817.214 7  87879703.90345  21461083.555                    21461092.633
 119571611.382 7  93172729.387 7  22753719.859                    22753728.172
 125383143.134 6  97701216.699 6  23859615.852                    23859626.266
 11  8  3  0 43  0.0000000  0  9G28G09G17G04G27G02G10G12G05
 124272182.439 6  96835548.71443  23648214.523                    23648224.902
 118281188.914 6  92167242.17044  22508170.172                    22508179.527
 117340620.412 7  91434347.381 7  22329158.164                    22329166.789
 107559433.651 8  83812665.49346  20467858.742                    20467866.500
 120349764.520 6  93779112.86744  22901805.117                    22901814.914
 109670409.769 8  85457551.83846  20869570.102                    20869576.348
 112721277.656 7  87834867.92345  21450135.211                    21450143.406
 119483183.711 7  93103824.737 6  22736893.109                    22736900.945
 125277314.489 6  97618753.032 6  23839476.977                    23839487.578
 11  8  3  0 43 30.0000000  0  9G28G09G17G04G27G02G10G12G05
 124366382.774 6  96908951.43943  23666140.070                    23666150.418
 118331163.435 7  92206183.31144  22517680.008                    22517689.816
 117382796.812 7  91467212.076 7  22337184.508                    22337192.176
 107612130.089 8  83853727.64346  20477886.055                    20477894.191
 120395666.092 7  93814880.27144  22910539.867                    22910549.285
 109638164.785 8  85432425.90446  20863434.320                    20863440.406
 112664213.278 7  87790402.21545  21439275.664                    21439284.262
 119394955.963 7  93035075.883 7  22720103.445                    22720111.891
 125171505.680 7  97536304.819 6  23819342.438                    23819352.582
 11  8  3  0 44  0.0000000  0  9G28G09G17G04G27G02G10G12G05
 124460838.863 6  96982553.47443  23684115.055                    23684125.227
 118381603.952 7  92245487.56044  22527278.586                    22527288.277
 117425077.855 7  91500158.317 7  22345230.016                    22345238.063
 107665185.896 8  83895069.81146  20487982.563                    20487990.750
 120441882.180 7  93850892.75844  22919333.289                    22919343.758
 109606285.808 8  85407585.16446  20857368.156                    20857373.699
 112607626.453 7  87746308.61645  21428507.766                    21428516.273
 119306930.469 7  92966484.638 7  22703352.953                    22703361.168
 125065719.143 6  97453873.960 6  23799210.953                    23799222.004
 11  8  3  0 44 30.0000000  0  9G28G09G17G04G27G02G10G12G05
 124555549.432 6  97056353.81443  23702137.938                    23702147.676
 118432507.670 7  92285152.73744  22536965.031                    22536975.199
 117467463.943 7  91533186.415 7  22353295.883                    22353303.977
 107718598.863 8  83936690.29946  20498146.969                    20498155.066
 120488410.357 7  93887148.39744  22928187.773                    22928198.328
 109574772.741 8  85383029.54346  20851371.125                    20851377.578
 112551519.678 7  87702589.09245  21417831.031                    21417839.359
 119219109.533 7  92898052.761 7  22686641.859                    22686649.629
 124959958.031 7  97371462.913 6  23779086.242                    23779096.172
 11  8  3  0 45  0.0000000  0  9G28G09G17G04G27G02G10G12G05
 124650512.933 6  97130351.26043  23720209.102                    23720218.848
 118483872.566 7  92325177.27244  22546739.813                    22546749.277
 117509956.147 7  91566297.197 7  22361381.883                    22361389.832
 107772367.240 8  83978587.72946  20508378.531                    20508386.766
 120535248.828 7  93923645.82844  22937101.047                    22937111.281
 109543625.805 8  85358759.22246  20845444.250                    20845450.152
 112495896.479 7  87659246.37145  21407246.031                    21407254.176
 119131495.964 7  92829782.496 7  22669969.102                    22669976.855
 124854225.875 6  97289074.427 6  23758965.164                    23758975.883
 11  8  3  0 45 30.0000000  0  9G28G09G17G04G27G02G10G12G05
 124745727.061 6  97204543.97643  23738328.039                    23738337.742
 118535694.847 7  92365558.22844  22556601.180                    22556610.918
 117552554.564 7  91599490.747 7  22369488.172                    22369496.500
 107826487.965 8  84020759.71146  20518677.305                    20518685.414
 120582394.526 7  93960382.64144  22946073.188                    22946083.027
 109512843.905 8  85334773.34146  20839586.625                    20839592.477
 112440758.597 7  87616281.82345  21396753.977                    21396762.496
 119044092.024 7  92761675.569 7  22653336.281                    22653344.371
 124748524.298 7  97206709.768 6  23738850.883                    23738861.414
 11  8  3  0 46  0.0000000  0  9G28G09G17G04G27G02G10G12G05
 124841190.377 6  97278930.86343  23756493.375                    23756503.816
 118587972.002 7  92406293.59244  22566549.344                    22566558.855
 117595259.772 7  91632767.489 7  22377614.703                    22377623.230
 107880959.054 8  84063204.71246  20529042.641                    20529050.758
 120629845.444 7  93997357.30344  22955102.492                    22955112.941
 109482427.026 8  85311071.89546  20833798.297                    20833804.105
 112386109.019 7  87573697.78545  21386354.383                    21386363.109
 118956900.536 7  92693734.200 7  22636744.695                    22636752.883
 124642856.884 6  97124371.736 6  23718742.500                    23718753.707
 11  8  3  0 46 30.0000000  0  9G28G09G17G04G27G02G10G12G05
 124936901.110 6  97353510.53143  23774706.828                    23774717.707
 118640700.874 7  92447380.98344  22576583.422                    22576593.070
 117638072.313 7  91666127.872 7  22385761.813                    22385769.984
 107935778.100 8  84105920.84446  20539474.727                    20539483.020
 120677599.141 7  94034567.89544  22964190.305                    22964199.871
 109452374.772 8  85287654.58046  20828079.531                    20828085.660
 112331950.468 7  87531496.36145  21376048.359                    21376056.770
 118869923.880 7  92625960.205 7  22620193.695                    22620201.188
 124537226.357 6  97042062.441 6  23698641.750                    23698652.324
 11  8  3  0 47  0.0000000  0  9G28G09G17G04G27G02G10G12G05
 125032857.560 6  97428281.67043  23792967.805                    23792977.172
 118693878.832 7  92488818.28344  22586702.805                    22586712.359
 117680992.794 7  91699572.359 7  22393929.039                    22393937.125
 107990942.974 8  84148906.45746  20549972.320                    20549979.832
 120725653.369 7  94072012.68344  22973335.039                    22973344.137
 109422687.166 8  85264521.39546  20822430.289                    20822436.039
 112278285.423 7  87489679.48145  21365836.188                    21365844.527
 118783164.531 7  92558355.562 7  22603683.906                    22603691.324
 124431635.337 6  96959783.928 6  23678547.898                    23678558.996
 11  8  3  0 47 30.0000000  0  9G28G09G17G04G27G02G10G12G05
 125129057.469 6  97503242.53443  23811272.727                    23811283.910
 118747502.427 7  92530602.84244  22596906.570                    22596916.645
 117724021.328 7  91733101.068 7  22402117.117                    22402125.527
 108046450.620 8  84192159.16946  20560534.867                    20560542.676
 120774005.230 7  94109689.39644  22982536.398                    22982545.473
 109393363.098 8  85241671.48546  20816850.227                    20816855.441
 112225115.994 7  87448248.79845  21355717.859                    21355726.457
 118696624.917 7  92490922.133 7  22587215.211                    22587223.453
 124326086.571 6  96877538.347 6  23658462.570                    23658473.254
 11  8  3  0 48  0.0000000  0  9G28G09G17G04G27G02G10G12G05
 125225500.213 6  97578392.59542  23829626.672                    23829636.219
 118801569.562 7  92572733.01844  22607195.625                    22607205.234
 117767159.463 7  91766715.161 7  22410326.609                    22410334.539
 108102299.825 8  84235678.02846  20571162.383                    20571170.668
 120822653.048 7  94147596.73444  22991793.211                    22991802.781
 109364403.172 8  85219105.32146  20811339.336                    20811345.141
 112172445.989 7  87407207.27545  21345695.578                    21345704.109
 118610308.140 7  92423662.326 7  22570790.000                    22570797.953
 124220583.605 6  96795328.455 7  23638385.820                    23638396.695
 11  8  3  0 48 30.0000000  0  9G28G09G17G04G27G02G10G12G05
 125322182.407 6  97653729.23043  23848023.742                    23848034.023
 118856076.212 7  92615205.66044  22617568.641                    22617576.992
 117810406.549 7  91800414.182 7  22418556.148                    22418563.977
 108158486.965 8  84279460.21146  20581854.797                    20581862.691
 120871593.380 7  94185731.96344  23001106.281                    23001116.020
 109335805.723 8  85196821.60646  20805897.031                    20805903.375
 112120276.540 7  87366555.79045  21335768.023                    21335776.434
 118524215.873 7  92356577.471 7  22554407.664                    22554415.320
 124115128.307 6  96713155.713 6  23618317.992                    23618329.086
 11  8  3  0 49  0.0000000  0  9G28G09G17G04G27G02G10G12G05
 125419102.732 6  97729251.45143  23866467.578                    23866477.445
 118911020.125 7  92658019.03844  22628023.953                    22628033.230
 117853763.737 7  91834198.985 7  22426806.617                    22426814.625
 108215010.488 8  84323504.50346  20592610.523                    20592618.703
 120920824.479 7  94224093.80244  23010474.695                    23010484.246
 109307571.125 8  85174820.63346  20800524.500                    20800530.156
 112068611.006 7  87326296.96845  21325936.094                    21325944.539
 118438351.411 7  92289670.130 7  22538067.711                    22538076.020
 124009724.423 7  96631023.027 6  23598260.516                    23598271.270
 11  8  3  0 49 30.0000000  0  9G28G09G17G04G27G02G10G12G05
 125516200.619 6  97804912.02043  23884944.336                    23884954.734
 118966339.231 7  92701124.78444  22638550.781                    22638559.965
 117897172.443 7  91868023.928 7  22435066.828                    22435075.203
 108271808.857 8  84367762.96846  20603419.281                    20603427.191
 120970284.576 7  94262634.06544  23019887.086                    23019896.398
 109279639.886 8  85153056.04346  20795209.039                    20795215.258
 112017392.536 7  87286386.50245  21316189.672                    21316197.973
 118352658.105 7  92222896.156 7  22521760.891                    22521768.809
 123904315.560 7  96548886.450 6  23578201.469                    23578212.563
 11  8  3  0 50  0.0000000  0  9G28G09G17G04G27G02G10G12G05
 125613532.785 6  97880755.15143  23903466.805                    23903476.934
 119022089.292 7  92744566.33344  22649159.422                    22649169.043
 117940691.901 7  91901935.168 7  22443348.313                    22443356.496
 108328938.555 8  84412279.60146  20614290.578                    20614298.785
 121020030.063 7  94301396.71044  23029352.547                    23029362.813
 109252070.173 8  85131573.16446  20789962.625                    20789968.645
 111966682.479 7  87246872.20345  21306539.789                    21306548.461
 118267197.094 7  92156303.174 7  22505497.914                    22505506.027
 123798963.349 7  96466794.010 6  23558153.594                    23558164.547
 11  8  3  0 50 30.0000000  0  9G28G09G17G04G27G02G10G12G05
 125711182.977 6  97956846.10043  23922048.906                    23922059.152
 119078352.675 7  92788407.87944  22659866.516                    22659875.383
 117984407.846 7  91935999.521 7  22451666.961                    22451675.480
 108386482.477 8  84457119.00846  20625240.680                    20625248.840
 121070143.715 7  94340446.22144  23038889.063                    23038899.406
 109224946.990 8  85110438.22246  20784801.047                    20784807.082
 111916568.965 7  87207822.74245  21297003.398                    21297011.563
 118182056.317 7  92089959.735 7  22489296.453                    22489304.352
 123693756.112 7  96384814.538 6  23538133.664                    23538143.563
 11  8  3  0 51  0.0000000  0  9G28G09G17G04G27G02G10G12G05
 125808983.390 6  98033054.11343  23940660.555                    23940670.160
 119134960.689 7  92832517.94944  22670638.305                    22670648.059
 118028155.634 7  91970088.684 7  22459991.961                    22460000.371
 108444272.507 8  84502150.19346  20636238.063                    20636246.141
 121120457.366 7  94379651.59344  23048464.477                    23048473.656
 109198104.354 8  85089521.89546  20779693.375                    20779699.301
 111866888.621 7  87169110.82045  21287549.547                    21287558.000
 118097072.671 7  92023738.738 7  22473123.758                    22473132.250
 123588530.832 7  96302820.982 6  23518109.984                    23518120.387
 11  8  3  0 51 30.0000000  0  9G28G09G17G04G27G02G10G12G05
 125907091.122 6  98109501.59543  23959329.258                    23959338.758
 119192069.136 7  92877017.97644  22681506.422                    22681515.703
 118072094.264 7  92004326.539 7  22468353.570                    22468361.645
 108502465.343 8  84547495.23546  20647311.641                    20647319.629
 121171127.352 7  94419134.61444  23058105.438                    23058116.211
 109171700.464 8  85068947.44746  20774669.203                    20774675.031
 111817802.759 7  87130862.12845  21278209.195                    21278217.488
 118012408.004 7  91957766.291 7  22457013.180                    22457021.215
 123483449.378 7  96220939.488 6  23498112.906                    23498122.898
 11  8  3  0 52  0.0000000  0  9G28G09G17G04G27G02G10G12G05
 126005427.981 6  98186127.56943  23978042.539                    23978052.391
 119249598.436 7  92921845.93444  22692453.102                    22692463.102
 118116147.897 7  92038654.028 7  22476736.570                    22476744.957
 108560981.956 8  84593092.57546  20658446.836                    20658454.914
 121222074.703 7  94458833.75844  23067800.727                    23067810.484
 109145658.508 8  85048655.03246  20769713.328                    20769719.602
 111769237.042 7  87093018.74545  21268966.875                    21268975.512
 117927987.812 7  91891984.351 7  22440948.680                    22440955.918
 123378438.194 7  96139112.765 6  23478130.273                    23478140.305
 11  8  3  0 52 30.0000000  0  9G28G09G17G04G27G02G10G12G05
 126103910.218 6  98262866.85743  23996782.852                    23996793.344
 119307463.734 7  92966935.73944  22703464.695                    22703474.410
 118160235.421 7  92073007.911 7  22485126.359                    22485134.707
 108619738.371 8  84638876.76046  20669627.922                    20669636.141
 121273215.294 7  94498683.48244  23077533.094                    23077542.734
 109119896.058 8  85028580.40646  20764811.086                    20764816.613
 111721112.383 7  87055519.03045  21259809.180                    21259817.656
 117843733.383 7  91826331.568 7  22424915.695                    22424923.180
 123273418.557 7  96057279.443 6  23458145.117                    23458155.133
 11  8  3  0 53  0.0000000  0  9G28G09G17G04G27G02G10G12G05
 126202693.305 6  98339840.56442  24015580.914                    24015590.184
 119365819.638 7  93012407.81744  22714569.328                    22714578.930
 118204514.798 7  92107511.294 7  22493552.375                    22493560.496
 108678889.821 8  84684968.77646  20680884.000                    20680892.195
 121324703.902 7  94538804.39344  23087331.078                    23087340.793
 109094570.225 8  85008846.01446  20759991.352                    20759997.699
 111673588.603 7  87018487.54145  21250765.977                    21250774.156
 117759804.478 7  91760932.449 7  22408944.641                    22408952.320
 123168550.714 7  95975564.393 6  23438189.266                    23438199.406
 11  8  3  0 53 30.0000000  0  9G28G09G17G04G27G02G10G12G05
 126301699.311 6  98416988.03342  24034421.000                    24034431.156
 119424587.030 7  93058200.54444  22725752.242                    22725762.344
 118248910.639 7  92142105.441 7  22502000.867                    22502008.590
 108738357.710 8  84731307.35846  20692200.383                    20692208.387
 121376462.150 7  94579135.41944  23097180.422                    23097190.535
 109069604.687 8  84989392.37246  20755240.672                    20755246.910
 111626591.826 7  86981866.70545  21241822.164                    21241830.719
 117676127.726 7  91695729.811 7  22393020.961                    22393029.008
 123063761.698 6  95893910.751 6  23418248.609                    23418258.016
 11  8  3  0 54  0.0000000  0  9G28G09G17G04G27G02G10G12G05
 126400846.950 6  98494245.78643  24053288.703                    24053299.008
 119483682.959 7  93104249.26444  22736998.422                    22737007.867
 118293343.888 7  92176728.720 7  22510456.195                    22510463.910
 108798060.226 8  84777828.78646  20703561.484                    20703569.648
 121428407.652 7  94619612.36944  23107065.102                    23107075.375
 109044919.126 8  84970156.89146  20750543.023                    20750549.043
 111580044.833 7  86945596.35145  21232964.961                    21232973.289
 117592625.950 7  91630663.517 7  22377131.008                    22377139.047
 122958974.633 6  95812258.649 6  23398308.039                    23398317.699
 11  8  3  0 54 30.0000000  0  9G28G09G17G04G27G02G10G12G05
 126500287.737 6  98571732.00643  24072210.914                    24072221.172
 119543258.088 7  93150671.39044  22748335.672                    22748344.859
 118337968.521 7  92211501.132 7  22518947.742                    22518956.172
 108858148.547 8  84824650.83146  20714995.844                    20715004.285
 121480691.620 7  94660353.03444  23117014.352                    23117024.828
 109020666.558 8  84951258.80546  20745928.039                    20745934.273
 111534103.790 7  86909798.16745  21224222.102                    21224231.191
 117509455.634 7  91565855.506 7  22361304.539                    22361312.734
 122854346.337 7  95730730.254 6  23378398.195                    23378408.148
 11  8  3  0 55  0.0000000  0  9G28G09G17G04G27G02G10G12G05
 126599945.676 6  98649387.35343  24091175.172                    24091186.051
 119603235.064 7  93197406.64244  22759747.781                    22759758.258
 118382710.914 7  92246365.301 7  22527461.859                    22527470.395
 108918546.066 8  84871713.80846  20726489.297                    20726497.270
 121533237.313 7  94701297.63944  23127014.047                    23127023.434
 108996772.108 8  84932639.78246  20741380.930                    20741387.191
 111488696.761 7  86874416.09445  21215581.727                    21215590.137
 117426544.985 7  91501249.837 7  22345526.906                    22345534.980
 122749805.180 7  95649269.742 6  23358504.250                    23358514.824
 11  8  3  0 55 30.0000000  0  9G28G09G17G04G27G02G10G12G05
 126699819.528 6  98727211.02443  24110181.430                    24110192.031
 119663611.355 7  93244453.06344  22771237.563                    22771247.566
 118427572.406 7  92281322.288 7  22535998.859                    22536007.234
 108979251.199 8  84919016.48946  20738040.820                    20738048.934
 121586042.916 7  94742444.78844  23137062.195                    23137072.488
 108973236.308 8  84914300.22146  20736902.492                    20736908.293
 111443826.572 7  86839452.33945  21207043.336                    21207051.824
 117343897.133 7  91436848.952 7  22329800.070                    22329808.074
 122645355.118 6  95567880.214 6  23338627.711                    23338638.621
 11  8  3  0 56  0.0000000  0  9G28G09G17G04G27G02G10G12G05
 126799823.181 6  98805135.80043  24129211.320                    24129222.180
 119724299.779 7  93291742.67944  22782785.953                    22782796.422
 118472469.721 7  92316307.167 7  22544542.586                    22544550.773
 109040177.576 8  84966491.56846  20749634.852                    20749643.234
 121639021.620 7  94783726.81544  23147144.063                    23147153.547
 108949974.333 8  84896174.02946  20732475.734                    20732481.734
 111399411.500 7  86804843.22245  21198591.258                    21198600.023
 117261430.838 7  91372589.534 7  22314106.984                    22314114.457
 122540914.969 7  95486498.416 6  23318752.938                    23318763.902
 11  8  3  0 56 30.0000000  0  9G28G09G17G04G27G02G10G12G05
 126900115.672 6  98883285.67843  24148295.977                    24148306.867
 119785458.754 7  93339398.96444  22794424.195                    22794434.676
 118517564.261 7  92351445.745 7  22553123.977                    22553132.105
 109101483.937 8  85014262.73746  20761301.406                    20761309.598
 121692331.942 7  94825267.25444  23157288.156                    23157298.734
 108927146.627 8  84878386.22446  20728131.688                    20728138.031
 111355614.834 7  86770715.97845  21190257.320                    21190265.500
 117179309.943 7  91308599.253 7  22298479.766                    22298487.668
 122436648.687 7  95405252.089 7  23298912.484                    23298922.375
 11  8  3  0 57  0.0000000  0  9G28G09G17G04G27G02G10G12G05
 127000618.296 6  98961599.27543  24167421.445                    24167432.598
 119847007.797 7  93387359.19544  22806136.820                    22806147.230
 118562779.713 7  92386678.525 7  22561727.961                    22561735.977
 109163090.808 8  85062268.07946  20773024.883                    20773033.145
 121745894.356 7  94867004.12044  23167481.016                    23167491.082
 108904675.781 8  84860876.50646  20723856.000                    20723862.051
 111312361.661 7  86737012.23945  21182025.797                    21182035.008
 117097459.744 7  91244819.913 7  22282904.320                    22282912.266
 122332482.121 7  95324083.483 6  23279089.875                    23279100.238
 11  8  3  0 57 30.0000000  0  9G28G09G17G04G27G02G10G12G05
 127101245.658 6  99040010.06743  24186570.070                    24186581.063
 119908860.090 7  93435555.74044  22817906.391                    22817917.137
 118608033.527 7  92421941.218 7  22570339.391                    22570347.570
 109224912.874 8  85110441.10646  20784789.195                    20784797.148
 121799623.278 7  94908870.76044  23177705.352                    23177715.598
 108882478.021 8  84843579.58046  20719631.672                    20719637.398
 111269571.107 7  86703668.98245  21173883.438                    21173891.727
 117015799.886 7  91181188.888 7  22267364.961                    22267372.609
 122228335.238 7  95242930.183 6  23259271.438                    23259280.891
 11  8  3  0 58  0.0000000  0  9G28G09G17G04G27G02G10G12G05
 127202155.883 6  99118641.32442  24205772.289                    24205783.629
 119971172.684 7  93484110.94944  22829764.859                    22829774.805
 118653485.987 7  92457358.691 7  22578988.883                    22578997.082
 109287107.500 8  85158904.43646  20796624.273                    20796632.352
 121853675.796 7  94950989.50544  23187991.047                    23188001.664
 108860712.663 8  84826619.58046  20715489.703                    20715495.293
 111227405.325 7  86670812.56845  21165860.273                    21165867.941
 116934492.599 7  91117832.585 7  22251892.813                    22251900.031
 122124370.826 7  95161919.081 6  23239487.289                    23239497.211
 11  8  3  0 58 30.0000000  0  9G28G09G17G04G27G02G10G12G05
 127303269.801 6  99197431.23742  24225014.672                    24225025.172
 120033864.993 7  93532962.02044  22841695.477                    22841704.750
 118699060.082 7  92492870.951 7  22587661.297                    22587669.633
 109349595.035 8  85207596.01846  20808515.391                    20808523.914
 121907971.956 7  94993298.12544  23198323.461                    23198333.730
 108839301.335 8  84809935.44846  20711415.234                    20711421.223
 111185789.060 7  86638384.34245  21157939.875                    21157948.422
 116853463.106 7  91054692.747 7  22236473.211                    22236480.629
 122020514.332 7  95080992.080 7  23219724.258                    23219734.336
 11  8  3  0 59  0.0000000  0  9G28G09G17G04G27G02G10G12G05
 127404503.816 6  99276314.80542  24244278.570                    24244289.168
 120096852.541 7  93582043.16844  22853680.852                    22853690.887
 118744675.439 7  92528415.376 7  22596341.688                    22596350.172
 109412291.546 8  85256450.42546  20820445.992                    20820454.125
 121962427.878 7  95035731.21744  23208687.023                    23208697.078
 108818162.126 8  84793463.35846  20707392.594                    20707398.563
 111144642.768 7  86606322.33545  21150110.258                    21150118.512
 116772632.576 7  90991707.942 7  22221091.758                    22221099.004
 121916687.228 7  95000087.966 6  23199966.477                    23199976.414
 11  8  3  0 59 30.0000000  0  9G28G09G17G04G27G02G10G12G05
 127506012.473 5  99355412.35242  24263595.266                    24263606.539
 120160289.174 7  93631474.28244  22865752.227                    22865762.277
 118790489.355 7  92564114.508 7  22605059.805                    22605067.977
 109475351.708 8  85305588.20646  20832446.266                    20832454.066
 122017197.754 6  95078408.95544  23219109.406                    23219118.996
 108797451.686 8  84777325.37246  20703451.516                    20703457.133
 111104125.395 8  86574750.39145  21142400.016                    21142408.102
 116692160.771 7  90929002.675 7  22205778.422                    22205786.008
 121813049.673 7  94919331.579 6  23180244.977                    23180254.547
 11  8  3  1  0  0.0000000  0  9G28G09G17G04G27G02G10G12G05
 127607719.012 5  99434664.13242  24282949.344                    24282961.066
 120224096.328 7  93681194.09944  22877894.914                    22877904.402
 118836427.155 7  92599910.169 7  22613801.758                    22613809.688
 109538697.938 8  85354948.89146  20844500.578                    20844508.270
 122072203.692 6  95121270.65744  23229576.211                    23229586.477
 108777093.932 8  84761462.20846  20699577.328                    20699583.313
 111064164.163 8  86543611.80345  21134795.938                    21134804.098
 116611974.702 7  90866520.050 7  22190519.320                    22190527.117
 121709529.344 7  94838666.511 6  23160544.992                    23160554.699
 11  8  3  1  0 30.0000000  0  9G28G09G17G04G27G02G10G12G05
 127709541.730 6  99514006.40442  24302324.922                    24302337.625
 120288190.854 7  93731137.82444  22890091.031                    22890101.191
 118882409.668 7  92635740.670 7  22622551.797                    22622560.086
 109602248.426 8  85404468.73746  20856593.813                    20856601.953
 122127363.292 6  95164252.05743  23240072.555                    23240083.148
 108757008.712 8  84745811.40646  20695755.297                    20695761.141
 111024681.327 8  86512845.98645  21127282.281                    21127291.023
 116531997.492 7  90804200.172 7  22175300.273                    22175308.270
 121606049.544 7  94758033.039 6  23140853.859                    23140863.293
 11  8  3  1  1  0.0000000  0  9G28G09G17G04G27G02G10G12G05
 127811632.821 6  99593557.84942  24321752.359                    24321765.184
 120352723.854 7  93781423.23544  22902371.523                    22902381.863
 118928591.833 7  92671726.760 7  22631339.242                    22631348.324
 109666154.807 8  85454265.90346  20868754.734                    20868763.012
 122182828.253 6  95207471.42243  23250626.477                    23250637.516
 108737349.496 8  84730492.54746  20692014.125                    20692020.043
 110985833.136 8  86482574.69145  21119889.969                    21119898.324
 116452385.993 7  90742165.264 7  22160151.031                    22160158.539
 121502767.288 7  94677553.467 6  23121200.414                    23121209.613
 11  8  3  1  1 30.0000000  0  8G09G17G04G27G02G10G12G05
 120417616.758 6  93831989.07944  22914720.617                    22914729.949
 118974898.587 7  92707809.914 7  22640152.063                    22640160.301
 109730339.406 8  85504279.86346  20880968.633                    20880977.113
 122238520.362 6  95250867.78644  23261225.313                    23261235.895
 108718039.764 8  84715446.01246  20688339.961                    20688345.727
 110947546.084 8  86452740.63945  21112603.641                    21112612.074
 116373067.425 7  90680358.594 7  22145056.984                    22145064.129
 121399610.020 7  94597171.308 6  23101569.375                    23101578.941
 11  8  3  1  2  0.0000000  0  8G09G17G04G27G02G10G12G05
 120482867.364 7  93882833.66144  22927137.414                    22927147.730
 119021331.851 7  92743991.665 7  22648987.844                    22648996.027
 109794800.945 8  85554509.62046  20893235.227                    20893243.477
 122294438.190 6  95294440.00143  23271865.930                    23271876.660
 108699080.420 8  84700672.50446  20684731.750                    20684738.039
 110909823.290 7  86423346.26745  21105425.750                    21105433.695
 116294045.108 7  90618782.768 7  22130019.969                    22130026.961
 121296582.137 7  94516889.977 6  23081964.320                    23081973.449
 11  8  3  1  2 30.0000000  0  8G09G17G04G27G02G10G12G05
 120548388.428 7  93933888.98544  22939605.125                    22939615.074
 119067808.775 7  92780207.432 7  22657832.070                    22657840.695
 109859453.192 8  85604887.98146  20905538.141                    20905546.285
 122350495.098 6  95338120.61744  23282534.336                    23282544.328
 108680386.565 8  84686105.87646  20681174.547                    20681180.250
 110872582.768 8  86394327.70445  21098339.125                    21098346.762
 116215238.214 7  90557374.830 7  22115022.602                    22115030.367
 121193602.486 7  94436646.206 6  23062367.070                    23062376.844
 11  8  3  1  3  0.0000000  0  8G09G17G04G27G02G10G12G05
 120614338.173 6  93985278.35444  22952154.773                    22952165.504
 119114490.225 7  92816582.561 7  22666714.969                    22666723.605
 109924455.074 8  85655538.78046  20917907.531                    20917915.410
 122406849.956 6  95382033.38044  23293258.289                    23293268.477
 108662119.228 8  84671871.60446  20677698.523                    20677704.398
 110835987.871 7  86365812.21345  21091375.102                    21091383.141
 116136810.259 7  90496262.174 7  22100098.523                    22100105.938
 121090835.516 7  94356568.179 7  23042811.586                    23042821.227
 11  8  3  1  3 30.0000000  0  8G09G17G04G27G02G10G12G05
 120680635.275 7  94036938.37844  22964771.758                    22964781.047
 119161299.093 7  92853056.973 7  22675622.992                    22675631.039
 109989726.588 8  85706399.68546  20930327.938                    20930336.559
 122463422.259 6  95426115.57644  23304023.180                    23304033.961
 108644199.467 8  84657908.15646  20674288.398                    20674294.219
 110799962.687 7  86337740.65945  21084519.781                    21084527.953
 116058685.974 7  90435386.109 7  22085231.688                    22085239.230
 120988206.196 7  94276597.425 7  23023281.844                    23023291.313
 11  8  3  1  4  0.0000000  0  8G09G17G04G27G02G10G12G05
 120747195.210 7  94088803.21644  22977437.836                    22977446.988
 119208154.835 7  92889567.923 7  22684539.328                    22684547.367
 110055183.869 8  85757405.34245  20942784.539                    20942792.742
 122520127.704 6  95470301.52243  23314813.969                    23314824.797
 108626545.459 8  84644151.79746  20670929.008                    20670934.680
 110764427.284 8  86310050.75645  21077757.422                    21077765.457
 115980786.669 7  90374685.380 7  22070407.969                    22070416.078
 120885636.350 7  94196672.999 7  23003762.906                    23003772.555
 11  8  3  1  4 30.0000000  0  8G09G17G04G27G02G10G12G05
 120814171.739 7  94140992.65144  22990182.070                    22990192.652
 119255215.307 7  92926238.399 7  22693494.023                    22693502.395
 110120981.902 8  85808676.52145  20955305.336                    20955313.922
 122577120.766 6  95514711.59444  23325659.000                    23325670.082
 108609313.468 8  84630724.28346  20667650.031                    20667655.762
 110729541.060 7  86282866.70345  21071119.141                    21071127.492
 115903272.285 7  90314284.588 7  22055657.734                    22055665.309
 120783285.934 7  94116919.553 7  22984286.594                    22984296.375
 11  8  3  1  5  0.0000000  0  8G09G17G04G27G02G10G12G05
 120881485.333 7  94193444.72044  23002992.016                    23003002.410
 119302405.038 7  92963009.606 7  22702474.375                    22702482.770
 110187042.022 8  85860151.92145  20967875.781                    20967884.191
 122634322.555 6  95559284.30444  23336544.461                    23336555.082
 108592426.424 8  84617565.55846  20664436.445                    20664442.133
 110695229.684 7  86256130.58545  21064589.508                    21064597.816
 115826069.248 7  90254126.410 7  22040965.867                    22040973.902
 120681081.858 7  94037280.151 7  22964837.156                    22964846.957
 11  8  3  1  5 30.0000000  0  8G09G17G04G27G02G10G12G05
 120949053.707 7  94246095.34844  23015850.180                    23015860.492
 119349645.216 7  92999820.115 6  22711464.258                    22711471.977
 110253282.887 8  85911768.16245  20980481.203                    20980490.000
 122691651.452 7  95603956.07244  23347454.195                    23347464.801
 108575804.905 8  84604613.73046  20661273.445                    20661279.289
 110661415.823 7  86229782.14845  21058155.508                    21058163.043
 115749100.814 7  90194151.024 7  22026319.742                    22026327.570
 120578947.874 7  93957695.361 7  22945402.227                    22945411.398
 11  8  3  1  6  0.0000000  0  8G09G17G04G27G02G10G12G05
 121017027.051 7  94299061.51644  23028784.664                    23028795.887
 119397090.250 7  93036790.247 7  22720492.430                    22720500.164
 110319855.976 8  85963643.27845  20993149.961                    20993158.352
 122749258.497 6  95648844.57744  23358416.820                    23358426.938
 108559601.419 8  84591987.65546  20658190.031                    20658196.160
 110628254.750 7  86203942.37545  21051844.922                    21051853.148
 115672523.076 7  90134480.105 7  22011747.461                    22011755.785
 120477040.442 7  93878287.095 7  22926009.852                    22926019.055
 11  8  3  1  6 30.0000000  0  8G09G17G04G27G02G10G12G05
 121085327.846 6  94352282.82344  23041781.938                    23041792.289
 119444666.454 7  93073862.605 6  22729545.406                    22729553.391
 110386684.288 8  86015717.28345  21005867.031                    21005875.359
 122807066.435 6  95693889.63143  23369416.852                    23369427.535
 108543740.753 8  84579628.71646  20655171.891                    20655177.773
 110595673.976 7  86178554.78345  21045644.695                    21045652.641
 115596264.229 7  90075057.661 7  21997235.508                    21997243.387
 120375288.308 7  93798999.835 7  22906646.492                    22906655.613
 11  8  3  1  7  0.0000000  0  8G09G17G04G27G02G10G12G05
 121153952.844 7  94405756.76144  23054840.531                    23054851.348
 119492374.103 7  93111037.375 6  22738624.703                    22738631.957
 110453765.795 8  86067988.58045  21018631.703                    21018640.496
 122865072.727 6  95739089.25444  23380454.789                    23380465.898
 108528222.607 8  84567536.66646  20652218.609                    20652224.652
 110563675.288 7  86153620.76945  21039555.516                    21039563.664
 115520327.495 7  90015886.201 7  21982785.352                    21982793.121
 120273694.672 7  93719836.075 7  22887313.719                    22887323.031
 11  8  3  1  7 30.0000000  0  8G09G17G04G27G02G10G12G05
 121222815.453 7  94459415.86044  23067945.273                    23067954.773
 119540130.683 7  93148250.275 7  22747711.961                    22747720.301
 110521014.927 8  86120390.50445  21031429.234                    21031437.668
 122923191.563 6  95784376.58243  23391514.711                    23391525.422
 108512962.850 8  84555645.95646  20649315.000                    20649320.813
 110532177.067 7  86129076.72845  21033561.422                    21033569.344
 115444631.822 7  89956902.593 7  21968381.250                    21968388.777
 120172179.349 7  93640733.350 7  22867995.977                    22868005.141
 11  8  3  1  8  0.0000000  0  8G09G17G04G27G02G10G12G05
 121292073.811 7  94513383.31744  23081124.383                    23081135.270
 119588098.335 7  93185627.655 6  22756840.430                    22756848.043
 110588590.980 8  86173047.15645  21044288.180                    21044296.617
 122981581.478 6  95829875.13243  23402625.867                    23402636.359
 108498122.274 8  84544081.88146  20646490.891                    20646496.691
 110501342.713 7  86105049.99145  21027694.375                    21027702.406
 115369341.235 7  89898234.635 7  21954053.766                    21954061.328
 120070906.560 7  93561819.596 7  22848724.172                    22848733.641
 11  8  3  1  8 30.0000000  0  8G09G17G04G27G02G10G12G05
 121361645.568 7  94567594.97144  23094363.672                    23094373.715
 119636198.734 7  93223108.465 6  22765993.156                    22766001.422
 110656412.640 8  86225895.18745  21057195.117                    21057202.793
 123040161.108 6  95875521.50543  23413773.453                    23413784.055
 108483620.744 8  84532781.99846  20643731.203                    20643736.797
 110471094.577 7  86081480.03745  21021937.695                    21021946.453
 115294379.662 7  89839823.046 7  21939788.938                    21939796.809
 119969800.690 7  93483035.893 7  22829484.227                    22829493.773
 11  8  3  1  9  0.0000000  0  8G09G17G04G27G02G10G12G05
 121431447.088 7  94621985.67544  23107646.969                    23107657.293
 119684351.757 7  93260630.279 6  22775156.602                    22775164.605
 110724396.841 8  86278869.87445  21070131.648                    21070140.027
 123098846.946 6  95921250.62043  23424940.578                    23424951.441
 108469377.175 8  84521683.13146  20641020.711                    20641026.652
 110441354.013 8  86058305.59645  21016278.313                    21016286.664
 115219668.793 7  89781606.802 7  21925572.461                    21925579.781
 119868783.796 7  93404321.538 6  22810261.766                    22810270.715
 11  8  3  1  9 30.0000000  0  8G09G17G04G27G02G10G12G05
 121501632.446 7  94676675.49944  23121003.203                    23121012.984
 119732715.588 7  93298316.359 6  22784359.953                    22784368.043
 110792698.988 8  86332092.31845  21083129.141                    21083137.352
 123157793.790 6  95967183.15643  23436157.688                    23436169.438
 108455548.262 8  84510907.36646  20638389.250                    20638394.871
 110412280.374 7  86035650.84145  21010746.336                    21010753.957
 115145368.753 7  89723710.689 7  21911432.852                    21911440.801
 119768016.527 7  93325801.685 7  22791085.930                    22791095.172
 11  8  3  1 10  0.0000000  0  8G09G17G04G27G02G10G12G05
 121572122.031 7  94731602.33244  23134416.602                    23134426.777
 119781214.440 7  93336107.650 7  22793588.859                    22793597.223
 110861240.880 8  86385501.57245  21096172.273                    21096180.449
 123216922.756 6  96013257.57543  23447409.477                    23447421.555
 108442056.986 8  84500394.70046  20635821.758                    20635827.723
 110383798.737 7  86013457.39545  21005325.906                    21005334.113
 115071405.907 7  89666077.328 7  21897358.242                    21897366.066
 119667425.771 7  93247419.356 7  22771944.367                    22771953.445
 11  8  3  1 10 30.0000000  0  8G09G17G04G27G02G10G12G05
 121642832.628 7  94786701.41844  23147872.086                    23147882.465
 119829769.516 7  93373942.757 6  22802829.039                    22802837.168
 110929940.451 8  86439033.69445  21109245.305                    21109253.559
 123276151.341 6  96059409.64443  23458681.070                    23458692.043
 108428823.185 8  84490082.65846  20633303.531                    20633309.129
 110355830.934 7  85991664.33645  21000003.984                    21000012.098
 114997703.301 7  89608646.739 7  21883333.484                    21883341.215
 119566935.016 7  93169114.980 6  22752821.398                    22752830.422
 11  8  3  1 11  0.0000000  0  8G09G17G04G27G02G10G12G05
 121713915.334 7  94842090.44144  23161398.805                    23161409.199
 119878535.664 7  93411942.331 7  22812107.883                    22812116.957
 110998949.792 8  86492807.19345  21122377.344                    21122385.762
 123335631.425 6  96105757.67144  23469999.602                    23470010.430
 108416000.002 8  84480090.57546  20630863.414                    20630869.375
 110328533.041 8  85970393.27245  20994809.172                    20994817.180
 114924417.642 7  89551541.041 7  21869387.523                    21869395.133
 119466701.311 7  93091010.881 7  22733747.117                    22733756.254
 11  8  3  1 11 30.0000000  0  8G09G17G04G27G02G10G12G05
 121785291.439 7  94897708.08844  23174981.422                    23174991.938
 119927438.276 7  93450048.225 7  22821414.680                    22821423.219
 111068191.140 8  86546761.46945  21135553.641                    21135561.574
 123395284.962 6  96152240.84743  23481351.195                    23481362.547
 108403511.236 8  84470359.08746  20628487.172                    20628492.949
 110301831.396 8  85949586.83045  20989728.063                    20989736.590
 114851476.511 7  89494703.827 7  21855507.188                    21855515.477
 119366652.594 7  93013050.935 7  22714709.492                    22714718.043
 11  8  3  1 12  0.0000000  0  8G09G17G04G27G02G10G12G05
 121856957.962 7  94953552.01844  23188619.289                    23188630.105
 119976478.244 7  93488261.170 6  22830746.086                    22830754.965
 111137662.565 8  86600895.02945  21148773.797                    21148781.555
 123455109.543 6  96198857.33944  23492736.398                    23492746.973
 108391356.207 8  84460887.64746  20626174.133                    20626179.500
 110275727.591 8  85929246.23345  20984760.688                    20984768.621
 114778882.931 7  89438137.419 7  21841692.953                    21841700.387
 119266791.955 7  92935237.540 7  22695705.672                    22695714.723
 11  8  3  1 12 30.0000000  0  8G09G17G04G27G02G10G12G05
 121928828.007 6  95009554.55444  23202295.797                    23202306.750
 120025572.561 7  93526516.456 7  22840088.531                    22840097.605
 111207278.446 8  86655141.14245  21162020.813                    21162029.422
 123515019.071 6  96245539.99143  23504136.305                    23504147.797
 108379450.831 8  84451610.74446  20623908.469                    20623914.289
 110250139.315 8  85909307.34245  20979891.438                    20979899.668
 114706555.144 7  89381778.118 7  21827929.891                    21827937.250
 119167039.031 7  92857508.078 7  22676723.547                    22676732.695
 11  8  3  1 13  0.0000000  0  8G09G17G04G27G02G10G12G05
 122001060.427 6  95065839.46044  23216040.766                    23216051.141
 120074883.836 7  93564940.779 7  22849472.438                    22849480.820
 111277198.682 8  86709624.42245  21175326.641                    21175334.930
 123575172.876 6  96292412.97744  23515583.477                    23515594.570
 108367956.467 8  84442654.10946  20621721.266                    20621726.531
 110225230.366 8  85889897.79245  20975151.805                    20975159.551
 114634658.398 7  89325754.697 7  21814247.977                    21814255.645
 119067558.780 7  92779991.074 7  22657793.469                    22657801.895
 11  8  3  1 13 30.0000000  0  8G09G17G04G27G02G10G12G05
 122073573.370 7  95122342.98244  23229839.977                    23229850.379
 120124334.502 7  93603473.741 6  22858882.031                    22858890.738
 111347342.630 8  86764282.01245  21188674.508                    21188682.871
 123635489.577 7  96339412.87944  23527061.234                    23527073.012
 108356793.905 8  84433956.01646  20619597.188                    20619602.707
 110200924.029 8  85870957.80845  20970526.117                    20970534.156
 114563116.836 7  89270008.050 7  21800634.211                    21800642.348
 118968275.871 7  92702627.855 7  22638899.719                    22638908.957
 11  8  3  1 14  0.0000000  0  8G09G17G04G27G02G10G12G05
 122146281.271 7  95178998.39744  23243675.641                    23243686.723
 120173843.048 7  93642051.786 7  22868303.852                    22868312.516
 111417625.596 7  86819047.93945  21202048.820                    21202057.137
 123695884.240 6  96386473.54744  23538554.156                    23538565.531
 108345879.803 8  84425451.54246  20617520.141                    20617525.551
 110177138.903 7  85852423.95545  20965999.930                    20966007.820
 114491850.559 7  89214475.902 7  21787072.906                    21787080.590
 118869110.880 7  92625356.516 7  22620029.430                    22620038.605
 11  8  3  1 14 30.0000000  0  8G09G17G04G27G02G10G12G05
 122219339.903 6  95235927.13244  23257578.578                    23257588.805
 120223568.526 7  93680798.868 6  22877766.172                    22877774.336
 111488204.638 8  86874044.57345  21215479.531                    21215487.934
 123756513.211 6  96433716.80644  23550091.383                    23550103.223
 108335372.271 8  84417263.86646  20615520.703                    20615526.047
 110154035.736 8  85834421.50745  20961603.961                    20961611.566
 114421021.165 7  89159284.182 7  21773594.164                    21773601.719
 118770226.281 7  92548303.669 7  22601212.328                    22601221.309
 11  8  3  1 15  0.0000000  0  8G09G17G04G27G02G10G12G05
 122292668.266 6  95293066.04144  23271532.883                    23271543.254
 120273434.396 7  93719655.371 7  22887256.391                    22887264.066
 111559000.275 7  86929209.97645  21228951.516                    21228960.273
 123817296.491 6  96481080.29443  23561658.656                    23561669.707
 108325193.225 8  84409332.15246  20613583.406                    20613589.297
 110131538.380 7  85816891.11245  20957322.352                    20957330.797
 114350554.185 7  89104374.862 7  21760184.438                    21760192.723
 118671547.625 7  92471411.287 7  22582434.398                    22582443.211
 11  8  3  1 15 30.0000000  0  9G25G09G17G04G27G02G10G12G05
 129665240.63716 101038029.54616  24674486.078                    24674496.813
 122366183.670 6  95350350.68944  23285522.867                    23285532.406
 120323361.961 7  93758559.956 6  22896756.133                    22896764.629
 111629930.658 7  86984480.38645  21242449.125                    21242457.664
 123878151.904 6  96528499.96643  23573238.469                    23573250.109
 108315262.283 8  84401593.76746  20611694.195                    20611699.398
 110109568.749 7  85799771.93045  20953141.773                    20953149.785
 114280372.516 7  89049687.871 7  21746829.523                    21746837.336
 118572998.131 7  92394619.560 7  22563680.563                    22563689.746
 11  8  3  1 16  0.0000000  0  9G25G09G17G04G27G02G10G12G05
 129561896.206 6 100957501.439 5  24654819.648                    24654831.047
 122440037.312 6  95407898.90343  23299576.086                    23299586.359
 120373506.281 7  93797633.397 6  22906299.031                    22906306.945
 111701148.153 7  87039974.52045  21256001.250                    21256009.922
 123939231.184 6  96576094.11043  23584860.875                    23584873.621
 108305733.016 8  84394168.37746  20609880.250                    20609886.207
 110088282.643 7  85783185.37345  20949090.828                    20949099.203
 114210633.046 7  88995345.440 7  21733558.609                    21733566.289
 118474735.873 7  92318051.634 7  22544982.602                    22544990.746
 11  8  3  1 16 30.0000000  0  9G25G09G17G04G27G02G10G12G05
 129458658.424 6 100877056.492 5  24635174.055                    24635186.113
 122514150.867 7  95465649.65143  23313679.500                    23313689.570
 120423793.366 7  93836818.117 6  22915868.227                    22915876.383
 111772576.031 7  87095632.58745  21269593.625                    21269601.984
 124000457.009 6  96623802.42043  23596512.828                    23596524.254
 108296529.941 8  84386997.15846  20608128.953                    20608134.465
 110067606.798 7  85767074.34345  20945156.438                    20945164.688
 114141264.161 7  88941291.778 7  21720357.883                    21720365.359
 118376688.810 7  92241651.403 7  22526324.141                    22526333.215
 11  8  3  1 17  0.0000000  0  9G25G09G17G04G27G02G10G12G05
 129355529.645 6 100796696.420 5  24615549.125                    24615561.266
 122588521.176 6  95523600.45644  23327831.508                    23327842.094
 120474223.543 7  93876114.342 6  22925464.664                    22925473.297
 111844211.884 7  87151452.71245  21283225.398                    21283233.789
 124061826.354 6  96671622.59343  23608190.695                    23608202.535
 108287651.974 8  84380079.27646  20606439.656                    20606445.465
 110047541.955 7  85751439.42245  20941338.242                    20941346.379
 114072267.675 7  88887528.309 7  21707228.773                    21707236.691
 118278860.155 7  92165421.344 7  22507708.078                    22507717.156
 11  8  3  1 17 30.0000000  0  9G25G09G17G04G27G02G10G12G05
 129252428.517 6 100716357.909 5  24595930.078                    24595941.953
 122663060.941 6  95581683.32943  23342016.227                    23342026.797
 120524713.647 7  93915457.250 6  22935072.047                    22935080.895
 111915969.760 7  87207367.92045  21296880.570                    21296888.922
 124123252.913 6  96719487.33343  23619879.867                    23619891.109
 108279014.558 8  84373348.83846  20604796.188                    20604801.172
 110028005.629 8  85736216.33045  20937620.500                    20937628.719
 114003562.350 8  88833991.708 7  21694154.453                    21694162.281
 118181168.482 7  92089298.037 7  22489118.422                    22489126.672
 11  8  3  1 18  0.0000000  0  9G25G09G17G04G27G02G10G12G05
 129149519.890 6 100636169.487 6  24576347.414                    24576358.785
 122737929.066 7  95640022.02444  23356263.125                    23356273.113
 120575426.531 7  93954973.762 6  22944722.859                    22944731.359
 111988009.575 8  87263502.81845  21310589.547                    21310597.859
 124184896.087 6  96767520.86543  23631611.758                    23631621.652
 108270778.813 8  84366931.38046  20603228.414                    20603234.090
 110009161.337 8  85721532.48445  20934034.773                    20934042.652
 113935313.351 7  88780810.693 7  21681167.406                    21681174.742
 118083779.519 7  92013410.608 7  22470585.641                    22470594.449
 11  8  3  1 18 30.0000000  0  9G25G09G17G04G27G02G10G12G05
 129046727.927 6 100556071.889 6  24556786.422                    24556797.977
 122813043.698 6  95698552.82343  23370556.773                    23370567.348
 120626284.374 7  93994603.232 6  22954400.305                    22954409.063
 112060250.981 7  87319794.80845  21324336.305                    21324345.082
 124246674.785 6  96815660.00343  23643367.609                    23643378.090
 108262865.382 8  84360765.08646  20601722.969                    20601728.691
 109990931.615 8  85707327.53545  20930565.680                    20930573.992
 113867444.589 7  88727925.950 7  21668251.766                    21668259.777
 117986617.767 7  91937700.221 7  22452095.883                    22452104.488
 11  8  3  1 19  0.0000000  0  9G25G09G17G04G27G02G10G12G05
 128943972.098 6 100476002.532 6  24537232.039                    24537244.910
 122888318.530 6  95757208.45244  23384881.797                    23384892.332
 120677205.007 6  94034281.625 6  22964090.781                    22964098.484
 112132608.953 7  87376177.62245  21338106.078                    21338114.117
 124308503.378 6  96863838.04543  23655132.977                    23655143.750
 108255190.754 8  84354784.86046  20600262.523                    20600268.113
 109973234.738 8  85693537.77945  20927197.820                    20927206.547
 113799875.651 7  88675274.847 7  21655393.922                    21655401.777
 117889603.348 7  91862104.644 7  22433635.094                    22433644.082
 11  8  3  1 19 30.0000000  0  9G25G09G17G04G27G02G10G12G05
 128841414.936 6 100396087.939 6  24517716.211                    24517728.539
 122963910.318 6  95816111.07944  23399266.383                    23399276.898
 120728349.047 6  94074134.121 6  22973823.078                    22973831.934
 112205240.988 8  87432774.00045  21351927.258                    21351935.473
 124370538.985 6  96912177.45143  23666937.875                    23666949.406
 108247914.004 8  84349114.68346  20598877.234                    20598883.395
 109956232.115 7  85680289.00845  20923962.852                    20923970.285
 113732768.885 7  88622983.876 7  21642624.141                    21642632.008
 117792899.319 7  91786750.916 7  22415232.383                    22415241.324
 11  8  3  1 20  0.0000000  0  9G25G09G17G04G27G02G10G12G05
 128738981.812 6 100316269.978 6  24498224.000                    24498236.105
 123039738.194 6  95875197.66744  23413695.984                    23413706.461
 120779639.584 7  94114100.761 6  22983583.500                    22983591.758
 112278068.097 7  87489522.38445  21365785.477                    21365794.094
 124432701.836 6  96960615.91343  23678766.602                    23678778.355
 108240956.650 8  84343693.37346  20597553.805                    20597559.242
 109939847.432 7  85667521.73345  20920844.742                    20920852.457
 113666050.054 7  88570995.189 7  21629927.703                    21629935.574
 117696431.497 7  91711581.248 7  22396875.406                    22396883.750
 11  8  3  1 20 30.0000000  0  9G25G09G17G04G27G02G10G12G05
 128636593.996 6 100236487.313 6  24478739.977                    24478752.262
 123115717.857 6  95934402.49444  23428155.141                    23428165.480
 120830996.146 6  94154118.846 6  22993356.734                    22993364.609
 112351006.862 8  87546357.76545  21379665.445                    21379673.949
 124494907.902 6  97009088.06843  23690605.047                    23690615.715
 108234236.565 8  84338456.95146  20596274.773                    20596280.695
 109924000.419 7  85655173.42445  20917829.328                    20917836.676
 113599640.010 8  88519247.119 7  21617290.273                    21617297.863
 117600121.652 7  91636534.701 7  22378548.148                    22378556.977
 11  8  3  1 21  0.0000000  0  9G25G09G17G04G27G02G10G12G05
 128534410.987 6 100156864.190 6  24459296.117                    24459307.012
 123192002.631 7  95993845.09344  23442671.133                    23442681.250
 120882576.266 6  94194311.150 6  23003171.297                    23003180.176
 112424212.173 7  87603400.83645  21393595.906                    21393604.457
 124557311.340 6  97057714.01343  23702479.359                    23702491.578
 108227909.845 8  84333527.04846  20595070.883                    20595076.832
 109908848.991 7  85643367.13845  20914946.102                    20914954.066
 113533698.524 7  88467864.156 7  21604742.164                    21604750.199
 117504129.354 7  91561735.574 7  22360281.516                    22360290.016
 11  8  3  1 21 30.0000000  0  9G25G09G17G04G27G02G10G12G05
 128432359.349 6 100077343.451 6  24439876.258                    24439887.934
 123268513.151 7  96053463.60044  23457230.820                    23457241.191
 120934304.560 6  94234618.894 6  23013014.617                    23013023.535
 112497605.793 7  87660590.64545  21407562.211                    21407570.617
 124619833.590 6  97106432.54243  23714377.492                    23714388.762
 108221899.610 8  84328843.75046  20593927.195                    20593932.695
 109894318.305 7  85632044.55045  20912180.141                    20912188.617
 113468151.829 7  88416788.838 7  21592268.977                    21592276.516
 117408382.082 7  91487127.402 7  22342060.922                    22342070.082
 11  8  3  1 22  0.0000000  0  9G25G09G17G04G27G02G10G12G05
 128330362.431 6  99997865.341 6  24420466.109                    24420478.688
 123345166.766 7  96113193.61044  23471817.539                    23471828.398
 120986102.185 7  94274980.655 7  23022872.016                    23022880.773
 112571106.273 7  87717863.71645  21421549.039                    21421557.547
 124682392.563 6  97155179.71443  23726281.664                    23726293.223
 108216125.600 8  84324344.52046  20592828.586                    20592834.293
 109880329.953 8  85621144.54445  20909518.906                    20909526.918
 113402923.150 8  88365961.313 7  21579855.906                    21579864.129
 117312803.525 7  91412650.669 7  22323872.875                    22323881.645
 11  8  3  1 22 30.0000000  0  9G25G09G17G04G27G02G10G12G05
 128228576.196 6  99918551.407 6  24401096.656                    24401109.754
 123422113.500 6  96173152.00144  23486459.883                    23486471.160
 121038123.326 6  94315516.599 6  23032770.891                    23032779.867
 112644865.121 7  87775338.13145  21435585.422                    21435593.910
 124745138.954 6  97204072.90243  23738222.641                    23738233.504
 108210740.237 8  84320148.13246  20591803.898                    20591809.559
 109867038.301 8  85610787.43445  20906989.836                    20906997.500
 113338168.401 7  88315503.108 7  21567533.609                    21567541.461
 117217550.143 7  91338427.327 7  22305746.391                    22305755.375
 11  8  3  1 23  0.0000000  0  9G25G09G17G04G27G02G10G12G05
 128126928.423 6  99839345.350 6  24381754.430                    24381766.816
 123499275.256 7  96233277.94344  23501143.688                    23501154.180
 121090294.285 6  94356169.298 6  23042698.984                    23042707.012
 112718805.423 8  87832953.92445  21449655.039                    21449663.953
 124807995.098 6  97253051.58343  23750183.172                    23750194.738
 108205667.805 8  84316195.59446  20590838.508                    20590844.086
 109854369.107 8  85600915.34845  20904578.531                    20904586.508
 113273815.427 7  88265357.962 7  21555287.813                    21555295.117
 117122549.837 7  91264401.182 7  22287668.852                    22287677.480
 11  8  3  1 23 30.0000000  0  9G25G09G17G04G27G02G10G12G05
 128025422.048 6  99760249.513 6  24362437.664                    24362450.477
 123576649.423 7  96293569.42844  23515866.742                    23515877.590
 121142615.524 6  94396939.073 6  23052655.445                    23052663.805
 112792925.556 7  87890709.85645  21463759.914                    21463768.223
 124870959.045 6  97302114.29243  23762164.758                    23762176.305
 108200907.772 8  84312486.49146  20589932.750                    20589938.488
 109842324.203 8  85591529.72145  20902286.516                    20902294.293
 113209867.211 7  88215528.213 7  21543118.711                    21543126.602
 117027806.353 7  91190575.173 7  22269639.633                    22269648.695
 11  8  3  1 24  0.0000000  0  9G25G09G17G04G27G02G10G12G05
 127923977.230 6  99681201.645 6  24343134.086                    24343146.996
 123654149.776 6  96353959.20644  23530614.711                    23530626.336
 121195004.750 7  94437761.831 6  23062624.555                    23062633.207
 112867140.758 8  87948539.87445  21477882.977                    21477890.750
 124933945.318 6  97351194.37643  23774151.766                    23774162.820
 108196376.537 8  84308955.66746  20589070.367                    20589076.051
 109830821.355 8  85582566.48645  20900097.898                    20900105.598
 113146243.298 7  88165951.176 7  21531011.672                    21531018.988
 116933239.864 7  91116887.062 7  22251643.852                    22251652.891
 11  8  3  1 24 30.0000000  0  9G25G09G17G04G27G02G10G12G05
 127822756.670 6  99602328.510 6  24323872.820                    24323884.969
 123731933.045 6  96414569.43644  23545416.977                    23545427.395
 121247623.213 6  94478763.217 6  23072637.719                    23072646.160
 112941609.076 8  88006567.12145  21492053.820                    21492061.910
 124997111.321 6  97400414.48843  23786171.016                    23786183.188
 108192233.202 8  84305727.09646  20588281.797                    20588287.852
 109820021.545 8  85574151.06545  20898042.531                    20898050.594
 113083106.395 7  88116753.615 7  21518997.117                    21519004.492
 116839013.726 7  91043464.162 7  22233713.680                    22233721.813
 11  8  3  1 25  0.0000000  0  9G25G09G17G04G27G02G10G12G05
 127721685.080 6  99523571.453 6  24304638.984                    24304651.930
 123809917.998 6  96475336.83643  23560257.258                    23560267.750
 121300393.724 6  94519883.095 6  23082679.508                    23082687.965
 113016250.831 8  88064729.52145  21506257.352                    21506265.918
 125060376.409 6  97449711.85043  23798209.586                    23798222.301
 108188399.063 8  84302739.46546  20587552.211                    20587558.031
 109809848.043 8  85566223.67645  20896106.375                    20896114.457
 113020381.090 7  88067876.782 7  21507060.883                    21507068.098
 116745052.820 7  90970247.940 7  22215833.156                    22215842.230
 11  8  3  1 25 30.0000000  0  9G25G09G17G04G27G02G10G12G05
 127620683.780 6  99444869.151 6  24285419.906                    24285431.703
 123888020.022 6  96536195.45543  23575119.328                    23575130.004
 121353235.427 6  94561058.436 6  23092734.727                    23092743.602
 113090982.587 8  88122962.04645  21520478.539                    21520486.930
 125123656.726 6  97499021.04643  23810251.883                    23810263.914
 108184791.836 8  84299928.64746  20586865.656                    20586871.332
 109800220.303 7  85558721.56545  20894274.313                    20894282.332
 112957988.363 7  88019259.105 7  21495187.719                    21495195.129
 116651278.899 7  90897177.416 7  22197988.641                    22197997.195
 11  8  3  1 26  0.0000000  0  9G25G09G17G04G27G02G10G12G05
 127519912.468 6  99366346.092 6  24266243.313                    24266255.336
 123966392.916 6  96597265.11843  23590032.836                    23590044.305
 121406305.760 7  94602411.936 6  23102834.086                    23102842.770
 113165959.279 7  88181385.42645  21534745.914                    21534754.141
 125187106.445 6  97548462.26643  23822325.633                    23822338.621
 108181567.607 7  84297416.26846  20586252.141                    20586257.902
 109791296.115 8  85551767.65945  20892576.117                    20892584.246
 112896087.967 7  87971025.055 7  21483408.586                    21483416.199
 116557852.140 7  90824377.411 7  22180210.047                    22180218.652
 11  8  3  1 26 30.0000000  0  9G25G09G17G04G27G02G10G12G05
 127419298.354 6  99287945.494 6  24247097.133                    24247108.066
 124044957.928 6  96658484.52743  23604983.828                    23604994.371
 121459530.131 7  94643885.453 6  23112962.164                    23112970.898
 113241103.647 8  88239939.46745  21549045.047                    21549053.703
 125250647.628 6  97597974.74943  23834417.813                    23834429.797
 108178650.336 8  84295143.07846  20585697.445                    20585702.563
 109783000.854 8  85545303.83945  20890997.477                    20891005.414
 112834607.018 7  87923117.858 7  21471709.070                    21471717.266
 116464700.075 7  90751791.452 7  22162483.922                    22162491.781
 11  8  3  1 27  0.0000000  0  9G25G09G17G04G27G02G10G12G05
 127318764.530 6  99209607.484 6  24227965.594                    24227976.039
 124123631.937 6  96719788.87943  23619954.914                    23619966.164
 121512829.307 6  94685417.275 6  23123104.141                    23123113.125
 113316333.831 8  88298560.37045  21563361.422                    21563369.816
 125314197.991 6  97647494.34943  23846511.211                    23846523.098
 108175958.800 8  84293045.78446  20585184.992                    20585190.590
 109775255.541 8  85539268.55745  20889523.516                    20889531.414
 112773468.025 7  87875477.102 7  21460074.906                    21460082.164
 116371746.107 7  90679359.859 7  22144794.883                    22144803.746
 11  8  3  1 27 30.0000000  0  9G25G09G17G04G27G02G10G12G05
 127218466.574 6  99131453.264 6  24208879.813                    24208890.285
 124202564.463 6  96781294.68943  23634975.305                    23634985.668
 121566357.298 7  94727127.397 6  23133291.133                    23133299.258
 113391801.042 7  88357365.99945  21577722.242                    21577730.207
 125377907.718 6  97697138.16643  23858635.367                    23858646.215
 108173645.026 8  84291242.85546  20584744.422                    20584750.105
 109768213.633 8  85533781.38745  20888183.758                    20888191.430
 112712826.761 7  87828224.183 7  21448534.977                    21448542.426
 116279146.301 7  90607204.236 7  22127174.219                    22127182.578
 11  8  3  1 28  0.0000000  0  9G25G09G17G04G27G02G10G12G05
 127118332.724 7  99053426.944 6  24189824.633                    24189835.465
 124281677.866 6  96842941.38543  23650030.531                    23650040.633
 121620039.850 7  94768957.939 6  23143506.477                    23143514.566
 113467428.983 7  88416296.86745  21592114.063                    21592122.336
 125441699.862 6  97746846.23343  23870774.797                    23870785.656
 108171633.705 8  84289675.59646  20584361.797                    20584367.168
 109761801.239 7  85528784.74945  20886963.727                    20886971.398
 112652611.093 7  87781302.905 7  21437076.086                    21437084.031
 116186829.290 7  90535268.971 7  22109606.602                    22109615.047
 11  8  3  1 28 30.0000000  0  9G25G09G17G04G27G02G10G12G05
 127018366.367 7  98975531.129 6  24170802.406                    24170813.254
 124360969.777 7  96904727.19043  23665119.695                    23665129.781
 121673878.328 7  94810909.993 6  23153751.359                    23153759.441
 113543216.044 7  88475351.71245  21606535.391                    21606543.379
 125505572.368 6  97796616.88643  23882929.039                    23882940.613
 108169924.765 8  84288343.95346  20584036.828                    20584042.277
 109756019.892 8  85524279.82445  20885863.492                    20885871.203
 112592824.031 7  87734715.602 7  21425699.469                    21425706.820
 116094798.452 7  90463556.688 7  22092093.328                    22092102.031
 11  8  3  1 29  0.0000000  0  9G25G09G17G04G27G02G10G12G05
 126918487.022 7  98897703.133 6  24151795.375                    24151807.363
 124440353.295 6  96966584.39443  23680225.438                    23680236.266
 121727790.391 7  94852919.391 6  23164010.547                    23164019.520
 113619077.456 7  88534464.48345  21620971.469                    21620979.898
 125569439.556 6  97846383.42043  23895082.313                    23895093.707
 108168434.130 8  84287182.42946  20583753.523                    20583759.117
 109750786.896 8  85520202.20045  20884867.172                    20884875.340
 112533385.074 7  87688399.542 7  21414388.281                    21414395.820
 116002973.760 7  90392005.050 7  22074620.109                    22074628.727
 11  8  3  1 29 30.0000000  0  9G25G09G17G04G27G02G10G12G05
 126818857.224 6  98820069.582 6  24132836.242                    24132848.063
 124519985.120 6  97028635.06644  23695379.117                    23695389.332
 121781936.611 7  94895111.220 6  23174314.352                    23174323.328
 113695170.835 7  88593758.01145  21635451.445                    21635459.777
 125633458.515 6  97896268.18343  23907265.172                    23907276.508
 108167320.557 8  84286314.71946  20583541.352                    20583546.738
 109746262.679 7  85516676.85845  20884006.469                    20884014.422
 112474456.522 7  87642481.209 7  21403174.773                    21403182.996
 115911517.727 7  90320740.663 7  22057216.203                    22057225.301
 11  8  3  1 30  0.0000000  0  9G25G09G17G04G27G02G10G12G05
 126719402.710 6  98742572.586 6  24113910.883                    24113922.223
 124599784.985 7  97090816.66344  23710564.414                    23710575.168
 121836240.239 7  94937425.707 6  23184647.453                    23184656.664
 113771417.484 7  88653170.97145  21649960.828                    21649969.426
 125697549.484 6  97946209.07743  23919461.227                    23919472.625
 108166506.052 8  84285680.04546  20583386.305                    20583391.680
 109742371.002 7  85513644.39745  20883265.805                    20883273.742
 112415962.933 7  87596901.803 7  21392044.117                    21392051.293
 115820357.229 7  90249706.582 7  22039868.953                    22039877.703
 11  8  3  1 30 30.0000000  0  9G25G09G17G04G27G02G10G12G05
 126620044.813 6  98665150.949 6  24095003.156                    24095015.234
 124679668.225 7  97153063.27343  23725765.625                    23725776.223
 121890620.976 7  94979800.275 6  23194996.664                    23195004.957
 113847734.370 7  88712638.65545  21664483.859                    21664492.047
 125761628.554 6  97996140.71443  23931654.570                    23931667.418
 108165908.365 8  84285214.31946  20583272.453                    20583278.258
 109739030.927 7  85511041.77545  20882629.969                    20882638.066
 112357826.250 7  87551600.499 7  21380980.680                    21380988.617
 115729413.593 7  90178841.466 7  22022563.031                    22022571.516
 11  8  3  1 31  0.0000000  0  9G25G09G17G04G27G02G10G12G05
 126520942.646 6  98587928.535 6  24076143.984                    24076156.328
 124759788.155 7  97215494.27643  23741012.398                    23741023.078
 121945235.574 7  95022357.104 6  23205389.172                    23205397.324
 113924275.411 7  88772281.01045  21679049.023                    21679057.316
 125825849.392 6  98046182.79343  23943876.031                    23943888.563
 108165682.830 8  84285038.58746  20583229.695                    20583235.176
 109736399.265 8  85508991.14845  20882129.266                    20882137.438
 112300204.832 7  87506700.726 7  21370015.914                    21370023.313
 115638845.941 7  90108269.335 7  22005328.672                    22005337.203
 11  8  3  1 31 30.0000000  0  9G25G09G17G04G27G02G10G12G05
 126422022.523 6  98510847.946 6  24057320.547                    24057331.973
 124840064.909 6  97278047.48744  23756288.883                    23756299.551
 122000008.246 7  95065037.078 6  23215811.961                    23215820.551
 114000962.533 7  88832037.20645  21693641.734                    21693650.133
 125890132.939 6  98096273.79143  23956109.094                    23956121.008
 108165751.746 8  84285092.29446  20583242.750                    20583248.082
 109734400.030 7  85507433.32345  20881749.266                    20881756.809
 112243024.867 7  87462144.921 7  21359134.852                    21359142.316
 115548580.840 7  90037932.956 7  21988151.242                    21988160.617
 11  8  3  1 32  0.0000000  0  9G25G09G17G04G27G02G10G12G05
 126323288.046 6  98433912.026 6  24038532.133                    24038543.863
 124920495.970 7  97340720.92344  23771594.148                    23771604.949
 122054940.450 6  95107841.374 6  23226264.422                    23226273.820
 114077794.862 7  88891906.54445  21708262.641                    21708270.691
 125954477.627 6  98146412.37943  23968353.594                    23968365.566
 108166115.567 8  84285375.81046  20583311.484                    20583317.379
 109733034.677 8  85506369.42445  20881489.031                    20881496.867
 112186289.629 7  87417935.664 7  21348338.320                    21348345.723
 115458621.982 7  89967835.211 7  21971032.789                    21971041.344
 11  8  3  1 32 30.0000000  0  9G25G09G17G04G27G02G10G12G05
 126224657.705 6  98357057.226 6  24019763.672                    24019774.902
 125000993.821 6  97403446.40443  23786912.625                    23786923.691
 122109948.526 7  95150704.806 6  23236733.000                    23236741.500
 114154686.207 7  88951821.86845  21722894.297                    21722903.008
 126018796.335 6  98196530.72543  23980592.789                    23980605.445
 108166688.725 8  84285822.43646  20583420.867                    20583426.652
 109732219.274 8  85505734.06245  20881333.703                    20881341.457
 112129917.250 7  87374009.149 7  21337611.266                    21337618.648
 115368888.643 7  89897913.187 7  21953957.336                    21953965.961
 11  8  3  1 33  0.0000000  0  9G25G09G17G04G27G02G10G12G05
 126126296.606 6  98280412.256 6  24001046.367                    24001056.984
 125081717.617 6  97466347.95443  23802273.969                    23802284.785
 122165195.553 7  95193754.427 6  23247246.672                    23247254.594
 114231797.121 7  89011908.27845  21737568.820                    21737576.824
 126083248.912 5  98246753.37042  23992857.633                    23992870.223
 108167632.747 8  84286558.04846  20583600.594                    20583606.160
 109732116.514 8  85505654.00745  20881314.508                    20881322.332
 112074072.188 7  87330493.534 7  21326984.203                    21326991.879
 115279545.998 7  89828295.598 7  21936955.703                    21936964.141
 11  8  3  1 33 30.0000000  0  9G25G09G17G04G27G02G10G12G05
 126028128.887 7  98203917.918 6  23982365.547                    23982376.020
 125162585.650 6  97529361.88944  23817662.758                    23817673.438
 122220603.840 7  95236929.687 6  23257790.234                    23257798.188
 114309047.141 7  89072103.09145  21752268.453                    21752276.836
 126147754.169 5  98297017.04643  24005132.539                    24005145.539
 108168868.207 8  84287520.75346  20583835.375                    20583840.922
 109732648.643 8  85506068.67045  20881415.555                    20881423.758
 112018678.593 7  87287329.714 7  21316443.180                    21316450.758
 115190518.263 7  89758923.392 7  21920014.289                    21920022.449
 11  8  3  1 34  0.0000000  0  9G25G09G17G04G27G02G10G12G05
 125930074.883 7  98127512.204 6  23963705.961                    23963716.977
 125243512.014 6  97592421.26243  23833061.961                    23833073.176
 122276090.919 7  95280166.361 6  23268348.609                    23268357.012
 114386351.664 7  89132340.35845  21766978.695                    21766987.551
 126212226.807 5  98347255.31043  24017401.953                    24017413.914
 108170311.111 8  84288645.11646  20584109.984                    20584115.793
 109733732.919 8  85506913.57145  20881622.148                    20881630.230
 111963655.989 7  87244454.965 7  21305972.133                    21305979.758
 115101726.008 7  89689734.676 7  21903117.648                    21903126.059
 11  8  3  1 34 30.0000000  0  9G25G09G17G04G27G02G10G12G05
 125832296.456 7  98051321.214 6  23945100.055                    23945110.512
 125324652.684 6  97655647.65044  23848503.922                    23848514.508
 122331816.709 7  95323589.053 6  23278953.445                    23278961.566
 114463868.315 7  89192742.93345  21781730.063                    21781738.523
 126276823.348 6  98397590.15243  24029694.078                    24029706.313
 108172119.956 8  84290054.61946  20584454.484                    20584459.844
 109735528.499 7  85508312.74145  20881963.852                    20881971.508
 111909165.978 7  87201995.232 7  21295603.453                    21295611.125
 115013331.155 7  89620855.627 7  21886296.648                    21886304.820
 11  8  3  1 35  0.0000000  0  9G25G09G17G04G27G02G10G12G05
 125734718.501 7  97975286.453 6  23926531.180                    23926542.777
 125405926.479 6  97718977.78343  23863968.617                    23863980.141
 122387704.627 7  95367138.075 6  23289588.539                    23289596.633
 114541517.494 7  89253248.76645  21796505.773                    21796514.969
 126341463.573 6  98447959.01543  24041995.164                    24042006.762
 108174215.935 8  84291687.86546  20584853.055                    20584858.547
 109737958.219 7  85510206.03745  20882426.258                    20882434.000
 111855133.104 8  87159891.705 7  21285321.430                    21285328.641
 114925259.028 7  89552228.058 7  21869537.078                    21869545.484
 11  8  3  1 35 30.0000000  0  9G25G09G17G04G27G02G10G12G05
 125637264.696 7  97899348.478 6  23907986.313                    23907998.297
 125487250.989 6  97782347.41544  23879444.711                    23879455.848
 122443675.171 7  95410751.490 6  23300239.305                    23300247.547
 114619218.078 7  89313794.66145  21811291.875                    21811300.617
 126406065.681 6  98498298.21343  24054289.242                    24054301.043
 108176518.808 8  84293482.32946  20585291.078                    20585296.984
 109740943.243 7  85512532.04845  20882994.180                    20883001.934
 111801480.652 7  87118084.611 7  21275111.555                    21275118.648
 114837433.583 7  89483792.698 7  21852824.320                    21852832.789
 11  8  3  1 36  0.0000000  0  9G25G09G17G04G27G02G10G12G05
 125540092.593 6  97823630.044 7  23889494.750                    23889507.586
 125568777.626 6  97845874.55543  23894958.445                    23894970.258
 122499884.062 7  95454550.626 6  23310934.961                    23310943.504
 114697123.138 7  89374499.90445  21826116.672                    21826125.438
 126470781.807 6  98548726.23743  24066604.195                    24066616.090
 108179182.326 8  84295557.81346  20585798.359                    20585803.590
 109744638.747 7  85515411.68345  20883697.016                    20883705.176
 111748365.343 7  87076696.076 7  21265003.633                    21265011.711
 114750012.293 7  89415672.273 7  21836188.656                    21836196.945
 11  8  3  1 36 30.0000000  0  9G25G09G17G04G27G02G10G12G05
 125443129.003 7  97748074.084 6  23871042.539                    23871055.566
 125650427.412 6  97909497.64443  23910496.734                    23910507.738
 122556256.019 7  95498476.847 6  23321662.547                    23321671.293
 114775155.070 7  89435303.99845  21840965.844                    21840974.117
 126535533.167 6  98599181.71643  24078925.695                    24078938.016
 108182129.602 8  84297854.39646  20586359.234                    20586364.719
 109748968.805 8  85518785.77445  20884521.125                    20884528.973
 111695713.569 8  87035668.730 7  21254984.992                    21254992.145
 114662922.443 7  89347810.122 7  21819615.930                    21819624.293
 11  8  3  1 37  0.0000000  0  9G25G09G17G04G27G02G10G12G05
 125346377.255 6  97672683.187 6  23852631.984                    23852644.359
 125732197.555 6  97973214.53544  23926056.477                    23926068.137
 122612792.284 7  95542531.067 6  23332421.273                    23332429.598
 114853312.478 7  89496205.87145  21855838.578                    21855846.832
 126600317.922 6  98649663.20943  24091253.133                    24091265.938
 108185360.091 8  84300371.67846  20586973.570                    20586979.172
 109753933.989 7  85522654.77345  20885465.891                    20885473.684
 111643528.076 7  86995004.708 7  21245053.898                    21245061.844
 114576167.091 7  89280208.593 7  21803106.766                    21803114.930
 11  8  3  1 37 30.0000000  0  9G25G09G17G04G27G02G10G12G05
 125249756.316 6  97597394.212 6  23834245.430                    23834258.000
 125814001.207 6  98036957.52943  23941623.359                    23941634.898
 122669409.674 7  95586648.505 6  23343194.891                    23343202.930
 114931509.796 7  89557138.84145  21870719.359                    21870727.773
 126665049.654 6  98700103.40643  24103571.383                    24103584.781
 108188789.387 8  84303043.87646  20587626.297                    20587631.699
 109759450.882 7  85526953.67646  20886515.430                    20886523.910
 111591727.682 7  86954640.777 7  21235196.859                    21235204.402
 114489665.619 7  89212804.921 7  21786646.352                    21786654.512
 11  8  3  1 38  0.0000000  0  9G25G09G17G04G27G02G10G12G05
 125153430.827 6  97522335.467 7  23815915.641                    23815927.871
 125895996.695 6  98100850.00843  23957226.234                    23957237.789
 122726270.459 6  95630955.623 6  23354014.930                    23354023.719
 115009907.144 7  89618227.66645  21885637.867                    21885646.621
 126729887.708 6  98750626.48243  24115910.977                    24115922.375
 108192577.633 8  84305995.77046  20588347.391                    20588352.770
 109765681.116 7  85531808.42945  20887701.625                    20887709.391
 111540476.157 7  86914704.533 7  21225444.109                    21225451.895
 114403582.918 7  89145727.557 7  21770265.359                    21770273.699
 11  8  3  1 38 30.0000000  0  9G25G09G17G04G27G02G10G12G05
 125057324.604 7  97447447.596 7  23797627.492                    23797639.184
 125978102.040 7  98164828.11943  23972850.883                    23972861.664
 122783296.461 6  95675391.466 6  23364866.688                    23364875.676
 115088423.758 7  89679409.43145  21900578.984                    21900587.715
 126794750.508 6  98801168.75743  24128253.484                    24128265.352
 108196645.250 8  84309165.34746  20589121.188                    20589126.871
 109772545.876 7  85537157.62745  20889007.969                    20889015.547
 111489696.982 8  86875136.363 7  21215781.359                    21215788.523
 114317842.780 7  89078917.115 7  21753949.648                    21753957.336
 11  8  3  1 39  0.0000000  0  9G25G09G17G04G27G02G10G12G05
 124961359.206 7  97372669.473 6  23779365.289                    23779377.570
 126060232.516 6  98228825.80043  23988479.930                    23988490.680
 122840406.668 7  95719892.918 6  23375734.703                    23375742.871
 115166976.862 7  89740619.62545  21915527.367                    21915535.570
 126859554.233 6  98851665.10343  24140585.594                    24140597.508
 108200909.987 8  84312488.52946  20589932.563                    20589938.434
 109779963.775 7  85542937.84945  20890419.063                    20890427.070
 111439310.855 8  86835874.454 7  21206192.992                    21206200.262
 114232366.631 7  89012312.391 7  21737683.523                    21737691.953
 11  8  3  1 39 30.0000000  0  9G25G09G17G04G27G02G10G12G05
 124865695.125 7  97298126.101 6  23761161.242                    23761172.617
 126142542.936 6  98292963.71343  24004142.555                    24004153.633
 122897759.850 6  95764583.722 6  23386648.133                    23386657.297
 115245722.077 7  89801979.51845  21930512.047                    21930520.320
 126924454.188 6  98902236.33642  24152935.789                    24152947.242
 108205528.639 8  84316087.49346  20590811.891                    20590816.895
 109788092.720 7  85549272.11546  20891965.992                    20891974.102
 111389477.982 8  86797043.660 7  21196710.102                    21196717.789
 114147315.421 7  88946038.783 7  21721498.969                    21721507.133
 11  8  3  1 40  0.0000000  0  9G25G09G17G04G27G02G10G12G05
 124770258.436 7  97223759.927 6  23742999.633                    23743011.766
 126224953.323 6  98357179.51843  24019825.016                    24019836.035
 122955279.454 6  95809404.171 6  23397594.461                    23397602.547
 115324581.304 7  89863428.26345  21945518.430                    21945527.246
 126989370.826 6  98952820.60143  24165289.266                    24165300.438
 108210423.377 8  84319901.58746  20591742.977                    20591748.805
 109796856.205 7  85556100.84646  20893633.781                    20893641.582
 111340123.823 8  86758585.892 7  21187318.156                    21187325.184
 114062615.588 7  88880038.984 7  21705380.898                    21705389.078
 11  8  3  1 40 30.0000000  0  9G25G09G17G04G27G02G10G12G05
 124674972.726 7  97149511.385 6  23724867.266                    23724879.969
 126307381.240 6  98421408.98043  24035510.695                    24035522.414
 123012887.100 6  95854293.264 6  23408556.398                    23408565.109
 115403473.458 7  89924902.67145  21960530.891                    21960539.633
 127054222.328 6  99003354.12142  24177630.078                    24177641.594
 108215513.935 8  84323868.26746  20592712.219                    20592717.590
 109806174.697 7  85563362.03245  20895407.039                    20895414.957
 111291171.424 8  86720441.185 7  21178002.875                    21178010.313
 113978190.251 7  88814253.070 7  21689315.656                    21689323.512
 11  8  3  1 41  0.0000000  0  9G25G09G17G04G27G02G10G12G05
 124579994.497 7  97075502.426 6  23706793.633                    23706805.660
 126389977.294 6  98485769.43743  24051228.203                    24051240.242
 123070736.919 6  95899371.042 6  23419564.609                    23419573.246
 115482550.674 7  89986521.26645  21975578.844                    21975587.359
 127119160.087 6  99053954.86442  24189986.164                    24189998.938
 108220952.959 8  84328106.48546  20593746.617                    20593752.387
 109816201.749 7  85571175.34345  20897315.094                    20897322.652
 111242776.625 7  86682730.973 7  21168793.617                    21168800.586
 113894196.404 7  88748803.368 7  21673332.023                    21673340.000
 11  8  3  1 41 30.0000000  0  9G25G09G17G04G27G02G10G12G05
 124485251.798 7  97001676.969 6  23688764.695                    23688776.297
 126472663.345 6  98550200.02743  24066963.336                    24066974.867
 123128754.697 6  95944579.682 6  23430604.945                    23430613.785
 115561736.298 7  90048224.35745  21990647.328                    21990655.816
 127184106.668 6  99104562.47642  24202345.859                    24202358.027
 108226664.689 8  84332557.19546  20594833.508                    20594839.320
 109826862.694 7  85579482.59145  20899343.711                    20899351.750
 111194866.777 8  86645398.641 7  21159677.078                    21159684.063
 113810561.927 7  88683633.711 7  21657416.859                    21657424.855
 11  8  3  1 42  0.0000000  0  9G25G09G17G04G27G02G10G12G05
 124390747.250 7  96928037.108 6  23670781.383                    23670792.715
 126555436.056 6  98614698.12443  24082714.594                    24082726.152
 123186940.955 6  95989919.629 6  23441677.625                    23441686.012
 115641028.826 7  90110010.72445  22005735.906                    22005744.902
 127249059.182 6  99155174.68343  24214705.563                    24214717.559
 108232648.092 8  84337219.60046  20595972.164                    20595977.805
 109838156.794 7  85588283.21245  20901492.992                    20901500.840
 111147443.584 8  86608445.534 7  21150651.984                    21150659.328
 113727289.421 7  88618746.104 7  21641570.344                    21641578.891
 11  8  3  1 42 30.0000000  0  9G25G09G17G04G27G02G10G12G05
 124296400.909 7  96854520.511 6  23652828.094                    23652839.148
 126638209.622 6  98679196.92843  24098465.594                    24098477.992
 123245213.238 6  96035326.583 6  23452766.664                    23452775.215
 115720343.611 7  90171814.44245  22020829.563                    22020838.301
 127313932.456 6  99205725.15943  24227051.516                    24227062.973
 108238819.153 8  84342028.23446  20597146.781                    20597152.258
 109850001.291 8  85597512.71045  20903746.773                    20903754.801
 111100426.478 8  86571808.849 7  21141705.680                    21141712.691
 113644299.122 7  88554078.395 7  21625778.008                    21625786.285
 11  8  3  1 43  0.0000000  0  9G25G09G17G04G27G02G10G12G05
 124202375.874 7  96781254.283 6  23634935.391                    23634946.977
 126721141.043 6  98743818.69943  24114246.406                    24114259.359
 123303732.861 6  96080926.283 6  23463901.727                    23463911.145
 115799839.131 7  90233759.00445  22035956.922                    22035965.113
 127378884.304 6  99256336.83043  24239410.555                    24239423.004
 108245337.191 8  84347107.23246  20598386.734                    20598392.281
 109862556.594 8  85607296.07145  20906136.016                    20906143.719
 111053978.073 8  86535615.306 7  21132866.633                    21132874.020
 113561754.146 7  88489757.699 7  21610069.859                    21610078.367
 11  8  3  1 43 30.0000000  0  9G25G09G17G04G27G02G10G12G05
 124108597.115 6  96708179.977 6  23617089.359                    23617101.008
 126804148.976 6  98808500.09843  24130042.133                    24130054.867
 123362422.076 6  96126658.121 6  23475070.352                    23475079.289
 115879436.136 7  90295782.63145  22051103.648                    22051112.141
 127443834.287 6  99306947.04843  24251771.625                    24251782.656
 108252123.418 8  84352395.22046  20599678.289                    20599683.449
 109875744.694 8  85617572.52245  20908645.578                    20908653.344
 111008022.625 8  86499805.888 7  21124121.250                    21124128.828
 113479579.629 7  88425725.660 7  21594432.742                    21594440.598
 11  8  3  1 44  0.0000000  0  9G25G09G17G04G27G02G10G12G05
 124014986.550 7  96635236.703 6  23599276.023                    23599287.688
 126887149.747 6  98873175.93443  24145836.672                    24145849.148
 123421200.864 6  96172459.773 6  23486255.320                    23486263.922
 115959051.933 7  90357820.92744  22066253.930                    22066262.605
 127508698.798 6  99357490.73243  24264114.172                    24264126.398
 108259095.948 8  84357828.37746  20601005.117                    20601010.746
 109889484.170 8  85628278.62845  20911260.195                    20911267.777
 110962481.381 8  86464319.224 7  21115454.898                    21115462.594
 113397696.906 7  88361920.996 7  21578850.680                    21578859.109
 11  8  3  1 44 30.0000000  0  9G25G09G17G04G27G02G10G12G05
 123921703.226 7  96562548.441 6  23581524.961                    23581536.480
 126970296.674 5  98937965.64143  24161658.813                    24161671.484
 123480225.774 6  96218453.210 6  23497488.086                    23497496.824
 116038841.207 7  90419994.38844  22081437.148                    22081445.758
 127573631.680 6  99408087.63643  24276470.086                    24276482.387
 108266409.839 8  84363527.53546  20602397.078                    20602402.406
 109903930.850 8  85639535.78645  20914009.445                    20914017.309
 110917512.396 8  86429278.485 7  21106898.109                    21106905.266
 113316265.872 8  88298468.305 7  21563355.508                    21563363.094
 11  8  3  1 45  0.0000000  0  9G25G09G17G04G27G02G10G12G05
 123828674.131 7  96490058.239 7  23563822.000                    23563833.645
 127053510.499 6  99002807.47443  24177494.000                    24177506.789
 123539421.409 6  96264579.674 6  23508752.344                    23508761.027
 116118726.553 7  90482242.71744  22096638.758                    22096647.863
 127638554.457 6  99458676.69943  24288825.195                    24288837.055
 108273988.027 8  84369432.63246  20603838.883                    20603844.453
 109919008.585 8  85651284.69645  20916878.297                    20916886.434
 110873042.067 8  86394626.308 7  21098435.273                    21098442.285
 113235213.149 7  88235310.389 7  21547931.195                    21547939.262
 11  8  3  1 45 30.0000000  0  9G25G09G17G04G27G02G10G12G05
 123735901.806 7  96417768.168 7  23546168.086                    23546179.469
 127136787.914 6  99067698.83843  24193342.422                    24193353.965
 123598788.099 6  96310839.421 6  23520049.703                    23520058.133
 116198705.994 7  90544564.34044  22111858.938                    22111867.203
 127703464.349 6  99509255.73743  24301177.352                    24301189.563
 108281829.815 8  84375543.13446  20605331.102                    20605336.598
 109934717.033 8  85663525.06945  20919867.586                    20919875.625
 110829072.035 8  86360363.969 7  21090068.281                    21090075.207
 113154541.140 7  88172449.139 7  21532579.875                    21532587.871
 11  8  3  1 46  0.0000000  0  9G25G09G17G04G27G02G10G12G05
 123643305.999 7  96345615.629 6  23528547.789                    23528558.727
 127220042.600 6  99132572.49743  24209186.289                    24209197.320
 123658243.605 6  96357168.376 6  23531363.617                    23531372.332
 116278694.849 7  90606893.31944  22127080.164                    22127088.566
 127768275.691 6  99559757.91943  24313510.109                    24313522.543
 108289850.733 8  84381793.21746  20606857.563                    20606862.844
 109950972.558 8  85676191.72245  20922961.000                    20922968.941
 110785521.069 8  86326428.176 7  21081780.781                    21081788.457
 113074169.601 7  88109822.021 7  21517285.656                    21517294.027
 11  8  3  1 46 30.0000000  0  9G25G09G17G04G27G02G10G12G05
 123551050.958 7  96273728.617 6  23510992.063                    23511003.004
 127303432.740 6  99197551.70243  24225054.063                    24225065.762
 123717949.537 6  96403692.478 6  23542725.602                    23542734.273
 116358853.083 7  90669354.26844  22142333.078                    22142341.996
 127833147.520 6  99610307.28043  24325855.266                    24325867.898
 108298211.215 8  84388307.90246  20608448.242                    20608453.566
 109967936.428 8  85689410.34645  20926188.922                    20926196.766
 110742553.273 8  86292946.797 7  21073604.133                    21073611.230
 112994262.710 7  88047556.968 7  21502079.594                    21502087.633
 11  8  3  1 47  0.0000000  0  9G25G09G17G04G27G02G10G12G05
 123459060.541 7  96202047.780 6  23493487.031                    23493498.098
 127386876.441 6  99262572.67243  24240932.477                    24240944.293
 123777827.408 6  96450350.535 6  23554119.727                    23554128.266
 116439100.130 7  90731884.42344  22157603.859                    22157612.941
 127897998.663 6  99660840.48243  24338195.664                    24338208.996
 108306831.335 8  84395024.88946  20610089.188                    20610094.406
 109985529.115 8  85703118.94745  20929536.820                    20929544.711
 110700090.783 8  86259859.171 7  21065524.016                    21065531.113
 112914744.605 7  87985594.860 7  21486947.594                    21486956.164
 11  8  3  1 47 30.0000000  0  9G25G09G17G04G27G02G10G12G05
 123367256.518 7  96130512.198 6  23476017.086                    23476028.023
 127470289.579 6  99327569.78643  24256805.766                    24256817.023
 123837796.883 6  96497080.014 6  23565531.094                    23565539.992
 116519353.238 7  90794419.30344  22172875.516                    22172884.090
 127962745.332 6  99711292.33643  24350516.805                    24350529.777
 108315628.692 8  84401879.97546  20611762.703                    20611768.266
 110003669.122 7  85717254.03545  20932988.766                    20932996.898
 110658055.116 8  86227104.140 7  21057524.781                    21057532.188
 112835536.496 7  87923874.322 7  21471875.188                    21471883.348
 11  8  3  1 48  0.0000000  0  9G25G09G17G04G27G02G10G12G05
 123275799.396 7  96059246.936 6  23458613.367                    23458624.430
 127553826.485 6  99392663.39643  24272702.594                    24272714.094
 123898016.209 6  96544004.166 6  23576991.094                    23576999.363
 116599768.736 7  90857080.73045  22188178.461                    22188187.082
 128027542.822 6  99761783.75443  24362848.039                    24362860.266
 108324760.197 8  84408995.45546  20613500.656                    20613506.043
 110022513.477 8  85731937.97045  20936574.758                    20936582.406
 110616606.229 8  86194806.336 7  21049637.000                    21049644.348
 112756799.146 7  87862520.597 7  21456891.688                    21456900.160
 11  8  3  1 48 30.0000000  0  9G25G09G17G04G27G02G10G12G05
 123184615.381 7  95988194.515 6  23441261.914                    23441272.668
 127637407.827 6  99457791.57443  24288607.117                    24288619.102
 123958409.205 6  96591063.636 6  23588483.273                    23588492.000
 116680268.377 7  90919807.71844  22203496.703                    22203505.859
 128092312.009 6  99812253.12642  24375173.070                    24375184.859
 108334148.276 8  84416310.84846  20615287.125                    20615292.465
 110041985.450 8  85747110.95845  20940279.992                    20940288.199
 110575668.894 8  86162907.143 7  21041847.219                    21041854.090
 112678458.828 7  87801476.249 7  21441983.750                    21441991.855
 11  8  3  1 49  0.0000000  0  9G25G09G17G04G27G02G10G12G05
 123093626.687 7  95917294.286 6  23423947.008                    23423958.211
 127720949.760 6  99522889.04943  24304505.094                    24304516.465
 124018895.801 6  96638196.037 6  23599994.125                    23600002.277
 116760770.121 7  90982536.35644  22218816.164                    22218824.492
 128156969.674 6  99862635.58643  24387476.992                    24387489.449
 108343711.255 8  84423762.52746  20617107.094                    20617112.281
 110062003.440 7  85762709.42045  20944089.180                    20944097.395
 110535164.693 8  86131345.449 7  21034139.234                    21034146.430
 112600437.264 7  87740680.273 7  21427136.969                    21427145.234
 11  8  3  1 49 30.0000000  0  9G25G09G17G04G27G02G10G12G05
 123002991.582 7  95846669.565 6  23406699.125                    23406710.840
 127804604.372 6  99588074.34643  24320424.492                    24320435.648
 124079631.872 6  96685522.847 6  23611551.750                    23611559.652
 116841427.727 7  91045386.42544  22234164.938                    22234173.082
 128221668.708 6  99913050.26342  24399788.336                    24399801.473
 108353603.430 8  84431470.72146  20618989.367                    20618994.656
 110082722.380 8  85778854.07645  20948032.055                    20948039.941
 110495250.249 8  86100243.312 7  21026543.539                    21026550.898
 112522892.645 8  87680255.947 7  21412380.648                    21412388.840
 11  8  3  1 50  0.0000000  0  9G25G09G17G04G27G02G10G12G05
 122912637.124 7  95776263.515 6  23389505.633                    23389516.652
 127888292.918 6  99653286.11943  24336349.406                    24336361.160
 124140542.339 6  96732985.541 6  23623142.375                    23623150.719
 116922164.020 7  91108297.81344  22249528.227                    22249536.574
 128286331.053 5  99963436.39942  24412093.750                    24412106.586
 108363747.879 8  84439375.49746  20620919.484                    20620924.789
 110104066.205 7  85795485.64345  20952093.391                    20952101.250
 110455852.443 8  86069543.740 7  21019046.570                    21019054.316
 112445752.020 7  87620146.419 7  21397701.352                    21397709.234
 11  8  3  1 50 30.0000000  0  9G25G09G17G04G27G02G10G12G05
 122822566.855 7  95706078.951 6  23372365.719                    23372377.516
 127972013.225 6  99718522.62443  24352281.570                    24352292.820
 124201628.014 6  96780584.782 6  23634766.289                    23634774.957
 117002978.121 7  91171269.84644  22264906.766                    22264914.832
 128350954.631 6 100013792.31342  24424391.938                    24424404.570
 108374144.528 8  84447476.78846  20622897.875                    20622903.539
 110126034.720 7  85812603.98945  20956274.430                    20956281.840
 110416973.580 8  86039248.543 7  21011647.914                    21011655.496
 112369018.794 7  87560354.356 7  21383099.484                    21383107.711
 11  8  3  1 51  0.0000000  0  9G25G09G17G04G27G02G10G12G05
 122732700.287 7  95636053.130 6  23355264.977                    23355276.379
 128055678.793 6  99783716.47243  24368202.625                    24368214.086
 124262806.194 6  96828256.087 6  23646408.172                    23646416.473
 117083785.278 7  91234236.45144  22280283.367                    22280291.871
 128415453.909 6 100064051.30542  24436665.141                    24436678.949
 108384708.818 8  84455708.70446  20624908.531                    20624913.707
 110148543.974 8  85830143.69045  20960557.109                    20960565.238
 110378532.392 8  86009294.385 7  21004332.977                    21004340.762
 112292612.430 7  87500816.979 7  21368559.281                    21368567.898
 11  8  3  1 51 30.0000000  0  9G25G09G17G04G27G02G10G12G05
 122643200.498 7  95566313.119 6  23338233.922                    23338244.953
 128139446.761 6  99848990.10143  24384142.555                    24384154.336
 124324237.697 7  96876124.790 6  23658098.648                    23658107.316
 117164744.048 7  91297321.20444  22295689.266                    22295697.770
 128479986.678 6 100114336.45642  24448947.039                    24448958.938
 108395600.185 8  84464195.49546  20626980.609                    20626986.090
 110171753.825 7  85848229.31745  20964974.070                    20964982.047
 110340691.033 8  85979807.638 7  20997131.969                    20997139.121
 112216695.635 7  87441661.085 7  21354113.289                    21354121.406
 11  8  3  1 52  0.0000000  0  9G25G09G17G04G27G02G10G12G05
 122553992.564 7  95496800.494 6  23321258.094                    23321269.199
 128223236.554 6  99914280.78242  24400087.820                    24400098.758
 124385845.308 6  96924130.712 6  23669821.781                    23669830.500
 117245775.607 7  91360462.66444  22311109.453                    22311118.020
 128544472.654 6 100164585.19442  24461216.477                    24461230.184
 108406740.017 8  84472875.89746  20629100.836                    20629106.156
 110195585.602 8  85866799.54545  20969508.859                    20969517.027
 110303373.343 8  85950728.924 7  20990031.227                    20990038.109
 112141193.469 8  87382828.273 7  21339745.617                    21339753.434
 11  8  3  1 52 30.0000000  0  9G25G09G17G04G27G02G10G12G05
 122464998.435 7  95427454.495 6  23304322.680                    23304333.813
 128306964.353 6  99979523.09242  24416020.219                    24416031.992
 124447548.634 6  96972211.237 6  23681563.688                    23681572.234
 117326797.585 7  91423596.68144  22326527.195                    22326536.258
 128608828.707 5 100214732.67442  24473463.648                    24473476.754
 108418046.200 8  84481685.92646  20631252.430                    20631257.777
 110219957.955 7  85885791.00045  20974147.047                    20974154.938
 110266500.220 8  85921996.633 7  20983013.859                    20983021.395
 112066027.680 8  87324257.579 7  21325442.023                    21325449.801
 11  8  3  1 53  0.0000000  0  8G25G09G17G04G02G10G12G05
 122376377.063 7  95358398.968 6  23287458.617                    23287469.918
 128390783.216 6 100044836.40143  24431970.813                    24431982.668
 124509504.159 7  97020488.248 6  23693353.109                    23693361.883
 117407964.479 7  91486843.59944  22341972.656                    22341981.422
 108429673.825 8  84490746.42346  20633464.734                    20633469.945
 110245026.383 7  85905324.86045  20978917.250                    20978924.988
 110230229.685 8  85893733.895 7  20976112.172                    20976119.047
 111991357.099 8  87266072.755 7  21311232.422                    21311240.332
 11  8  3  1 53 30.0000000  0  8G25G09G17G04G02G10G12G05
 122288054.890 7  95289576.558 6  23270651.367                    23270662.402
 128474613.629 6 100110158.69543  24447923.180                    24447935.488
 124571636.127 6  97068902.793 6  23705176.531                    23705185.406
 117489198.466 7  91550142.80944  22357431.203                    22357440.125
 108441545.274 8  84499996.91246  20635724.227                    20635729.352
 110270713.443 7  85925340.76745  20983805.133                    20983813.129
 110194487.404 8  85865882.782 7  20969310.297                    20969317.680
 111917108.023 8  87208216.383 7  21297103.203                    21297111.355
 11  8  3  1 54  0.0000000  0  8G25G09G17G04G02G10G12G05
 122200035.507 7  95220990.089 6  23253902.016                    23253912.734
 128558453.188 6 100175488.11743  24463877.586                    24463890.160
 124633945.706 6  97117455.715 6  23717033.539                    23717042.617
 117570499.014 7  91613493.87944  22372902.398                    22372910.832
 108453660.527 8  84509437.38446  20638029.641                    20638035.055
 110297019.065 7  85945838.66245  20988811.016                    20988818.879
 110159275.681 8  85838445.082 7  20962610.016                    20962617.023
 111843283.547 8  87150690.864 7  21283055.000                    21283062.797
 11  8  3  1 54 30.0000000  0  8G25G09G17G04G02G10G12G05
 122112238.106 7  95152576.605 6  23237194.555                    23237205.066
 128642215.531 6 100240757.33743  24479817.352                    24479829.531
 124696349.637 6  97166082.151 6  23728909.039                    23728918.070
 117651781.099 7  91676830.55245  22388369.500                    22388378.453
 108465934.953 8  84519001.88846  20640365.234                    20640370.359
 110323858.653 7  85966752.63545  20993918.344                    20993926.512
 110124512.554 7  85811356.941 7  20955994.742                    20956002.258
 111769802.899 8  87093433.269 7  21269072.086                    21269079.820
 11  8  3  1 55  0.0000000  0  8G25G09G17G04G02G10G12G05
 122024826.444 7  95084463.708 6  23220560.727                    23220571.129
 128726058.469 6 100306089.43743  24495772.781                    24495784.082
 124759009.450 6  97214907.985 6  23740832.484                    23740841.066
 117733204.354 7  91740277.23444  22403863.891                    22403872.813
 108478528.558 8  84528815.09746  20642761.703                    20642766.832
 110351392.446 7  85988207.54845  20999157.961                    20999165.652
 110090360.726 7  85784745.138 7  20949495.578                    20949502.922
 111696829.681 8  87036571.069 7  21255185.883                    21255193.879
 11  8  3  1 55 30.0000000  0  8G25G09G17G04G02G10G12G05
 121937724.815 7  95016592.382 6  23203985.781                    23203996.379
 128809900.335 6 100371420.63743  24511727.102                    24511738.555
 124821847.076 6  97263872.367 6  23752790.258                    23752799.523
 117814688.606 7  91803771.43244  22419370.789                    22419378.688
 108491361.324 8  84538814.67146  20645203.664                    20645208.883
 110379541.157 7  86010141.62045  21004514.398                    21004522.266
 110056743.481 8  85758549.901 7  20943098.367                    20943105.934
 111624287.656 8  86980044.873 7  21241381.344                    21241389.129
 11  8  3  1 56  0.0000000  0  8G25G09G17G04G02G10G12G05
 121850855.500 7  94948902.065 6  23187454.289                    23187464.766
 128893657.716 6 100436685.98943  24527664.898                    24527677.305
 124884782.113 6  97312912.640 6  23764766.180                    23764774.801
 117896152.120 7  91867249.50844  22434871.883                    22434880.906
 108504352.058 8  84548937.33646  20647675.664                    20647681.410
 110408223.217 7  86032491.29345  21009972.539                    21009980.480
 110023581.653 7  85732709.522 7  20936788.180                    20936795.289
 111552098.981 8  86923793.997 7  21227644.133                    21227651.898
 11  8  3  1 56 30.0000000  0  8G25G09G17G04G02G10G12G05
 121764377.830 7  94881516.932 6  23170998.703                    23171009.008
 128977484.381 6 100502005.33343  24543617.578                    24543629.590
 124947971.887 6  97362151.440 6  23776790.906                    23776799.578
 117977750.034 7  91930832.28544  22450399.500                    22450408.375
 108517656.359 8  84559304.33446  20650207.531                    20650212.848
 110437594.592 7  86055378.09145  21015562.008                    21015569.582
 109991033.720 7  85707347.505 7  20930594.344                    20930602.000
 111480422.725 8  86867942.427 7  21214004.945                    21214012.301
 11  8  3  1 57  0.0000000  0  8G25G09G17G04G02G10G12G05
 121678218.297 7  94814379.674 6  23154603.000                    23154613.680
 129061301.018 6 100567316.88643  24559567.211                    24559579.781
 125011340.378 6  97411529.479 6  23788849.898                    23788858.414
 118059404.661 7  91994459.27744  22465937.695                    22465946.648
 108531196.831 8  84569855.36146  20652783.969                    20652789.480
 110467577.552 7  86078741.45145  21021267.352                    21021274.988
 109959025.032 8  85682405.687 7  20924503.633                    20924510.512
 111409185.340 8  86812432.818 7  21200448.766                    21200456.391
 11  8  3  1 57 30.0000000  0  8G25G09G17G04G02G10G12G05
 121592300.769 7  94747431.009 6  23138253.102                    23138263.941
 129145025.361 6 100632556.52443  24575499.242                    24575511.711
 125074808.831 6  97460985.412 6  23800926.797                    23800935.723
 118141035.730 7  92058067.91444  22481472.234                    22481480.633
 108544893.350 8  84580527.98746  20655390.227                    20655395.680
 110498092.239 7  86102519.14445  21027074.078                    21027081.781
 109927478.165 8  85657823.715 7  20918500.188                    20918507.633
 111338310.139 8  86757205.435 7  21186961.398                    21186969.266
 11  8  3  1 58  0.0000000  0  8G25G09G17G04G02G10G12G05
 121506781.284 7  94680792.501 6  23121979.367                    23121990.422
 129228808.035 6 100697841.58143  24591442.828                    24591454.914
 125138531.165 6  97510639.180 6  23813053.695                    23813061.828
 118222795.104 7  92121776.51344  22497029.969                    22497038.582
 108558898.198 8  84591440.87246  20658055.391                    20658060.914
 110529291.159 7  86126830.00145  21033011.078                    21033018.770
 109896548.000 8  85633722.300 7  20912614.039                    20912621.676
 111267952.903 8  86702381.659 7  21173572.867                    21173580.711
 11  8  3  1 58 30.0000000  0  8G25G09G17G04G02G10G12G05
 121421587.911 7  94614408.070 6  23105767.664                    23105778.141
 129312571.328 6 100763111.55843  24607382.906                    24607394.977
 125202432.975 6  97560432.790 6  23825212.969                    23825222.094
 118304606.721 7  92185525.81644  22512598.516                    22512606.953
 108573135.819 8  84602535.12646  20660764.492                    20660770.059
 110561098.110 7  86151614.64645  21039063.711                    21039071.520
 109866161.195 8  85610044.279 7  20906832.102                    20906839.180
 111198041.381 8  86647905.196 7  21160268.992                    21160277.090
 11  8  3  1 59  0.0000000  0  8G25G09G17G04G02G10G12G05
 121336723.253 7  94548279.801 6  23089618.695                    23089629.434
 129396312.314 6 100828364.12443  24623318.047                    24623330.059
 125266514.411 6  97610366.346 6  23837407.672                    23837415.980
 118386469.044 7  92249314.63044  22528176.734                    22528184.598
 108587604.834 8  84613809.70046  20663518.070                    20663523.668
 110593511.755 7  86176872.04045  21045231.469                    21045239.426
 109836319.244 7  85586790.830 7  20901153.344                    20901160.449
 111128577.760 8  86593777.746 7  21147050.836                    21147058.719
 11  8  3  1 59 30.0000000  0  8G25G09G17G04G02G10G12G05
 121252108.241 7  94482346.065 7  23073517.047                    23073527.668
 129479945.996 6 100893533.09343  24639232.867                    24639245.027
 125330694.176 6  97660376.545 6  23849621.164                    23849629.359
 118468298.850 7  92313078.11544  22543748.516                    22543756.922
 108602222.355 8  84625199.98146  20666300.133                    20666305.664
 110626449.370 7  86202537.71945  21051499.539                    21051507.059
 109806942.270 8  85563899.696 7  20895562.711                    20895570.398
 111059482.950 8  86539937.686 7  21133902.383                    21133910.391
 11  8  3  2  0  0.0000000  0  8G25G09G17G04G02G10G12G05
 121167904.557 7  94416732.853 7  23057492.953                    23057504.430
 129563628.341 6 100958740.01743  24655157.211                    24655169.559
 125395131.360 6  97710587.311 6  23861883.148                    23861891.137
 118550253.851 7  92376939.15744  22559343.531                    22559351.867
 108617146.307 8  84636829.06146  20669139.633                    20669144.863
 110660068.830 7  86228734.71345  21057897.000                    21057904.730
 109778189.929 7  85541495.280 7  20890091.516                    20890098.832
 110990917.988 8  86486510.487 7  21120854.961                    21120862.164
 11  8  3  2  0 30.0000000  0  8G25G09G17G04G02G10G12G05
 121084037.977 7  94351382.321 7  23041534.008                    23041545.695
 129647279.319 6 101023922.48742  24671074.727                    24671088.348
 125459749.481 6  97760939.075 6  23874179.242                    23874187.711
 118632255.775 7  92440836.75744  22574948.000                    22574956.281
 108632298.572 8  84648636.01946  20672022.961                    20672028.465
 110694292.039 7  86255402.14845  21064409.484                    21064417.469
 109749987.014 7  85519519.001 7  20884724.617                    20884731.734
 110922808.439 8  86433438.148 7  21107894.242                    21107901.895
 11  8  3  2  1  0.0000000  0  8G25G09G17G04G02G10G12G05
 121000429.960 7  94286233.250 7  23025624.445                    23025635.477
 129730814.915 6 101089015.06342  24686971.500                    24686984.133
 125524467.453 6  97811368.652 6  23886494.117                    23886503.219
 118714222.055 7  92504706.60344  22590545.336                    22590553.941
 108647596.722 8  84660556.67146  20674934.383                    20674939.902
 110729036.193 7  86282475.52745  21071021.055                    21071028.777
 109722253.503 8  85497908.484 7  20879447.086                    20879454.871
 110855075.195 8  86380659.047 7  21095004.375                    21095012.395
 11  8  3  2  1 30.0000000  0  8G25G09G17G04G02G10G12G05
 120917239.859 7  94221409.833 7  23009793.188                    23009805.051
 129814388.881 6 101154137.49743  24702875.055                    24702887.832
 125589442.140 6  97861998.274 6  23898858.219                    23898867.422
 118796307.850 7  92568669.56644  22606166.383                    22606174.371
 108663196.701 8  84672712.50746  20677902.664                    20677908.070
 110764456.814 7  86310076.02445  21077761.406                    21077769.477
 109695147.688 7  85476787.081 7  20874289.078                    20874296.469
 110787877.293 8  86328297.088 7  21082217.703                    21082225.227
 11  8  3  2  2  0.0000000  0  8G25G09G17G04G02G10G12G05
 120834393.893 7  94156854.595 7  22994027.500                    22994039.656
 129897921.527 6 101219227.76643  24718771.016                    24718783.859
 125654597.745 6  97912768.852 6  23911257.250                    23911265.742
 118878435.376 7  92632665.03044  22621794.094                    22621803.168
 108679020.732 8  84685042.93846  20680913.453                    20680918.859
 110800476.179 7  86338143.07045  21084615.836                    21084623.297
 109668594.349 8  85456096.181 7  20869236.172                    20869243.313
 110721140.853 8  86276294.703 7  21069518.023                    21069525.465
 11  8  3  2  2 30.0000000  0  8G25G09G17G04G02G10G12G05
 120751895.440 7  94092570.124 7  22978328.992                    22978340.402
 129981410.812 6 101284284.23643  24734657.914                    24734671.895
 125719934.751 6  97963680.786 6  23923690.836                    23923698.762
 118960604.118 7  92696692.63544  22637430.625                    22637438.949
 108695068.249 8  84697547.50546  20683967.508                    20683973.082
 110837093.450 7  86366676.00945  21091583.859                    21091591.359
 109642595.823 7  85435837.595 7  20864288.789                    20864295.926
 110654868.499 8  86224653.948 7  21056906.672                    21056914.102
 11  8  3  2  3  0.0000000  0  8G25G09G17G04G02G10G12G05
 120669663.677 7  94028493.464 7  22962680.961                    22962692.395
 130064770.316 6 101349239.61743  24750521.453                    24750534.348
 125785370.140 6  98014669.410 6  23936143.102                    23936151.363
 119042729.186 7  92760686.17444  22653058.516                    22653066.859
 108711254.944 8  84710160.52446  20687047.734                    20687053.203
 110874224.120 7  86395609.00645  21098649.320                    21098657.145
 109617069.570 8  85415947.017 7  20859431.648                    20859438.707
 110588979.094 8  86173311.603 7  21044368.594                    21044376.238
 11  8  3  2  3 30.0000000  0  8G25G09G17G04G02G10G12G05
 120587862.551 7  93964752.391 7  22947114.664                    22947126.168
 130148158.143 6 101414217.01243  24766390.063                    24766402.688
 125851065.508 6  98065860.584 6  23948644.766                    23948652.828
 119124970.459 7  92824770.28844  22668708.266                    22668716.926
 108727740.841 8  84723006.68646  20690184.953                    20690190.211
 110912028.272 7  86425066.78745  21105843.047                    21105850.992
 109592178.160 7  85396551.128 7  20854694.719                    20854701.359
 110523636.311 8  86122395.189 7  21031934.055                    21031941.527
 11  8  3  2  4  0.0000000  0  8G25G09G17G04G02G10G12G05
 120506416.681 7  93901288.129 6  22931616.445                    22931627.059
 130231493.370 6 101479153.44243  24782248.711                    24782260.605
 125916943.155 6  98117193.790 6  23961179.703                    23961188.453
 119207248.630 7  92888883.13344  22684365.758                    22684374.316
 108744446.767 8  84736024.30846  20693363.875                    20693369.430
 110950426.032 7  86454987.12945  21113150.250                    21113157.969
 109567844.575 8  85377589.906 7  20850063.906                    20850071.176
 110458764.238 8  86071845.558 7  21019588.977                    21019596.527
 11  8  3  2  4 30.0000000  0  8G25G09G17G04G02G10G12G05
 120425246.738 7  93838038.870 7  22916169.555                    22916180.168
 130314691.263 6 101543982.87443  24798080.523                    24798093.125
 125982921.232 6  98168605.268 6  23973734.625                    23973743.980
 119289480.621 7  92952960.00044  22700013.734                    22700022.527
 108761289.846 8  84749148.80546  20696568.938                    20696574.574
 110989333.940 7  86485304.98645  21120554.336                    21120562.051
 109543988.345 8  85359000.645 7  20845524.188                    20845531.590
 110394283.127 8  86021600.580 7  21007318.813                    21007326.520
 11  8  3  2  5  0.0000000  0  8G25G09G17G04G02G10G12G05
 120344513.387 7  93775129.817 6  22900807.109                    22900817.645
 130397907.115 6 101608826.28543  24813915.367                    24813929.133
 126049157.766 6  98220218.140 6  23986338.844                    23986348.379
 119371822.864 7  93017122.80544  22715683.391                    22715691.539
 108778426.891 8  84762502.36246  20699830.430                    20699835.613
 111028908.764 7  86516142.52045  21128084.734                    21128093.027
 109520768.860 8  85340907.553 7  20841106.047                    20841113.234
 110330353.181 8  85971785.076 7  20995152.906                    20995161.121
 11  8  3  2  5 30.0000000  0  8G25G09G17G04G02G10G12G05
 120264143.231 7  93712503.761 6  22885513.070                    22885524.098
 130481061.592 6 101673621.88443  24829739.680                    24829752.469
 126115577.150 6  98271973.514 6  23998979.219                    23998988.051
 119454198.155 7  93081311.34544  22731358.258                    22731366.734
 108795780.678 8  84776024.81246  20703132.570                    20703137.973
 111069072.912 7  86547439.25845  21135728.219                    21135735.625
 109498111.326 8  85323252.337 7  20836794.234                    20836801.438
 110266900.295 7  85922341.321 7  20983078.656                    20983086.152
 11  8  3  2  6  0.0000000  0  8G25G09G17G04G02G10G12G05
 120184058.846 7  93650100.402 7  22870273.586                    22870284.445
 130564071.683 6 101738304.95942  24845536.047                    24845548.754
 126182099.508 6  98323809.080 6  24011637.453                    24011646.957
 119536525.301 7  93145462.38844  22747024.602                    22747033.121
 108813270.241 8  84789653.04846  20706460.547                    20706466.145
 111109744.778 7  86579131.63445  21143467.484                    21143475.266
 109475936.280 8  85305973.096 7  20832574.469                    20832581.734
 110203846.728 8  85873208.700 7  20971079.977                    20971087.309
 11  8  3  2  6 30.0000000  0  7G25G17G04G02G10G12G05
 120104417.550 7  93588042.308 6  22855118.219                    22855129.102
 126248879.665 6  98375845.564 6  24024345.219                    24024354.625
 119618957.626 7  93209695.35244  22762710.969                    22762719.297
 108831048.774 8  84803506.47446  20709843.547                    20709849.109
 111151077.206 7  86611338.71545  21151332.938                    21151340.391
 109454399.759 8  85289191.401 7  20828476.180                    20828483.137
 110141349.446 8  85824509.565 7  20959187.195                    20959194.551
 11  8  3  2  7  0.0000000  0  7G25G17G04G02G10G12G05
 120025144.476 7  93526271.131 7  22840032.930                    22840043.941
 126315840.348 6  98428022.680 6  24037087.977                    24037096.672
 119701416.509 7  93273949.03744  22778402.016                    22778411.203
 108849037.812 8  84817523.91546  20713266.883                    20713272.598
 111192991.622 7  86643999.31645  21159308.789                    21159316.445
 109433425.351 7  85272847.718 7  20824484.766                    20824492.195
 110079332.832 8  85776184.969 7  20947385.531                    20947393.180
 11  8  3  2  7 30.0000000  0  7G25G17G04G02G10G12G05
 119946244.511 7  93464790.689 6  22825018.875                    22825029.148
 126382984.125 6  98480342.510 6  24049864.766                    24049873.645
 119783902.810 7  93338224.06744  22794099.203                    22794107.754
 108867238.969 8  84831706.63846  20716730.359                    20716735.758
 111235488.630 7  86677113.86745  21167395.805                    21167403.602
 109413016.897 7  85256945.040 7  20820601.398                    20820608.727
 110017801.673 8  85728238.654 7  20935676.609                    20935684.250
 11  8  3  2  8  0.0000000  0  7G25G17G04G02G10G12G05
 119867720.246 7  93403602.990 6  22810075.758                    22810085.977
 126450311.093 6  98532805.088 6  24062676.211                    24062685.660
 119866415.317 7  93402519.52144  22809800.320                    22809808.973
 108885651.039 8  84846053.71746  20720233.914                    20720239.535
 111278566.592 7  86710681.12645  21175592.898                    21175600.961
 109393175.443 8  85241484.178 7  20816825.391                    20816832.781
 109956757.590 8  85680671.876 7  20924060.375                    20924067.648
 11  8  3  2  8 30.0000000  0  7G25G17G04G02G10G12G05
 119789490.472 7  93342644.784 7  22795189.344                    22795199.863
 126517737.916 6  98585345.441 6  24075507.914                    24075516.926
 119948869.182 7  93466769.28044  22825491.250                    22825499.539
 108904189.032 8  84860498.91146  20723762.188                    20723767.098
 111322139.983 7  86744634.43445  21183885.172                    21183892.918
 109373817.370 8  85226399.979 7  20813142.336                    20813149.098
 109896118.924 8  85633421.008 7  20912520.852                    20912528.344
 11  8  3  2  9  0.0000000  0  7G25G17G04G02G10G12G05
 119711719.540 7  93282044.141 7  22780389.797                    22780400.770
 126585426.436 6  98638089.737 6  24088388.656                    24088397.191
 120031424.770 7  93531098.34144  22841200.766                    22841209.965
 108923013.467 8  84875167.31746  20727343.695                    20727349.598
 111366369.187 7  86779098.76545  21192301.570                    21192309.441
 109355106.110 8  85211819.791 7  20809581.289                    20809588.383
 109836049.556 8  85586613.750 7  20901089.875                    20901097.438
 11  8  3  2  9 30.0000000  0  7G25G17G04G02G10G12G05
 119634332.337 7  93221742.493 7  22765663.547                    22765673.945
 126653298.533 6  98690977.079 6  24101304.102                    24101312.836
 120114003.262 7  93595445.22444  22856914.805                    22856923.547
 108942045.873 8  84889997.77646  20730965.570                    20730970.953
 111411174.700 7  86814012.16545  21200827.531                    21200835.324
 109336964.904 8  85197683.802 7  20806129.070                    20806136.441
 109776473.800 8  85540191.123 7  20889753.141                    20889760.961
 11  8  3  2 10  0.0000000  0  7G25G17G04G02G10G12G05
 119557249.807 7  93161678.239 7  22750995.242                    22751005.980
 126721273.044 6  98743944.233 6  24114238.969                    24114247.883
 120196521.982 7  93659745.52544  22872617.602                    22872626.188
 108961203.581 8  84904925.86646  20734611.422                    20734616.527
 111456472.935 7  86849309.50845  21209447.391                    21209455.367
 109319312.858 8  85183928.970 7  20802769.711                    20802777.020
 109717312.004 8  85494091.061 7  20878495.000                    20878502.551
 11  8  3  2 10 30.0000000  0  7G25G17G04G02G10G12G05
 119480631.065 7  93101975.384 7  22736415.414                    22736425.648
 126789506.736 6  98797113.326 6  24127223.320                    24127232.539
 120279136.001 7  93724120.09944  22888338.594                    22888347.469
 108980641.449 8  84920072.26546  20738310.102                    20738315.578
 111502418.928 7  86885111.59745  21218190.992                    21218198.664
 109302307.519 8  85170678.080 7  20799534.352                    20799541.020
 109658722.777 8  85448437.163 7  20867345.547                    20867353.313
 11  8  3  2 11  0.0000000  0  7G25G17G04G02G10G12G05
 119404402.894 7  93042576.874 7  22721909.219                    22721919.809
 126857924.017 7  98850425.490 6  24140243.398                    24140251.930
 120361768.651 6  93788509.16244  22904063.586                    22904072.344
 109000283.031 8  84935377.40146  20742048.039                    20742053.793
 111548935.169 7  86921358.02445  21227042.469                    21227050.469
 109285874.260 8  85157872.963 7  20796406.656                    20796413.820
 109600632.301 8  85403171.900 7  20856291.617                    20856299.398
 11  8  3  2 11 30.0000000  0  7G25G17G04G02G10G12G05
 119328568.036 7  92983484.822 7  22707478.375                    22707488.895
 126926525.185 7  98903880.955 6  24153296.797                    24153306.039
 120444418.653 7  93852911.78544  22919790.961                    22919799.848
 109020127.603 8  84950840.71346  20745824.367                    20745829.320
 111596019.770 7  86958047.33845  21236002.492                    21236010.121
 109270013.956 8  85145514.306 7  20793388.570                    20793396.043
 109543042.651 8  85358296.889 7  20845332.703                    20845340.180
 11  8  3  2 12  0.0000000  0  7G25G17G04G02G10G12G05
 119253045.186 7  92924635.912 7  22693106.586                    22693116.793
 126995226.310 6  98957414.307 6  24166371.219                    24166379.289
 120527001.432 7  93917262.00344  22935506.031                    22935514.504
 109040090.058 8  84966395.87546  20749622.547                    20749628.148
 111643587.494 7  86995113.11745  21245055.000                    21245062.402
 109254643.908 8  85133537.663 7  20790463.930                    20790471.281
 109485871.814 8  85313748.216 7  20834453.344                    20834460.910
 11  8  3  2 12 30.0000000  0  7G25G17G04G02G10G12G05
 119177999.255 7  92866158.634 7  22678826.453                    22678836.496
 127064189.968 6  99011152.234 6  24179494.688                    24179502.910
 120609677.805 6  93981685.15244  22951238.969                    22951247.113
 109060331.766 8  84982168.65146  20753475.273                    20753480.336
 111691798.616 7  87032680.24045  21254228.867                    21254236.152
 109239927.381 8  85122070.257 7  20787663.352                    20787670.289
 109429284.349 8  85269654.135 7  20823685.109                    20823692.797
 11  8  3  2 13  0.0000000  0  7G25G17G04G02G10G12G05
 119103353.613 7  92807993.260 7  22664621.414                    22664631.695
 127133337.246 6  99065033.245 6  24192651.820                    24192661.023
 120692367.602 7  94046118.76944  22966974.297                    22966982.754
 109080772.429 8  84998096.44046  20757364.117                    20757369.973
 111740572.432 7  87070685.83045  21263509.852                    21263517.754
 109225785.391 8  85111050.539 7  20784972.234                    20784978.996
 109373202.603 8  85225954.108 7  20813013.086                    20813020.445
 11  8  3  2 13 30.0000000  0  7G25G17G04G02G10G12G05
 119029030.153 7  92750078.933 7  22650477.742                    22650488.305
 127202587.580 6  99118994.548 6  24205829.742                    24205838.914
 120774989.279 6  94110499.31644  22982696.352                    22982705.316
 109101331.072 8  85014116.17246  20761276.719                    20761281.836
 111789826.111 7  87109065.33745  21272882.836                    21272890.234
 109212138.711 8  85100416.779 7  20782375.453                    20782382.262
 109317547.806 8  85182586.775 7  20802422.211                    20802429.859
 11  8  3  2 14  0.0000000  0  7G25G17G04G02G10G12G05
 118955188.504 7  92692540.041 7  22636426.148                    22636436.234
 127272098.238 6  99173158.707 6  24219058.648                    24219066.063
 120857698.611 7  94174948.13544  22998435.742                    22998444.105
 109122162.598 8  85030348.53246  20765240.727                    20765245.984
 111839715.292 7  87147940.03345  21282375.969                    21282383.719
 109199144.724 8  85090291.614 7  20779902.680                    20779909.641
 109262479.252 8  85139676.255 7  20791942.930                    20791950.449
 11  8  3  2 14 30.0000000  0  7G25G17G04G02G10G12G05
 118881754.193 7  92635318.555 7  22622452.164                    22622462.598
 127341792.228 6  99227465.699 6  24232320.234                    24232328.676
 120940417.773 6  94239404.61244  23014176.844                    23014185.055
 109143189.291 8  85046732.98146  20769242.344                    20769247.586
 111890161.091 7  87187248.46945  21291975.742                    21291983.184
 109186727.686 8  85080616.020 7  20777540.039                    20777546.723
 109207921.865 8  85097164.045 7  20781560.734                    20781568.539
 11  8  3  2 15  0.0000000  0  7G25G17G04G02G10G12G05
 118808730.537 7  92578417.059 7  22608556.156                    22608567.035
 127411670.401 6  99281916.223 6  24245618.195                    24245626.105
 121023146.363 7  94303868.45844  23029919.461                    23029927.637
 109164411.202 8  85063269.55046  20773280.570                    20773285.539
 111941162.148 7  87226989.55745  21301681.000                    21301688.410
 109174889.140 8  85071391.195 7  20775287.172                    20775293.785
 109153877.973 8  85055051.956 7  20771276.703                    20771284.422
 11  8  3  2 15 30.0000000  0  8G25G29G17G04G02G10G12G05
 118736036.265 7  92521772.213 7  22594722.938                    22594733.227
 129595082.58216 100983238.73815  24661134.563                    24661142.988
 127481649.122 6  99336445.102 6  24258933.977                    24258942.664
 121105799.452 6  94368273.49544  23045647.234                    23045655.941
 109185743.750 7  85079892.32546  20777339.828                    20777345.102
 111992633.012 7  87267096.72745  21311475.398                    21311482.875
 109163546.030 7  85062552.425 7  20773128.563                    20773135.238
 109100265.740 8  85013276.236 7  20761074.672                    20761082.039
 11  8  3  2 16  0.0000000  0  8G25G29G17G04G02G10G12G05
 118663835.863 7  92465512.210 7  22580983.148                    22580994.113
 129515380.053 6 100921132.958 5  24645967.125                    24645975.855
 127551890.615 6  99391178.756 6  24272299.852                    24272308.719
 121188538.122 6  94432745.19043  23061392.203                    23061400.770
 109207347.643 8  85096726.53746  20781450.844                    20781456.352
 112044733.573 7  87307694.57445  21321390.016                    21321397.449
 109152860.648 7  85054226.170 7  20771095.078                    20771102.332
 109047248.880 8  84971964.436 7  20750985.906                    20750993.289
 11  8  3  2 16 30.0000000  0  8G25G29G17G04G02G10G12G05
 118592053.345 7  92409577.844 7  22567323.531                    22567334.145
 129435606.200 6 100858971.556 5  24630786.125                    24630795.137
 127622316.639 6  99446056.190 6  24285701.188                    24285711.000
 121271282.959 6  94497221.70644  23077137.828                    23077146.996
 109229143.265 7  85113710.15346  20785598.555                    20785603.723
 112097383.880 7  87348720.79945  21331408.883                    21331416.641
 109142755.573 7  85046352.097 7  20769172.094                    20769178.961
 108994750.854 8  84931056.919 7  20740995.977                    20741002.918
 11  8  3  2 17  0.0000000  0  8G25G29G17G04G02G10G12G05
 118520609.147 7  92353907.079 7  22553728.398                    22553738.457
 129355680.100 6 100796691.525 5  24615575.984                    24615586.375
 127692844.795 6  99501013.206 6  24299122.945                    24299132.137
 121353950.635 6  94561638.08143  23092868.789                    23092877.508
 109251047.845 8  85130778.66746  20789767.031                    20789772.016
 112150499.260 7  87390109.41845  21341516.555                    21341524.461
 109133149.345 8  85038866.742 7  20767344.156                    20767351.008
 108942691.243 8  84890491.034 7  20731088.930                    20731096.387
 11  8  3  2 17 30.0000000  0  8G25G29G17G04G02G10G12G05
 118449664.478 7  92298625.561 7  22540228.055                    22540238.672
 129275760.823 6 100734416.857 5  24600368.297                    24600377.492
 127763633.915 6  99556173.529 6  24312593.898                    24312602.828
 121436699.000 6  94626117.33743  23108615.984                    23108624.551
 109273218.722 8  85148054.68346  20793986.117                    20793991.340
 112204236.769 7  87431982.80645  21351742.766                    21351749.813
 109124201.241 8  85031894.202 7  20765641.758                    20765648.320
 108891230.435 8  84850391.740 7  20721296.336                    20721304.176
 11  8  3  2 18  0.0000000  0  8G25G29G17G04G02G10G12G05
 118379144.389 7  92243674.903 7  22526808.055                    22526819.129
 129195771.552 6 100672087.586 5  24585146.664                    24585155.629
 127834606.685 6  99611477.011 6  24326099.148                    24326108.191
 121519449.482 6  94690598.22043  23124362.414                    23124371.523
 109295577.947 8  85165477.48746  20798240.398                    20798245.676
 112258516.968 7  87474279.09245  21362071.734                    21362079.223
 109115834.399 8  85025374.599 7  20764049.133                    20764056.113
 108840292.716 8  84810700.062 7  20711603.258                    20711610.781
 11  8  3  2 18 30.0000000  0  8G25G29G17G04G02G10G12G05
 118308971.936 7  92188995.122 7  22513454.977                    22513465.918
 129115633.645 6 100609642.524 5  24569897.102                    24569906.059
 127905683.876 6  99666861.809 6  24339624.813                    24339634.039
 121602122.027 6  94755018.39243  23140094.445                    23140103.508
 109318044.979 7  85182984.28346  20802515.813                    20802521.348
 112313258.375 7  87516934.74345  21372488.289                    21372495.934
 109107970.239 8  85019246.690 7  20762552.555                    20762559.535
 108789800.526 8  84771355.525 7  20701994.945                    20702002.801
 11  8  3  2 19  0.0000000  0  8G25G29G17G04G02G10G12G05
 118239303.830 7  92134708.329 7  22500197.672                    22500208.270
 129035501.719 6 100547202.119 5  24554648.484                    24554658.270
 127977019.825 6  99722448.250 6  24353199.773                    24353208.609
 121684869.828 7  94819497.20743  23155841.070                    23155849.375
 109340772.907 8  85200694.36746  20806840.641                    20806845.973
 112368613.140 7  87560068.32745  21383022.328                    21383029.645
 109100763.808 8  85013631.301 7  20761181.383                    20761187.906
 108739909.805 8  84732479.673 7  20692500.891                    20692508.383
 11  8  3  2 19 30.0000000  0  8G25G29G17G04G02G10G12G05
 118170067.491 7  92080757.973 7  22487022.438                    22487032.875
 128955301.610 6 100484708.598 5  24539386.172                    24539397.238
 128048539.552 7  99778177.928 6  24366809.977                    24366818.520
 121767616.979 6  94883975.52444  23171586.711                    23171596.066
 109363686.083 8  85218548.81646  20811201.039                    20811206.000
 112424504.781 7  87603620.25445  21393657.781                    21393665.633
 109094139.936 8  85008469.861 7  20759920.813                    20759927.516
 108690547.150 8  84694015.305 7  20683107.711                    20683115.281
 11  8  3  2 20  0.0000000  0  8G25G29G17G04G02G10G12G05
 118101265.600 7  92027146.147 7  22473929.930                    22473940.074
 128875034.157 6 100422162.609 5  24524112.664                    24524122.203
 128120243.121 6  99834050.858 6  24380454.258                    24380462.684
 121850362.654 6  94948452.65944  23187333.219                    23187341.000
 109386783.509 8  85236546.81746  20815596.352                    20815601.359
 112480931.153 7  87647588.85145  21404395.266                    21404403.270
 109088099.421 7  85003762.981 7  20758771.211                    20758778.234
 108641714.581 8  84655963.995 7  20673815.078                    20673822.902
 11  8  3  2 20 30.0000000  0  8G25G29G17G04G02G10G12G05
 118032816.823 7  91973809.475 7  22460904.211                    22460915.059
 128794616.279 6 100359499.366 6  24508808.578                    24508818.770
 128192046.923 6  99890001.869 6  24394118.648                    24394126.777
 121933022.258 6  95012862.74443  23203062.867                    23203070.836
 109409980.343 8  85254622.28446  20820010.867                    20820016.004
 112537806.325 7  87691907.16645  21415218.422                    21415226.039
 109082559.318 7  84999446.026 7  20757716.945                    20757724.246
 108593329.883 8  84618261.671 7  20664607.617                    20664615.023
 11  8  3  2 21  0.0000000  0  8G25G29G17G04G02G10G12G05
 117964885.304 7  91920875.863 7  22447977.156                    22447988.355
 128714210.444 6 100296845.547 6  24493508.727                    24493519.109
 128264112.801 6  99946157.073 6  24407831.297                    24407840.059
 122015756.453 6  95077330.94744  23218806.742                    23218815.129
 109433437.773 8  85272900.81146  20824474.305                    20824479.859
 112595289.652 7  87736699.38245  21426156.984                    21426165.055
 109077681.929 7  84995645.474 7  20756789.141                    20756796.047
 108545556.400 8  84581035.614 7  20655516.594                    20655524.391
 11  8  3  2 21 30.0000000  0  8G25G29G17G04G02G10G12G05
 117897394.977 7  91868286.033 7  22435134.211                    22435145.141
 128633738.717 6 100234140.390 6  24478196.133                    24478205.262
 128336362.203 6 100002455.340 6  24421579.969                    24421589.391
 122098485.915 6  95141795.46344  23234549.641                    23234558.020
 109457076.133 8  85291320.33346  20828972.578                    20828977.754
 112653301.156 7  87781903.15345  21437196.063                    21437204.160
 109073389.111 7  84992300.435 7  20755971.992                    20755979.117
 108498316.909 8  84544225.658 8  20646527.313                    20646534.719
 11  8  3  2 22  0.0000000  0  8G25G29G17G04G02G10G12G05
 117830266.937 7  91815978.510 7  22422360.438                    22422371.242
 128553120.624 6 100171321.151 6  24462853.859                    24462863.809
 128408713.897 6 100058833.254 6  24435348.492                    24435356.949
 122181128.477 7  95206192.29144  23250276.070                    23250284.152
 109480813.540 7  85309817.02646  20833489.406                    20833494.754
 112711757.040 7  87827453.19345  21448320.141                    21448327.805
 109069599.954 8  84989347.849 7  20755250.633                    20755257.648
 108451532.067 8  84507769.975 7  20637624.320                    20637631.965
 11  8  3  2 22 30.0000000  0  8G25G29G17G04G02G10G12G05
 117763660.999 7  91764077.813 7  22409685.734                    22409696.027
 128472514.589 6 100108511.322 6  24447515.641                    24447525.074
 128481325.360 6 100115413.618 6  24449166.266                    24449174.855
 122263840.671 7  95270643.34644  23266015.320                    23266024.051
 109504806.284 7  85328512.69346  20838055.195                    20838060.859
 112770812.855 7  87873470.70645  21459557.992                    21459565.844
 109066472.750 7  84986911.079 7  20754655.953                    20754663.129
 108405360.512 8  84471792.173 7  20628838.234                    20628845.602
 11  8  3  2 23  0.0000000  0  8G25G29G17G04G02G10G12G05
 117697502.720 7  91712525.962 7  22397095.836                    22397106.422
 128391844.146 6 100045651.283 6  24432164.758                    24432173.902
 128554119.802 6 100172136.541 6  24463018.477                    24463027.203
 122346544.954 6  95335088.25144  23281753.281                    23281762.059
 109528976.248 8  85347346.43846  20842654.492                    20842659.648
 112830389.352 7  87919893.94645  21470894.789                    21470902.629
 109063930.461 7  84984930.082 7  20754172.023                    20754178.953
 108359727.083 8  84436233.696 7  20620154.156                    20620161.668
 11  8  3  2 23 30.0000000  0  8G25G29G17G04G02G10G12G05
 117631793.913 7  91661324.323 7  22384592.344                    22384602.719
 128311109.672 6  99982741.359 6  24416801.406                    24416810.555
 128627096.825 5 100229001.723 6  24476904.656                    24476914.176
 122429239.742 7  95399525.74444  23297490.367                    23297498.395
 109553322.086 8  85366317.23246  20847287.313                    20847292.926
 112890483.919 7  87966720.87845  21482330.828                    21482338.391
 109061973.011 7  84983404.801 7  20753799.313                    20753806.539
 108314633.157 8  84401095.604 8  20611573.461                    20611580.906
 11  8  3  2 24  0.0000000  0  8G25G29G17G04G02G10G12G05
 117566454.342 7  91610410.418 7  22372158.477                    22372168.707
 128230229.124 6  99919717.593 6  24401410.195                    24401419.281
 128700173.378 6 100285944.490 6  24490811.586                    24490820.063
 122511841.677 6  95463890.88543  23313208.789                    23313217.094
 109577760.322 8  85385360.01646  20851938.273                    20851943.395
 112951011.939 7  88013885.56845  21493849.078                    21493856.535
 109060518.075 8  84982271.091 7  20753522.570                    20753529.543
 108269997.160 8  84366314.340 8  20603079.016                    20603087.141
 11  8  3  2 24 30.0000000  0  8G25G29G17G04G02G10G12G05
 117501647.812 7  91559911.883 7  22359826.234                    22359836.934
 128149364.655 6  99856706.399 6  24386021.781                    24386032.117
 128773511.327 5 100343090.966 5  24504766.320                    24504775.816
 122594511.383 6  95528308.84244  23328939.664                    23328948.582
 109602451.792 8  85404600.13346  20856636.523                    20856641.688
 113012132.502 7  88061511.98645  21505479.461                    21505486.891
 109059727.616 8  84981655.154 7  20753372.297                    20753379.262
 108225982.002 8  84332016.847 8  20594703.789                    20594711.305
 11  8  3  2 25  0.0000000  0  7G25G29G04G02G10G12G05
 117437298.785 7  91509769.828 7  22347580.664                    22347591.250
 128068439.290 6  99793647.751 6  24370622.586                    24370632.043
 122677170.034 6  95592718.18143  23344668.797                    23344677.789
 109627317.726 8  85423976.19046  20861368.445                    20861373.453
 113073765.634 7  88109537.81645  21517208.172                    21517215.656
 109059523.947 8  84981496.458 7  20753333.250                    20753340.863
 108182511.548 8  84298143.797 8  20586431.297                    20586438.461
 11  8  3  2 25 30.0000000  0  7G25G29G04G02G10G12G05
 117373328.407 7  91459922.835 7  22335407.539                    22335418.160
 127987372.852 6  99730479.173 6  24355195.836                    24355205.566
 122759735.840 6  95657055.13943  23360380.891                    23360390.430
 109652275.728 8  85443423.98746  20866117.500                    20866123.004
 113135828.076 7  88157898.15945  21529018.172                    21529025.809
 109059826.327 8  84981732.075 7  20753391.164                    20753398.270
 108139505.815 8  84264632.859 8  20578247.617                    20578255.254
 11  8  3  2 26  0.0000000  0  7G25G29G04G02G10G12G05
 117309894.529 7  91410493.868 7  22323337.078                    22323346.629
 127906321.693 6  99667322.458 6  24339771.656                    24339781.828
 122842363.620 6  95721440.39643  23376104.453                    23376113.305
 109677480.653 8  85463064.19846  20870914.078                    20870919.297
 113198473.083 7  88206712.45545  21540938.953                    21540946.617
 109060790.304 8  84982483.232 7  20753574.477                    20753581.660
 108097121.781 8  84231606.369 7  20570182.047                    20570189.766
 11  8  3  2 26 30.0000000  0  7G25G29G04G02G10G12G05
 117246924.020 7  91361425.996 7  22311353.453                    22311364.063
 127825210.710 6  99604119.156 6  24324337.609                    24324346.844
 122924977.112 6  95785814.52743  23391825.234                    23391833.992
 109702856.239 8  85482837.39246  20875742.820                    20875748.383
 113261622.941 7  88255920.13945  21552956.133                    21552963.867
 109062340.564 7  84983691.234 7  20753869.727                    20753876.832
 108055285.555 8  84199006.745 8  20562221.461                    20562228.773
 11  8  3  2 27  0.0000000  0  7G25G29G04G02G10G12G05
 117184419.328 7  91312721.079 7  22299459.227                    22299470.250
 127744041.336 6  99540870.357 6  24308891.328                    24308901.031
 123007575.382 6  95850176.81243  23407543.828                    23407551.906
 109728401.713 8  85502742.95646  20880603.945                    20880609.707
 113325275.265 7  88305519.36245  21565068.688                    21565076.324
 109064477.535 8  84985356.407 7  20754275.930                    20754282.844
 108013998.431 8  84166834.996 7  20554364.141                    20554372.023
 11  8  3  2 27 30.0000000  0  7G25G29G04G02G10G12G05
 117122298.867 7  91264315.575 7  22287638.266                    22287648.355
 127662730.331 6  99477511.207 6  24293417.766                    24293427.957
 123090074.132 6  95914461.53543  23423242.766                    23423250.547
 109754032.316 8  85522714.86546  20885481.477                    20885486.695
 113389344.148 7  88355443.16745  21577260.664                    21577268.258
 109067117.644 8  84987413.641 7  20754778.453                    20754785.445
 107973178.087 8  84135026.960 8  20546596.203                    20546604.020
 11  8  3  2 28  0.0000000  0  7G25G29G04G02G10G12G05
 117060726.431 7  91216337.105 7  22275921.625                    22275932.035
 127581440.322 6  99414168.409 5  24277948.023                    24277958.629
 123172634.124 6  95978793.99643  23438953.320                    23438961.773
 109779908.629 8  85542878.23646  20890405.422                    20890410.719
 113453989.034 7  88405815.81845  21589562.008                    21589569.785
 109070422.521 8  84989988.875 7  20755407.156                    20755414.230
 107932987.208 8  84103709.422 8  20538948.281                    20538955.391
 11  8  3  2 28 30.0000000  0  7G25G29G04G02G10G12G05
 116999626.056 7  91168726.461 7  22264294.180                    22264304.563
 127500093.736 6  99350781.572 6  24262469.336                    24262479.074
 123255176.386 6  96043112.64643  23454660.414                    23454668.445
 109805951.618 8  85563171.47746  20895361.211                    20895366.508
 113519129.248 7  88456574.43645  21601958.109                    21601965.402
 109074314.302 8  84993021.432 7  20756148.023                    20756155.203
 107893348.747 8  84072822.341 8  20531405.289                    20531412.598
 11  8  3  2 29  0.0000000  0  7G25G29G04G02G10G12G05
 116938918.404 7  91121421.843 7  22252742.031                    22252752.098
 127418609.825 6  99287287.684 6  24246963.781                    24246973.840
 123337618.616 6  96107353.31143  23470348.742                    23470357.336
 109832079.179 8  85583530.61346  20900333.164                    20900338.105
 113584680.869 7  88507653.62945  21614432.344                    21614439.313
 109078711.614 8  84996447.913 7  20756984.883                    20756991.484
 107854182.841 8  84042303.489 8  20523952.219                    20523959.703
 11  8  3  2 29 30.0000000  0  7G25G29G04G02G10G12G05
 116878763.610 7  91074548.021 7  22241294.445                    22241304.875
 127337147.463 6  99223810.600 6  24231461.789                    24231471.773
 123420117.883 7  96171638.45043  23486047.867                    23486056.125
 109858448.136 8  85604077.86346  20905351.047                    20905356.340
 113650799.355 7  88559174.53645  21627014.125                    21627021.348
 109083771.706 8  85000390.847 7  20757947.578                    20757954.547
 107815648.219 8  84012276.546 8  20516619.617                    20516626.863
 11  8  3  2 30  0.0000000  0  7G25G29G04G02G10G12G05
 116819087.258 7  91028047.004 7  22229938.156                    22229948.754
 127255630.883 6  99160291.268 6  24215949.422                    24215959.238
 123502597.005 6  96235907.89443  23501743.313                    23501752.039
 109884980.871 8  85624752.73046  20910400.023                    20910405.477
 113717405.927 7  88611075.76945  21639688.492                    21639696.324
 109089418.515 8  85004790.967 7  20759022.195                    20759029.656
 107777669.572 8  83982682.823 8  20509392.398                    20509399.664
 11  8  3  2 30 30.0000000  0  7G25G29G04G02G10G12G05
 116759811.059 7  90981857.792 7  22218658.719                    22218669.223
 127173980.575 6  99096667.692 6  24200412.039                    24200421.766
 123584974.861 6  96300098.40843  23517419.586                    23517427.613
 109911596.310 8  85645492.04846  20915464.984                    20915469.695
 113784417.612 7  88663292.67245  21652440.500                    21652448.105
 109095571.267 8  85009585.324 7  20760192.586                    20760200.172
 107740167.694 8  83953460.612 7  20502255.914                    20502263.113
 11  8  3  2 31  0.0000000  0  7G25G29G04G02G10G12G05
 116701092.125 7  90936102.814 7  22207484.555                    22207495.168
 127092352.214 7  99033061.297 6  24184878.398                    24184889.551
 123667405.467 6  96364330.06443  23533104.797                    23533113.754
 109938448.534 8  85666415.87846  20920574.508                    20920579.645
 113851987.083 7  88715944.21745  21665298.578                    21665306.203
 109102385.146 8  85014894.851 7  20761489.586                    20761496.605
 107703298.804 8  83924731.629 7  20495240.008                    20495247.301
 11  8  3  2 31 30.0000000  0  7G25G29G04G02G10G12G05
 116642857.585 7  90890725.280 7  22196403.000                    22196413.250
 127010671.697 7  98969414.218 6  24169335.180                    24169345.023
 123749813.332 6  96428543.94043  23548786.453                    23548795.723
 109965461.514 7  85687464.96646  20925715.164                    20925720.234
 113920036.964 7  88768970.10445  21678248.234                    21678255.500
 109109785.073 8  85020661.030 7  20762897.539                    20762904.559
 107666988.925 8  83896438.243 7  20488330.625                    20488337.711
 11  8  3  2 32  0.0000000  0  7G25G29G04G02G10G12G05
 116585109.482 7  90845726.784 7  22185413.711                    22185424.238
 126928940.079 6  98905727.312 6  24153782.156                    24153791.816
 123832197.567 6  96492739.47343  23564464.008                    23564472.281
 109992634.794 8  85708638.96546  20930885.359                    20930891.012
 113988564.831 7  88822368.44045  21691288.258                    21691295.887
 109117770.670 8  85026883.582 7  20764417.125                    20764424.605
 107631238.817 8  83868581.047 7  20481527.164                    20481534.441
 11  8  3  2 32 30.0000000  0  7G25G29G04G02G10G12G05
 116527767.269 7  90801044.555 7  22174501.977                    22174512.516
 126847075.474 6  98841936.768 6  24138203.961                    24138213.332
 123914474.812 6  96556851.60943  23580120.719                    23580129.238
 110019884.485 8  85729872.50746  20936071.359                    20936076.582
 114057485.583 7  88876072.91845  21704403.813                    21704411.543
 109126259.130 8  85033497.967 7  20766032.656                    20766039.805
 107595967.159 8  83841096.657 7  20474815.484                    20474822.492
 11  8  3  2 33  0.0000000  0  7G25G29G04G02G10G12G05
 116470993.490 7  90756805.253 7  22163698.336                    22163708.855
 126765239.140 6  98778168.296 6  24122630.242                    24122640.770
 123996804.927 6  96621004.95143  23595788.180                    23595796.215
 110047370.425 8  85751290.13946  20941301.469                    20941306.531
 114126957.132 7  88930206.59145  21717623.258                    21717630.938
 109135411.031 8  85040629.333 7  20767774.109                    20767781.105
 107561335.533 8  83814111.001 8  20468225.313                    20468232.344
 11  8  3  2 33 30.0000000  0  7G25G29G04G02G10G12G05
 116414711.225 7  90712948.953 7  22152988.242                    22152998.430
 126683353.201 6  98714361.190 6  24107048.047                    24107058.504
 124079108.310 6  96685137.48143  23611448.898                    23611457.582
 110075012.426 8  85772829.37846  20946561.789                    20946566.949
 114196898.039 7  88984705.99845  21730932.953                    21730940.340
 109145147.015 8  85048215.818 7  20769626.828                    20769634.078
 107527265.958 8  83787563.304 8  20461741.961                    20461749.129
 11  8  3  2 34  0.0000000  0  7G25G29G04G02G10G12G05
 116358855.000 8  90669424.643 7  22142359.039                    22142369.645
 126601350.656 6  98650463.217 6  24091443.648                    24091453.781
 124161316.800 6  96749196.01843  23627093.320                    23627101.586
 110102742.305 7  85794437.08946  20951838.602                    20951843.859
 114267238.522 7  89039516.77345  21744317.813                    21744325.727
 109155399.443 8  85056204.724 7  20771577.570                    20771584.973
 107493691.683 8  83761401.559 8  20455353.031                    20455360.004
 11  8  3  2 34 30.0000000  0  7G25G29G04G02G10G12G05
 116303556.154 8  90626334.649 7  22131835.961                    22131846.730
 126519362.219 6  98586576.260 6  24075841.211                    24075851.352
 124243558.759 6  96813280.65943  23642743.953                    23642752.094
 110130688.721 8  85816213.53846  20957156.438                    20957161.574
 114338105.160 7  89094737.53845  21757803.758                    21757811.578
 109166297.383 8  85064696.626 7  20773651.617                    20773658.371
 107460743.218 8  83735727.450 8  20449083.344                    20449090.230
 11  8  3  2 35  0.0000000  0  7G25G29G04G02G10G12G05
 116248751.068 8  90583629.402 7  22121407.063                    22121417.719
 126437323.084 6  98522649.770 6  24060230.000                    24060239.480
 124325768.216 6  96877339.99943  23658387.242                    23658395.953
 110158785.238 8  85838106.94646  20962502.766                    20962508.109
 114409429.779 7  89150315.17945  21771376.258                    21771384.180
 109177774.704 8  85073640.009 7  20775835.883                    20775842.980
 107428355.929 8  83710490.632 8  20442919.828                    20442927.277
 11  8  3  2 35 30.0000000  0  7G25G29G04G02G10G12G05
 116194442.196 8  90541310.815 7  22111072.375                    22111082.871
 126355234.688 6  98458684.909 6  24044608.492                    24044618.734
 124407944.945 7  96941373.81943  23674025.367                    23674033.961
 110187031.278 8  85860116.87846  20967878.453                    20967883.453
 114481210.280 7  89206248.02144  21785035.438                    21785043.004
 109189831.962 8  85083035.274 7  20778130.273                    20778137.605
 107396531.039 8  83685692.033 8  20436863.875                    20436870.891
 11  8  3  2 36  0.0000000  0  7G25G29G04G02G10G12G05
 116140631.986 8  90499380.803 7  22100833.070                    22100842.934
 126273098.272 5  98394682.648 6  24028978.336                    24028989.012
 124490088.727 6  97005381.96643  23689656.117                    23689665.086
 110215426.748 8  85882243.23046  20973281.508                    20973286.410
 114553444.658 7  89262534.54845  21798781.719                    21798788.910
 109202469.078 8  85092882.380 7  20780534.805                    20780542.324
 107365269.704 8  83661332.576 8  20430914.719                    20430921.988
 11  8  3  2 36 30.0000000  0  7G25G29G04G02G10G12G05
 116087322.172 8  90457840.719 7  22090688.352                    22090698.305
 126190914.764 6  98330643.710 6  24013339.117                    24013349.746
 124572198.671 6  97069363.73143  23705280.938                    23705290.383
 110243970.289 8  85904484.97846  20978712.961                    20978718.367
 114626130.253 7  89319172.67445  21812613.125                    21812620.305
 109215686.199 8  85103181.445 7  20783050.297                    20783057.441
 107334572.901 8  83637413.012 8  20425073.523                    20425080.426
 11  8  3  2 37  0.0000000  0  7G25G29G04G02G10G12G05
 116034514.935 8  90416692.250 7  22080639.297                    22080649.648
 126108685.282 6  98266568.917 6  23997691.875                    23997701.676
 124654274.408 6  97133318.88443  23720900.133                    23720908.371
 110272661.612 8  85926841.87346  20984172.875                    20984178.180
 114699265.018 7  89376160.81545  21826530.406                    21826537.637
 109229481.997 8  85113931.426 7  20785675.789                    20785682.363
 107304441.543 8  83613934.059 8  20419339.797                    20419346.898
 11  8  3  2 37 30.0000000  0  7G25G29G04G02G10G12G05
 115982212.675 8  90375937.285 7  22070686.539                    22070696.551
 126026411.346 6  98202459.477 6  23982035.672                    23982045.004
 124736316.042 6  97197247.43043  23736512.961                    23736521.020
 110301500.402 8  85949313.67846  20989660.602                    20989666.023
 114772846.514 7  89433497.05145  21840531.984                    21840540.176
 109243856.883 8  85125132.644 7  20788410.742                    20788417.473
 107274876.934 8  83590896.730 8  20413713.922                    20413721.250
 11  8  3  2 38  0.0000000  0  7G25G29G04G02G10G12G05
 115930416.895 8  90335576.971 7  22060830.227                    22060840.289
 125944093.588 6  98138315.889 6  23966370.445                    23966380.285
 124818322.170 6  97261148.31443  23752117.430                    23752125.445
 110330485.122 7  85971899.18746  20995176.219                    20995181.602
 114846872.036 7  89491179.28645  21854619.383                    21854627.039
 109258810.432 8  85136784.766 7  20791255.969                    20791263.473
 107245879.523 8  83568301.376 8  20408195.656                    20408202.801
 11  8  3  2 38 30.0000000  0  7G25G29G04G02G10G12G05
 115879130.189 8  90295613.342 7  22051070.516                    22051081.043
 125861733.367 6  98074139.240 6  23950698.055                    23950707.629
 124900293.074 6  97325021.75643  23767715.531                    23767724.695
 110359616.257 7  85994598.78946  21000720.023                    21000724.840
 114921339.821 7  89549206.14244  21868789.680                    21868797.602
 109274342.564 8  85148887.732 7  20794211.914                    20794219.324
 107217450.907 8  83546149.236 8  20402785.555                    20402793.316
 11  8  3  2 39  0.0000000  0  7G25G29G04G02G10G12G05
 115828354.101 8  90256047.616 7  22041408.500                    22041418.082
 125779331.719 6  98009930.309 6  23935017.086                    23935027.043
 124982227.997 6  97388867.12643  23783307.109                    23783316.020
 110388892.569 7  86017411.51246  21006290.305                    21006295.930
 114996246.737 7  89607575.17445  21883043.883                    21883051.273
 109290452.449 8  85161440.898 7  20797277.797                    20797284.551
 107189591.370 7  83524440.530 8  20397484.641                    20397491.602
 11  8  3  2 39 30.0000000  0  7G25G29G04G02G10G12G05
 115778090.449 8  90216881.185 7  22031843.047                    22031853.590
 125696889.800 6  97945689.987 6  23919329.125                    23919338.656
 125064126.272 6  97452683.95443  23798892.555                    23798900.754
 110418312.767 8  86040336.36046  21011889.406                    21011894.527
 115071590.045 7  89666284.24545  21897381.211                    21897388.656
 109307139.991 8  85174444.178 7  20800453.039                    20800459.953
 107162301.318 8  83503175.591 8  20392291.016                    20392298.617
 11  8  3  2 40  0.0000000  0  7G25G29G04G02G10G12G05
 115728341.465 8  90178115.792 7  22022376.367                    22022386.695
 125614408.733 6  97881419.136 6  23903633.492                    23903643.207
 125145987.668 6  97516472.05743  23814470.008                    23814478.480
 110447876.937 8  86063373.39746  21017515.297                    21017520.719
 115147367.503 7  89725331.61945  21911801.578                    21911809.156
 109324404.961 8  85187897.405 7  20803738.781                    20803745.523
 107135582.137 8  83482355.479 8  20387206.961                    20387214.094
 11  8  3  2 40 30.0000000  0  7G25G29G04G02G10G12G05
 115679108.371 8  90139752.395 7  22013007.266                    22013017.445
 125531889.352 6  97817118.419 6  23887930.297                    23887940.004
 125227811.138 6  97580230.61043  23830040.234                    23830048.961
 110477583.698 8  86086521.53446  21023168.180                    21023173.797
 115223576.044 7  89784714.90345  21926303.219                    21926311.145
 109342245.960 8  85201799.490 7  20807133.297                    20807140.723
 107109433.958 8  83461980.296 8  20382230.703                    20382238.004
 11  8  3  2 41  0.0000000  0  7G25G29G04G02G10G12G05
 115630392.907 8  90101792.342 7  22003737.188                    22003747.051
 125449332.046 6  97752788.188 6  23872219.695                    23872230.234
 125309596.099 6  97643959.13543  23845603.320                    23845612.008
 110507431.905 8  86109779.88746  21028848.172                    21028853.203
 115300212.977 7  89844432.00144  21940886.258                    21940894.281
 109360662.124 8  85216149.750 7  20810637.898                    20810644.664
 107083857.480 8  83442050.603 8  20377363.734                    20377370.785
 11  8  3  2 41 30.0000000  0  7G25G29G04G02G10G12G05
 115582196.988 8  90064237.140 7  21994565.727                    21994575.723
 125366738.519 6  97688429.736 6  23856501.922                    23856512.445
 125391342.331 6  97707657.48443  23861159.844                    23861168.445
 110537421.602 8  86133148.49146  21034555.125                    21034560.523
 115377275.953 7  89904481.07345  21955551.648                    21955558.906
 109379653.461 8  85230948.203 7  20814251.891                    20814259.016
 107058853.307 8  83422566.861 8  20372605.742                    20372612.926
 11  8  3  2 42  0.0000000  0  7G25G29G04G02G10G12G05
 115534522.696 8  90027088.387 7  21985493.609                    21985503.598
 125284110.162 6  97624044.163 6  23840779.141                    23840788.793
 125473049.160 6  97771325.12943  23876707.266                    23876716.172
 110567552.048 8  86156626.76346  21040288.078                    21040294.063
 115454762.446 7  89964860.16144  21970297.070                    21970304.219
 109399219.585 8  85246194.530 7  20817974.914                    20817982.379
 107034422.179 8  83403529.641 8  20367956.328                    20367963.629
 11  8  3  2 42 30.0000000  0  7G25G29G04G02G10G12G05
 115487370.420 8  89990346.393 7  21976520.547                    21976530.883
 125201446.589 6  97559631.118 6  23825048.258                    23825058.238
 125554715.241 6  97834960.99343  23892248.406                    23892256.836
 110597821.242 8  86180213.15046  21046048.883                    21046054.285
 115532668.592 7  90025566.24745  21985121.594                    21985128.875
 109419358.697 8  85261887.347 7  20821807.594                    20821814.426
 107010563.544 8  83384938.519 8  20363416.391                    20363423.816
